[[{"header":{"parameterUnit":"m.s-1","parameterCategory":1,"la1":30.6,"la2":28.766,"lo1":-90.7593,"lo2":-88.6598,"dy":0.0162,"dx":0.0183,"nx":116,"ny":114,"refTime":"2023-11-16T06:00:00:Z","depth":0,"parameterNumber":2,"parameterNumberName":"U-component_of_WINDS"},"data":[0.0,0.0,0.0,0.0,0.0,0.0,0.0,0.0,0.0,0.0,0.0,0.0,0.0,0.0,0.0,0.0,0.0,0.0,0.0,0.0,0.0,0.0,0.0,0.0,0.0,0.0,0.0,0.0,0.0,0.0,0.0,0.0,0.0,0.0,0.0,0.0,0.0,0.0,0.0,0.0,0.0,0.0,0.0,0.0,0.0,0.0,0.0,0.0,0.0,0.0,0.0,0.0,0.0,0.0,0.0,0.0,0.0,0.0,0.0,0.0,0.0,0.0,0.0,0.0,0.0,0.0,0.0,0.0,0.0,0.0,0.0,0.0,0.0,0.0,0.0,0.0,0.0,0.0,0.0,0.0,0.0,0.0,0.0,0.0,0.0,0.0,0.0,0.0,0.0,0.0,0.0,0.0,0.0,0.0,0.0,0.0,0.0,0.0,0.0,0.0,0.0,0.0,0.0,0.0,0.0,0.0,0.0,0.0,0.0,0.0,0.0,0.0,0.0,0.0,0.0,0.0,0.0,0.0,0.0,0.0,0.0,0.0,0.0,0.0,0.0,0.0,0.0,0.0,0.0,0.0,0.0,0.0,0.0,0.0,0.0,0.0,0.0,0.0,0.0,0.0,0.0,0.0,0.0,0.0,0.0,0.0,0.0,0.0,0.0,0.0,0.0,0.0,0.0,0.0,0.0,0.0,0.0,0.0,0.0,0.0,0.0,0.0,0.0,0.0,0.0,0.0,0.0,0.0,0.0,0.0,0.0,0.0,0.0,0.0,0.0,0.0,0.0,0.0,0.0,0.0,0.0,0.0,0.0,0.0,0.0,0.0,0.0,0.0,0.0,0.0,0.0,0.0,0.0,0.0,0.0,0.0,0.0,0.0,0.0,0.0,0.0,0.0,0.0,0.0,0.0,0.0,0.0,0.0,0.0,0.0,0.0,0.0,0.0,0.0,0.0,0.0,0.0,0.0,0.0,0.0,0.0,0.0,0.0,0.0,0.0,0.0,0.0,0.0,0.0,0.0,0.0,0.0,0.0,0.0,0.0,0.0,0.0,0.0,0.0,0.0,0.0,0.0,0.0,0.0,0.0,0.0,0.0,0.0,0.0,0.0,0.0,0.0,0.0,0.0,0.0,0.0,0.0,0.0,0.0,0.0,0.0,0.0,0.0,0.0,0.0,0.0,0.0,0.0,0.0,0.0,0.0,0.0,0.0,0.0,0.0,0.0,0.0,0.0,0.0,0.0,0.0,0.0,0.0,0.0,0.0,0.0,0.0,0.0,0.0,0.0,0.0,0.0,0.0,0.0,0.0,0.0,0.0,0.0,0.0,0.0,0.0,0.0,0.0,0.0,0.0,0.0,0.0,0.0,0.0,0.0,0.0,0.0,0.0,0.0,0.0,0.0,0.0,0.0,0.0,0.0,0.0,0.0,0.0,0.0,0.0,0.0,0.0,0.0,0.0,0.0,0.0,0.0,0.0,0.0,0.0,0.0,0.0,0.0,0.0,0.0,0.0,0.0,0.0,0.0,0.0,0.0,0.0,0.0,0.0,0.0,0.0,0.0,0.0,0.0,0.0,0.0,0.0,0.0,0.0,0.0,0.0,0.0,0.0,0.0,0.0,0.0,0.0,0.0,0.0,0.0,0.0,0.0,0.0,0.0,0.0,0.0,0.0,0.0,0.0,0.0,0.0,0.0,0.0,0.0,0.0,0.0,0.0,0.0,0.0,0.0,0.0,0.0,0.0,0.0,0.0,0.0,0.0,0.0,0.0,0.0,0.0,0.0,0.0,0.0,0.0,0.0,0.0,0.0,0.0,0.0,0.0,0.0,0.0,0.0,0.0,0.0,0.0,0.0,0.0,0.0,0.0,0.0,0.0,0.0,0.0,0.0,0.0,0.0,0.0,0.0,0.0,0.0,0.0,0.0,0.0,0.0,0.0,0.0,0.0,0.0,0.0,0.0,0.0,0.0,0.0,0.0,0.0,0.0,0.0,0.0,0.0,0.0,0.0,0.0,0.0,0.0,0.0,0.0,0.0,0.0,0.0,0.0,0.0,0.0,0.0,0.0,0.0,0.0,0.0,0.0,0.0,0.0,0.0,0.0,0.0,0.0,0.0,0.0,0.0,0.0,0.0,0.0,0.0,0.0,0.0,0.0,0.0,0.0,0.0,0.0,0.0,0.0,0.0,0.0,0.0,0.0,0.0,0.0,0.0,0.0,0.0,0.0,0.0,0.0,0.0,0.0,0.0,0.0,0.0,0.0,0.0,0.0,0.0,0.0,0.0,0.0,0.0,0.0,0.0,0.0,0.0,0.0,0.0,0.0,0.0,0.0,0.0,0.0,0.0,0.0,0.0,0.0,0.0,0.0,0.0,0.0,0.0,0.0,0.0,0.0,0.0,0.0,0.0,0.0,0.0,0.0,0.0,0.0,0.0,0.0,0.0,0.0,0.0,0.0,0.0,0.0,0.0,0.0,0.0,0.0,0.0,0.0,0.0,0.0,0.0,0.0,0.0,0.0,0.0,0.0,0.0,0.0,0.0,0.0,0.0,0.0,0.0,0.0,0.0,0.0,0.0,0.0,0.0,0.0,0.0,0.0,0.0,0.0,0.0,0.0,0.0,0.0,0.0,0.0,0.0,0.0,0.0,0.0,0.0,0.0,0.0,0.0,0.0,0.0,0.0,0.0,0.0,0.0,0.0,0.0,0.0,0.0,0.0,0.0,0.0,0.0,0.0,0.0,0.0,0.0,0.0,0.0,0.0,0.0,0.0,0.0,0.0,0.0,0.0,0.0,0.0,0.0,0.0,0.0,0.0,0.0,0.0,0.0,0.0,0.0,0.0,0.0,0.0,0.0,0.0,0.0,0.0,0.0,0.0,0.0,0.0,0.0,0.0,0.0,0.0,0.0,0.0,0.0,0.0,0.0,0.0,0.0,0.0,0.0,0.0,0.0,0.0,0.0,0.0,0.0,0.0,0.0,0.0,0.0,0.0,0.0,0.0,0.0,0.0,0.0,0.0,0.0,0.0,0.0,0.0,0.0,0.0,0.0,0.0,0.0,0.0,0.0,0.0,0.0,0.0,0.0,0.0,0.0,0.0,0.0,0.0,0.0,0.0,0.0,0.0,0.0,0.0,0.0,0.0,0.0,0.0,0.0,0.0,0.0,0.0,0.0,0.0,0.0,0.0,0.0,0.0,0.0,0.0,0.0,0.0,0.0,0.0,0.0,0.0,0.0,0.0,0.0,0.0,0.0,0.0,0.0,0.0,0.0,0.0,0.0,0.0,0.0,0.0,0.0,0.0,0.0,0.0,0.0,0.0,0.0,0.0,0.0,0.0,0.0,0.0,0.0,0.0,0.0,0.0,0.0,0.0,0.0,0.0,0.0,0.0,0.0,0.0,0.0,0.0,0.0,0.0,0.0,0.0,0.0,0.0,0.0,0.0,0.0,0.0,0.0,0.0,0.0,0.0,0.0,0.0,0.0,0.0,0.0,0.0,0.0,0.0,0.0,0.0,0.0,0.0,0.0,0.0,0.0,0.0,0.0,0.0,0.0,0.0,0.0,0.0,0.0,0.0,0.0,0.0,0.0,0.0,0.0,0.0,0.0,0.0,0.0,0.0,0.0,0.0,0.0,0.0,0.0,0.0,0.0,0.0,0.0,0.0,0.0,0.0,0.0,0.0,0.0,0.0,0.0,0.0,0.0,0.0,0.0,0.0,0.0,0.0,0.0,0.0,0.0,0.0,0.0,0.0,0.0,0.0,0.0,0.0,0.0,0.0,0.0,0.0,0.0,0.0,0.0,0.0,0.0,0.0,0.0,0.0,0.0,0.0,0.0,0.0,0.0,0.0,0.0,0.0,0.0,0.0,0.0,0.0,0.0,0.0,0.0,0.0,0.0,0.0,0.0,0.0,0.0,0.0,0.0,0.0,0.0,0.0,0.0,0.0,0.0,0.0,0.0,0.0,0.0,0.0,0.0,0.0,0.0,0.0,0.0,0.0,0.0,0.0,0.0,0.0,0.0,0.0,0.0,0.0,0.0,0.0,0.0,0.0,0.0,0.0,0.0,0.0,0.0,0.0,0.0,0.0,0.0,0.0,0.0,0.0,0.0,0.0,0.0,0.0,0.0,0.0,0.0,0.0,0.0,0.0,0.0,0.0,0.0,0.0,0.0,0.0,0.0,0.0,0.0,0.0,0.0,0.0,0.0,0.0,0.0,0.0,0.0,0.0,0.0,0.0,0.0,0.0,0.0,0.0,0.0,0.0,0.0,0.0,0.0,0.0,0.0,0.0,0.0,0.0,0.0,0.0,0.0,0.0,0.0,0.0,0.0,0.0,0.0,0.0,0.0,0.0,0.0,0.0,0.0,0.0,0.0,0.0,0.0,0.0,0.0,0.0,0.0,0.0,0.0,0.0,0.0,0.0,0.0,0.0,0.0,0.0,0.0,0.0,0.0,0.0,0.0,0.0,0.0,0.0,0.0,0.0,0.0,0.0,0.0,0.0,0.0,0.0,0.0,0.0,0.0,0.0,0.0,0.0,0.0,0.0,0.0,0.0,0.0,0.0,0.0,0.0,0.0,0.0,0.0,0.0,0.0,0.0,0.0,0.0,0.0,0.0,0.0,0.0,0.0,0.0,0.0,0.0,0.0,0.0,0.0,0.0,0.0,0.0,0.0,0.0,0.0,0.0,0.0,0.0,0.0,0.0,0.0,0.0,0.0,0.0,0.0,0.0,0.0,0.0,0.0,0.0,0.0,0.0,0.0,0.0,0.0,0.0,0.0,0.0,0.0,0.0,0.0,0.0,0.0,0.0,0.0,0.0,0.0,0.0,0.0,0.0,0.0,0.0,0.0,0.0,0.0,0.0,0.0,0.0,0.0,0.0,0.0,0.0,0.0,0.0,0.0,0.0,0.0,0.0,0.0,0.0,0.0,0.0,0.0,0.0,0.0,0.0,0.0,0.0,0.0,0.0,0.0,0.0,0.0,0.0,0.0,0.0,0.0,0.0,0.0,0.0,0.0,0.0,0.0,0.0,0.0,0.0,0.0,0.0,0.0,0.0,0.0,0.0,0.0,0.0,0.0,0.0,0.0,0.0,0.0,0.0,0.0,0.0,0.0,0.0,0.0,0.0,0.0,0.0,0.0,0.0,0.0,0.0,0.0,0.0,0.0,0.0,0.0,0.0,0.0,0.0,0.0,0.0,0.0,0.0,0.0,0.0,0.0,0.0,0.0,0.0,0.0,0.0,0.0,0.0,0.0,0.0,0.0,0.0,0.0,0.0,0.0,0.0,0.0,0.0,0.0,0.0,0.0,0.0,0.0,0.0,0.0,0.0,0.0,0.0,0.0,0.0,0.0,0.0,0.0,0.0,0.0,0.0,0.0,0.0,0.0,0.0,0.0,0.0,0.0,0.0,0.0,0.0,0.0,0.0,0.0,0.0,0.0,0.0,0.0,0.0,0.0,0.0,0.0,0.0,0.0,0.0,0.0,0.0,0.0,0.0,0.0,0.0,0.0,0.0,0.0,0.0,0.0,0.0,0.0,0.0,0.0,0.0,0.0,0.0,0.0,0.0,0.0,0.0,0.0,0.0,0.0,0.0,0.0,0.0,0.0,0.0,0.0,0.0,0.0,0.0,0.0,0.0,0.0,0.0,0.0,0.0,0.0,0.0,0.0,0.0,0.0,0.0,0.0,0.0,0.0,0.0,0.0,0.0,0.0,0.0,0.0,0.0,0.0,0.0,0.0,0.0,0.0,0.0,0.0,0.0,0.0,0.0,0.0,0.0,0.0,0.0,0.0,0.0,0.0,0.0,0.0,0.0,0.0,0.0,0.0,0.0,0.0,0.0,0.0,0.0,0.0,0.0,0.0,0.0,0.0,0.0,0.0,0.0,0.0,0.0,0.0,0.0,0.0,0.0,0.0,0.0,0.0,0.0,0.0,0.0,0.0,0.0,0.0,0.0,0.0,0.0,0.0,0.0,0.0,0.0,0.0,0.0,0.0,0.0,0.0,0.0,0.0,0.0,0.0,0.0,0.0,0.0,0.0,0.0,0.0,0.0,0.0,0.0,0.0,0.0,0.0,0.0,0.0,0.0,0.0,0.0,0.0,-2.34,-2.1695,0.0,0.0,0.0,0.0,0.0,0.0,0.0,0.0,0.0,0.0,0.0,0.0,0.0,0.0,0.0,0.0,0.0,0.0,0.0,0.0,0.0,0.0,0.0,0.0,0.0,0.0,0.0,0.0,0.0,0.0,0.0,0.0,0.0,0.0,0.0,0.0,0.0,-2.7049,-2.8062,-2.9205,-3.0492,-2.9389,-2.8576,-2.7905,0.0,0.0,0.0,0.0,0.0,0.0,0.0,0.0,0.0,0.0,0.0,0.0,0.0,0.0,0.0,0.0,0.0,0.0,0.0,0.0,0.0,0.0,0.0,0.0,0.0,0.0,0.0,0.0,0.0,0.0,0.0,0.0,0.0,0.0,0.0,0.0,0.0,0.0,0.0,0.0,0.0,0.0,0.0,0.0,0.0,0.0,0.0,0.0,0.0,0.0,0.0,0.0,0.0,0.0,0.0,0.0,0.0,0.0,0.0,0.0,0.0,0.0,0.0,0.0,0.0,0.0,0.0,0.0,0.0,0.0,-2.4423,-2.3281,0.0,0.0,0.0,0.0,0.0,0.0,0.0,0.0,0.0,0.0,0.0,0.0,0.0,0.0,0.0,0.0,0.0,0.0,0.0,0.0,0.0,0.0,0.0,-2.7484,-2.7408,-2.7408,-2.7174,-2.7071,0.0,0.0,0.0,0.0,0.0,0.0,0.0,-2.7023,-2.7085,-2.7944,-2.9532,-3.0821,-3.1839,-3.1839,-3.13,-3.0165,-2.7455,0.0,0.0,0.0,0.0,0.0,0.0,0.0,0.0,0.0,0.0,0.0,0.0,0.0,0.0,0.0,0.0,0.0,0.0,0.0,0.0,0.0,0.0,0.0,0.0,0.0,0.0,0.0,0.0,0.0,0.0,0.0,0.0,0.0,0.0,0.0,0.0,0.0,0.0,0.0,0.0,0.0,0.0,0.0,0.0,0.0,0.0,0.0,0.0,0.0,0.0,0.0,0.0,0.0,0.0,0.0,0.0,0.0,0.0,0.0,0.0,0.0,0.0,0.0,-2.9387,-2.9202,-2.9367,-2.9367,-2.8761,-2.7556,-2.6228,-2.5696,-2.5615,-2.3558,0.0,0.0,0.0,0.0,0.0,0.0,0.0,0.0,0.0,0.0,0.0,0.0,0.0,0.0,0.0,0.0,0.0,0.0,0.0,0.0,0.0,-2.7049,-2.6657,-2.6628,-2.5467,-2.5021,-2.5632,0.0,0.0,0.0,0.0,0.0,-2.7585,-2.7509,-2.8051,-2.9352,-3.1779,-3.3066,-3.3245,-3.3245,-3.3155,-3.2886,-3.0717,-2.9522,-2.9052,0.0,0.0,0.0,0.0,0.0,0.0,0.0,0.0,0.0,0.0,0.0,0.0,0.0,0.0,0.0,0.0,0.0,0.0,0.0,0.0,0.0,0.0,0.0,0.0,0.0,0.0,0.0,0.0,0.0,0.0,0.0,0.0,0.0,0.0,0.0,0.0,0.0,0.0,0.0,0.0,0.0,-2.7824,-2.9172,0.0,0.0,0.0,0.0,0.0,0.0,0.0,0.0,0.0,0.0,0.0,0.0,0.0,-2.9234,-3.1145,-3.0019,-3.0377,-3.2178,-3.1447,-3.1442,-3.2106,-3.2106,-3.1986,-3.175,-3.0384,0.0,-2.6471,-2.6665,0.0,0.0,0.0,0.0,0.0,0.0,0.0,0.0,0.0,0.0,0.0,0.0,0.0,0.0,0.0,0.0,0.0,0.0,0.0,0.0,0.0,-2.7101,-2.6947,-2.7367,-2.7014,-2.6616,-2.6318,-2.5885,0.0,0.0,0.0,-2.6334,-2.756,-2.7883,-2.9271,-3.1779,-3.2946,-3.3873,-3.4622,-3.4622,-3.4622,-3.456,-3.368,-3.2287,-3.0559,-2.8719,0.0,0.0,0.0,0.0,0.0,0.0,0.0,0.0,0.0,0.0,0.0,0.0,0.0,0.0,0.0,0.0,0.0,0.0,0.0,0.0,0.0,0.0,0.0,0.0,0.0,0.0,0.0,0.0,0.0,0.0,0.0,0.0,0.0,0.0,0.0,0.0,0.0,0.0,0.0,-2.7884,-2.9232,-3.0522,-3.0043,-2.9382,0.0,0.0,0.0,0.0,0.0,0.0,0.0,0.0,0.0,-3.1848,-3.1236,-3.1889,-3.3931,-3.3379,-3.3724,-3.4961,-3.4643,-3.4856,-3.5567,-3.5567,-3.5346,-3.4937,-3.4333,-3.2772,-3.051,-2.9224,-2.8668,-2.8512,0.0,0.0,0.0,0.0,-2.5313,-2.5514,0.0,0.0,0.0,0.0,0.0,0.0,0.0,0.0,0.0,0.0,0.0,0.0,-2.741,-2.7282,-2.7379,-2.7921,-2.8071,-2.7627,-2.6509,-2.6091,-2.598,-2.6206,-2.5356,-2.5714,-2.756,-2.866,-3.0602,-3.3484,-3.3844,-3.4532,-3.5519,-3.5519,-3.5519,-3.5519,-3.5519,-3.4203,-3.193,-3.0637,-2.919,-2.7654,0.0,0.0,0.0,0.0,0.0,0.0,0.0,0.0,0.0,0.0,0.0,0.0,0.0,0.0,0.0,0.0,0.0,0.0,0.0,0.0,0.0,0.0,0.0,0.0,0.0,0.0,0.0,0.0,0.0,0.0,0.0,0.0,0.0,0.0,0.0,0.0,0.0,-2.9235,-3.0582,-3.1839,-3.148,-3.0971,0.0,0.0,0.0,0.0,0.0,0.0,-3.2308,-3.216,-3.2884,-3.4704,-3.4105,-3.4474,-3.6043,-3.5883,-3.6055,-3.6554,-3.6554,-3.6919,-3.7614,-3.7614,-3.7434,-3.707,-3.707,-3.6191,-3.4553,-3.195,-3.0871,-3.0792,-3.0013,-2.9293,-2.8601,-2.8044,-2.7841,-2.7874,0.0,0.0,0.0,0.0,0.0,0.0,0.0,0.0,0.0,0.0,0.0,-2.7768,-2.7098,-2.7332,-2.7591,-2.7624,-2.7002,-2.6123,-2.498,-2.5527,-2.5768,-2.5467,-2.6068,-2.6759,-2.756,-3.0048,-3.2049,-3.3484,-3.4771,-3.5429,-3.5519,-3.5519,-3.5519,-3.5519,-3.5519,-3.4711,-3.3364,-3.256,-3.0959,-2.8778,-2.692,0.0,0.0,0.0,0.0,0.0,0.0,0.0,0.0,0.0,0.0,0.0,0.0,0.0,0.0,0.0,0.0,0.0,0.0,0.0,0.0,0.0,0.0,0.0,0.0,0.0,0.0,0.0,0.0,0.0,0.0,0.0,0.0,0.0,0.0,0.0,0.0,0.0,0.0,-3.3245,-3.4472,0.0,0.0,0.0,0.0,-3.1451,-3.2667,-3.3778,-3.449,-3.5712,-3.6761,-3.7569,-3.6958,-3.6662,-3.6754,-3.6107,-3.5814,-3.5868,-3.5868,-3.6214,-3.6835,-3.6835,-3.7228,-3.7841,-3.7841,-3.7783,-3.7509,-3.5262,-3.3571,-3.2309,-3.1422,-3.1069,-3.1021,-3.0987,-3.0954,-3.1157,0.0,0.0,0.0,0.0,0.0,0.0,0.0,0.0,-2.668,-2.6176,-2.6462,-2.6764,-2.6973,-2.7551,-2.8107,-2.8569,-2.862,-2.8122,-2.7017,-2.6511,-2.6347,-2.6426,-2.6022,-2.7164,-3.0046,-3.1869,-3.3455,-3.4801,-3.528,-3.5519,-3.5519,-3.5519,-3.5519,-3.5519,-3.5519,-3.522,-3.4769,-3.4515,-3.3144,-3.1073,-2.9794,-2.8121,0.0,0.0,0.0,0.0,0.0,0.0,0.0,0.0,0.0,0.0,0.0,0.0,0.0,0.0,0.0,0.0,0.0,0.0,0.0,0.0,0.0,0.0,0.0,0.0,0.0,0.0,0.0,0.0,0.0,0.0,0.0,0.0,0.0,0.0,0.0,0.0,0.0,-3.3335,-3.3933,0.0,-3.3544,-3.397,-3.3876,-3.2856,-3.4474,-3.5654,-3.5917,-3.6391,-3.7217,-3.8497,-3.8264,-3.8378,-3.8923,-3.8683,-3.8576,-3.8576,-3.8576,-3.8679,-3.8942,-3.8942,-3.9076,-3.9334,-3.9334,-3.9039,-3.8541,-3.7773,-3.687,-3.5887,-3.5116,-3.4798,-3.4764,-3.4235,-3.4032,-3.4112,0.0,0.0,0.0,0.0,0.0,0.0,0.0,0.0,-2.6345,-2.5992,-2.6233,-2.6707,-2.7328,-2.8158,-2.8872,-2.9361,-2.9656,-2.9151,-2.7645,-2.6901,-2.6491,-2.6452,-2.6694,-2.8508,-3.2108,-3.3066,-3.4262,-3.5848,-3.5848,-3.5938,-3.6148,-3.6148,-3.6148,-3.6148,-3.5938,-3.5848,-3.5818,-3.5609,-3.4306,-3.2388,-3.173,-2.9839,-2.7244,0.0,0.0,0.0,0.0,0.0,0.0,0.0,0.0,0.0,0.0,0.0,0.0,0.0,0.0,0.0,0.0,0.0,0.0,0.0,0.0,0.0,0.0,0.0,0.0,0.0,0.0,0.0,0.0,0.0,0.0,0.0,0.0,0.0,0.0,-3.136,-3.2527,-3.3395,-3.3903,-3.4173,-3.4173,-3.4668,-3.485,-3.4577,-3.6073,-3.7114,-3.735,-3.7642,-3.8241,-3.9289,-3.9315,-3.9558,-4.0113,-4.0113,-4.0113,-4.0113,-4.0113,-4.0113,-4.0113,-4.0113,-4.0113,-4.0113,-4.0113,-3.9842,-3.9368,-3.9368,-3.9073,-3.8531,-3.755,-3.7178,-3.711,-3.6569,-3.6377,-3.6377,0.0,0.0,0.0,0.0,0.0,0.0,0.0,-2.5987,-2.605,-2.4976,-2.6432,-2.7678,-2.8044,-2.9126,-2.9804,-2.9804,-2.9804,-2.8888,-2.6735,-2.6533,-2.6214,-2.5466,-2.8152,-3.0911,-3.3455,-3.3574,-3.4562,-3.6507,-3.6507,-3.6836,-3.7404,-3.7404,-3.7404,-3.7375,-3.6776,-3.6507,-3.6477,-3.5818,-3.4438,-3.268,-3.2458,-3.0527,-2.7624,0.0,0.0,0.0,0.0,0.0,0.0,0.0,0.0,0.0,0.0,0.0,0.0,0.0,0.0,0.0,0.0,0.0,0.0,0.0,0.0,0.0,0.0,0.0,0.0,0.0,0.0,0.0,0.0,0.0,0.0,0.0,0.0,0.0,-3.1391,-3.2677,-3.3514,-3.3544,-3.4711,-3.5519,-3.5519,-3.5522,-3.5878,-3.6569,-3.7383,-3.8197,-3.892,-3.9703,-4.0155,-4.018,-4.018,-4.018,-4.018,-4.018,-4.018,-4.018,-4.0146,-4.0146,-4.0146,-4.0113,-4.0113,-4.0113,-4.0113,-4.0113,-4.0113,-4.0113,-4.0113,-3.9977,-3.8531,-3.799,-3.799,-3.799,-3.799,-3.799,0.0,0.0,0.0,0.0,0.0,0.0,-2.4709,-2.4766,-2.5054,-2.5527,-2.6301,-2.7145,-2.8033,-2.9126,-2.9804,-2.9804,-2.9804,-2.9441,-2.8514,-2.724,-2.6557,-2.6767,-2.9743,-3.2275,-3.4173,-3.516,-3.6148,-3.7165,-3.7165,-3.7255,-3.7404,-3.7404,-3.7404,-3.7404,-3.7225,-3.7165,-3.7105,-3.6477,-3.5511,-3.4234,-3.3023,-3.1853,-3.0699,0.0,0.0,0.0,0.0,0.0,0.0,0.0,0.0,0.0,0.0,0.0,0.0,0.0,0.0,0.0,0.0,0.0,0.0,0.0,0.0,0.0,0.0,0.0,0.0,0.0,0.0,0.0,0.0,0.0,0.0,0.0,-3.1809,-3.2557,-3.2916,-3.3275,-3.3873,-3.4831,-3.528,-3.5519,-3.5519,-3.6508,-3.7245,-3.7375,-3.8704,-3.9795,-4.0517,-4.0807,-4.1136,-4.1677,-4.1704,-4.1704,-4.1704,-4.1704,-4.1704,-4.1677,-4.1136,-4.0899,-4.0865,-4.035,-4.0113,-4.0113,-4.0113,-4.0113,-4.0113,-4.0113,-4.0113,-4.0079,-3.9673,-3.9503,-3.9503,-3.9503,-3.9503,-3.9503,0.0,0.0,0.0,0.0,0.0,0.0,-2.4366,-2.4279,-2.4767,-2.5981,-2.6341,-2.7102,-2.8649,-2.9402,-2.9804,-2.9804,-2.9352,-2.8784,-2.8116,-2.7293,-2.7424,-2.8796,-3.1562,-3.3785,-3.531,-3.6327,-3.7195,-3.7823,-3.7823,-3.7973,-3.8242,-3.8242,-3.8242,-3.8242,-3.7943,-3.7823,-3.7793,-3.7135,-3.6325,-3.5273,-3.4087,-3.2748,-3.1364,-3.046,-2.9921,-2.9473,-2.833,-2.878,-2.97,-2.8266,0.0,0.0,0.0,0.0,0.0,0.0,0.0,0.0,0.0,0.0,0.0,0.0,0.0,0.0,0.0,0.0,0.0,0.0,0.0,0.0,0.0,0.0,0.0,0.0,-3.2647,-3.3694,-3.4262,-3.4352,-3.4622,-3.54,-3.5759,-3.6072,-3.64,-3.7468,-3.8456,-3.9111,-4.0029,-4.0884,-4.1622,-4.1655,-4.1848,-4.2286,-4.2286,-4.2286,-4.2286,-4.2286,-4.2286,-4.2286,-4.188,-4.1644,-4.1644,-4.0899,-4.0561,-4.0527,-4.0248,-4.0113,-4.0113,-4.0113,-4.0113,-4.0113,0.0,0.0,0.0,0.0,-4.0113,-4.0113,0.0,0.0,0.0,0.0,0.0,0.0,-2.4163,-2.4163,-2.4728,-2.6299,-2.6499,-2.7354,-2.9553,-2.9804,-2.9804,-2.9804,-2.875,-2.7645,-2.6575,-2.7152,-2.8592,-3.0999,-3.3242,-3.5115,-3.6656,-3.7255,-3.7853,-3.8512,-3.8512,-3.8811,-3.9373,-3.9373,-3.9373,-3.9343,-3.8781,-3.8512,-3.8452,-3.7793,-3.6939,-3.5964,-3.5337,-3.3429,-3.0966,-3.1221,-3.0526,-2.9352,-2.8801,-2.9126,-2.9897,-3.0436,0.0,0.0,0.0,0.0,0.0,0.0,0.0,0.0,0.0,0.0,0.0,0.0,0.0,0.0,0.0,0.0,0.0,0.0,0.0,0.0,0.0,0.0,0.0,0.0,-3.2916,-3.4262,-3.5459,-3.5669,-3.5699,-3.5639,-3.6178,-3.6869,-3.7619,-3.84,-3.9502,-4.1041,-4.1333,-4.1766,-4.253,-4.2557,0.0,0.0,0.0,-4.2557,-4.2557,-4.2557,-4.2557,-4.2557,-4.2455,-4.2422,-4.2388,-4.1644,-4.1271,-4.117,-4.0493,-4.018,-4.0113,-4.0113,-4.0113,-4.0113,-4.0113,-4.0113,-4.0113,-4.0113,-4.0113,-4.0113,0.0,0.0,0.0,0.0,0.0,0.0,-2.3335,-2.3335,-2.4084,-2.6231,-2.6499,-2.7354,-2.9553,-2.9804,-2.9804,-2.9804,-2.875,-2.7645,-2.6575,-2.798,-2.9705,-3.166,-3.3024,-3.5123,-3.7968,-3.8153,-3.8542,-3.923,-3.923,-3.9254,-3.9373,-3.9373,-3.9373,-3.9373,-3.9254,-3.923,-3.917,-3.8482,-3.7588,-3.6568,-3.5964,-3.4553,-3.2889,-3.3293,-3.2782,-3.1972,-3.2591,-3.2958,-3.2954,-3.2048,-3.2267,-3.2734,-3.181,-3.0642,0.0,0.0,0.0,0.0,0.0,0.0,0.0,0.0,0.0,0.0,0.0,0.0,0.0,0.0,0.0,0.0,0.0,0.0,0.0,-3.3066,-3.4681,-3.5998,-3.6267,-3.6716,-3.6866,-3.6357,-3.6836,-3.7293,-3.7432,-3.8777,-4.0064,-4.0979,-4.2265,-4.3333,-4.4113,-4.4175,-4.4175,-4.4175,-4.4175,-4.4175,-4.4175,-4.4175,-4.4175,-4.4141,-4.3504,0.0,-4.3139,-4.2422,-4.1745,-4.1204,-4.1035,-4.0629,-4.0113,-4.0113,-4.0113,-4.0113,-4.0113,-4.0113,-4.0113,-4.0113,-4.0113,-4.0113,0.0,0.0,0.0,0.0,0.0,0.0,-2.3095,-2.3095,-2.3697,-2.541,-2.5636,-2.6264,-2.7982,-2.8158,-2.8158,-2.8158,-2.7656,-2.7436,-2.7729,-2.9234,-3.1082,-3.3372,-3.4794,-3.6412,-3.8362,-3.8721,-3.908,-3.9373,-3.9373,-3.9373,-3.9373,-3.9373,-3.9373,-3.9373,-3.9373,-3.9373,-3.9409,-3.905,-3.8266,-3.7267,-3.72,-3.6136,-3.4578,-3.3931,-3.3543,-3.3359,-3.3842,-3.4312,-3.4655,-3.4009,-3.4122,-3.4382,-3.3693,-3.2617,-3.142,0.0,0.0,0.0,0.0,0.0,0.0,0.0,0.0,0.0,0.0,0.0,0.0,0.0,0.0,-3.1511,-3.1511,0.0,-3.3604,-3.3933,-3.54,-3.6596,-3.6896,-3.7494,-3.7674,-3.7015,-3.7873,-3.8708,-3.9172,-4.0671,-4.1948,-4.2759,-4.3551,-4.4181,-4.4581,-4.4615,-4.4615,-4.4615,-4.4615,-4.4615,-4.4615,-4.4615,-4.4615,-4.4615,-4.4181,-4.4012,-4.3978,-4.32,-4.2658,-4.226,-4.1542,-4.1001,-4.0595,-4.0248,-4.0113,-4.0113,-4.0113,-4.0113,-4.0113,-4.0113,-4.0113,-4.0113,0.0,0.0,0.0,0.0,0.0,0.0,0.0,-2.3095,-2.3521,-2.465,-2.48,-2.5234,-2.6373,-2.6499,-2.6399,-2.6197,-2.6575,-2.7293,-2.8454,-2.9922,-3.1847,-3.4349,-3.5985,-3.7286,-3.8115,-3.8943,-3.9373,-3.9373,-3.9373,-3.9373,-3.9373,-3.9373,-3.9373,-3.9373,-3.9373,-3.9373,-3.9373,-3.9373,-3.8797,-3.7823,-3.7994,-3.7204,-3.5741,-3.4265,-3.3719,-3.3774,-3.4177,-3.4397,-3.4646,-3.527,-3.534,-3.516,-3.5429,-3.4592,-3.3275,-3.2198,-3.169,0.0,0.0,0.0,0.0,0.0,0.0,0.0,0.0,-3.1899,-3.1959,-3.2228,-3.2288,-3.2288,-3.2288,-3.3275,-3.4262,-3.4803,-3.5998,-3.7015,-3.7524,-3.8182,-3.8392,-3.7853,-3.8869,-3.9918,-4.0608,-4.1946,-4.3169,-4.4035,-4.4236,-4.4412,-4.4615,-4.4615,-4.4615,-4.4615,-4.4615,-4.4615,-4.4615,-4.4615,-4.4615,-4.4615,-4.4615,-4.4615,-4.4581,-4.3944,-4.3572,-4.3308,-4.1982,-4.1339,-4.117,-4.0561,-4.0248,-4.0113,-4.0113,-4.0113,-4.0113,-4.0113,-4.0113,-4.0113,0.0,0.0,0.0,0.0,0.0,0.0,0.0,0.0,-2.3521,-2.465,-2.48,-2.5234,-2.6373,-2.6499,-2.6097,-2.5084,-2.6791,-2.7601,-2.6858,-2.8766,-3.07,-3.2455,-3.4038,-3.5608,-3.7113,-3.8618,-3.9373,-3.9373,-3.9373,-3.9373,-3.9373,-3.9373,-3.9373,-3.9373,-3.9373,-3.9373,-3.9373,-3.9373,-3.8797,-3.7748,-3.7197,-3.6562,-3.5813,-3.5039,-3.3896,-3.301,-3.4706,-3.355,-3.159,-3.4522,-3.4711,-3.3933,-3.513,-3.4592,-3.3455,-3.3335,-3.2407,-3.1212,-2.9953,-2.9711,-2.9804,-2.9804,-3.0582,-3.163,0.0,-3.3275,-3.3604,-3.4801,-3.507,-3.507,-3.507,-3.5669,-3.6178,-3.6237,-3.7345,-3.8212,-3.8272,-3.8871,-3.9254,-3.92,-3.9331,-3.9469,-3.9576,-4.042,-4.133,-4.2237,-4.3017,-4.3768,-4.4559,-4.4615,-4.4615,-4.4615,-4.4615,-4.4615,-4.4615,-4.4615,-4.4615,-4.4615,-4.4615,-4.4615,-4.4615,-4.4513,-4.4079,-4.3341,-4.2523,-4.1813,-4.1204,-4.1102,-4.0696,-4.0113,-4.0113,-4.0113,-4.0113,-4.0113,-4.0113,-4.0113,0.0,0.0,0.0,0.0,0.0,0.0,0.0,0.0,0.0,-2.3747,-2.3822,-2.3973,-2.4481,-2.4531,-2.452,-2.4498,-2.613,-2.7403,-2.7927,-2.964,-3.1345,-3.2952,-3.4156,-3.5332,-3.6389,-3.799,-3.8811,-3.8811,-3.923,-3.9373,-3.9373,-3.9373,-3.9373,-3.9373,-3.9373,-3.9373,-3.9343,-3.8384,-3.8062,-3.8046,-3.6831,-3.6328,-3.6227,-3.5928,-3.4824,-3.3516,-3.4115,-3.3463,0.0,-3.3862,-3.3963,-3.3724,-3.507,-3.4592,-3.3484,-3.3484,-3.2557,-3.154,-3.1809,-3.13,-3.1091,-3.2647,-3.2856,-3.3036,-3.4352,-3.4651,-3.4831,-3.54,-3.5519,-3.5639,-3.5998,-3.6297,-3.6716,-3.7464,-3.8033,-3.8542,-3.8931,-3.923,-3.9373,-3.9373,-3.9373,-3.9625,-4.013,-4.1396,-4.2363,-4.2707,-4.3562,-4.4241,-4.4587,-4.4615,-4.4615,-4.4615,-4.4615,-4.4615,-4.4615,-4.4615,-4.4615,-4.4615,-4.4615,-4.4615,-4.4615,-4.4615,-4.4147,-4.3375,-4.3064,-4.2523,-4.1847,-4.1847,-4.1644,-4.1365,-4.0899,-4.073,-4.0696,-4.0282,-4.0113,-4.0113,0.0,0.0,0.0,0.0,0.0,0.0,0.0,0.0,0.0,0.0,-2.3095,-2.3095,-2.3095,-2.3095,-2.3335,-2.3927,-2.5237,-2.666,-2.8233,-2.961,-3.1146,-3.2864,-3.4,-3.4953,-3.5697,-3.7281,-3.8123,-3.8123,-3.8631,-3.8871,-3.8871,-3.8871,-3.8871,-3.8871,-3.8871,-3.8871,-3.877,-3.731,-3.7106,-3.7612,-3.5985,-3.5501,-3.5678,-3.5502,-3.4617,-3.3479,-3.3502,-3.3092,-3.2582,-3.2855,-3.2706,-3.2647,-3.3993,-3.3724,-3.2946,-3.2946,-3.1989,-3.1241,-3.2587,-3.2228,-3.2049,-3.4382,-3.4502,-3.4322,-3.528,-3.5519,-3.5519,-3.5519,-3.5519,-3.5639,-3.6118,-3.6507,-3.7045,-3.7973,-3.8422,-3.8841,-3.9313,-3.9373,-3.9373,-3.9373,-3.9373,-3.9631,-4.0274,-4.1494,-4.2426,-4.2925,-4.3532,-4.4093,-4.4587,-4.4615,-4.4615,-4.4615,-4.4615,-4.4615,-4.4615,-4.4615,-4.4615,-4.4615,-4.4615,-4.4615,-4.4615,-4.4615,-4.4282,-4.3741,-4.3741,-4.3301,-4.2591,-4.2591,-4.2489,-4.2252,-4.1711,-4.1508,-4.1407,-4.0663,-4.0282,-4.0113,0.0,0.0,0.0,0.0,0.0,0.0,0.0,0.0,0.0,0.0,0.0,0.0,0.0,-2.3095,-2.3095,-2.3125,-2.4205,-2.5343,-2.6492,-2.7591,-2.9116,-3.1177,-3.28,-3.4084,-3.5027,-3.663,-3.7434,-3.7434,-3.7464,-3.7464,-3.7464,-3.7464,-3.7464,-3.7464,-3.7464,-3.7464,-3.7396,-3.6435,-3.605,-3.592,-3.4329,-3.3687,-3.3631,-3.2949,-3.2489,-3.2263,-3.3176,-3.2073,-3.0357,-3.1249,-3.0761,-2.9924,-3.1212,-3.16,-3.157,-3.157,-3.0672,-2.9924,-3.1212,-3.154,-3.1839,-3.3215,-3.4502,-3.5459,-3.5489,-3.5519,-3.5519,-3.5519,-3.5519,-3.5519,-3.5519,-3.6537,-3.7404,-3.7434,-3.8542,-3.9409,-3.9373,-3.9373,-3.9373,-3.9373,-3.9373,-3.9409,-3.9445,-3.9481,-4.0235,-4.1885,-4.2045,-4.2831,-4.4497,-4.4615,-4.4615,-4.4615,-4.4615,-4.4615,-4.4615,-4.4615,-4.4615,-4.4615,-4.4615,-4.4615,-4.4615,-4.4615,-4.4581,-4.4581,-4.4581,-4.4113,-4.3375,-4.3375,-4.2963,-4.2286,-4.2286,-4.2252,-4.2185,-4.1441,-4.0696,-4.0113,0.0,0.0,0.0,0.0,0.0,0.0,0.0,0.0,0.0,0.0,0.0,0.0,0.0,0.0,0.0,0.0,-2.4148,-2.4951,-2.536,-2.7092,-2.8394,-2.9116,-3.0993,-3.2162,-3.2464,-3.4654,-3.5799,-3.5799,-3.6891,-3.7404,-3.7404,-3.7404,-3.7404,-3.7404,-3.7404,-3.7404,-3.7272,-3.5275,-3.4754,-3.5152,-3.2891,-3.1964,-3.1854,-3.1625,-3.0992,-3.0168,0.0,-2.9551,-2.9802,-3.0112,-2.9953,-2.9804,-3.1092,-3.0913,-3.0253,-3.0253,-3.0552,-3.1152,-3.2467,-3.2826,-3.3155,-3.4502,-3.516,-3.5519,-3.5519,-3.5519,-3.5519,-3.5519,-3.4801,-3.4292,-3.4741,-3.4472,-3.4741,-3.6507,-3.7165,-3.7943,-3.923,-3.9373,-3.9373,-3.9373,-3.9373,-3.9373,-3.9373,-3.992,-4.0516,-4.1064,-4.2237,-4.3108,-4.371,-4.4298,-4.4615,-4.4615,-4.4615,-4.4615,-4.4615,-4.4615,-4.4615,-4.4615,-4.4615,-4.4615,-4.4615,-4.4615,-4.4615,-4.4615,-4.4615,-4.4445,-4.4181,-4.4181,-4.4045,-4.3741,-4.3234,-4.3031,-4.2963,-4.2185,-4.1779,-4.1433,0.0,0.0,0.0,0.0,0.0,0.0,0.0,0.0,0.0,0.0,0.0,0.0,0.0,0.0,0.0,0.0,0.0,-2.4349,-2.475,-2.6138,-2.7233,-2.8001,-2.931,-3.0175,-3.0527,-3.2393,-3.3359,-3.3359,-3.5156,-3.5998,-3.6028,-3.6507,-3.6716,-3.6683,-3.6348,-3.6182,-3.6016,-3.3701,-3.2853,-3.2863,-3.0901,-2.9802,-2.9396,-2.9396,-2.9002,0.0,-2.7488,-2.791,-2.885,-2.8581,-2.8661,-2.9112,-3.0402,-3.0253,-2.9711,-3.0133,-3.0552,-3.1212,-3.3006,-3.3484,-3.3814,-3.516,-3.5519,-3.5519,-3.5519,-3.5519,-3.537,-3.4891,-3.4113,-3.3484,-3.3425,-3.2916,-3.3215,-3.5429,-3.6211,-3.7075,-3.8811,-3.926,-3.9373,-3.9373,-3.9373,-3.9373,-3.9373,-3.9884,-4.0485,-4.1098,-4.2205,-4.3108,-4.371,-4.4298,-4.4615,-4.4615,-4.4615,-4.4615,-4.4615,-4.4615,-4.4615,-4.4615,-4.4615,-4.444,-4.415,-4.444,-4.4412,-4.415,-4.444,-4.4615,-4.4615,-4.4615,-4.4615,-4.4547,-4.4045,-4.3842,-4.3741,-4.2963,-4.2692,-4.2523,0.0,0.0,0.0,0.0,0.0,0.0,0.0,0.0,0.0,0.0,0.0,0.0,0.0,0.0,0.0,0.0,0.0,0.0,-2.4625,-2.475,-2.5684,-2.767,-2.7808,-2.8233,-2.9129,-2.9875,-3.0299,-3.0329,-3.2344,-3.3364,-3.3425,-3.4711,-3.5277,-3.5213,-3.4239,-3.3806,-3.3642,-3.1821,-3.0411,-2.9337,-2.8395,-2.7369,-2.6399,-2.6399,-2.6564,-2.6832,-2.6861,-2.7144,-2.742,-2.6762,-2.7052,-2.7944,-2.9292,-2.9711,-2.9953,-3.1212,-3.0761,-3.037,-3.2916,-3.3604,-3.3903,-3.519,-3.5519,-3.5519,-3.5519,-3.5459,-3.504,-3.3754,-3.3395,-3.2916,-3.163,-3.1899,-3.2796,-3.4174,-3.5522,-3.6866,-3.8212,-3.896,-3.9343,-3.9373,-3.9373,-3.9373,-3.9373,-3.9445,-4.0165,-4.1853,-4.1981,-4.2738,-4.444,-4.4587,-4.4615,-4.4615,-4.4615,-4.4615,-4.4615,-4.4615,-4.4615,-4.4615,-4.4615,-4.415,-4.3413,-4.4207,-4.415,-4.3413,-4.427,-4.4615,-4.4615,-4.4615,-4.4615,-4.4615,-4.4615,-4.4615,-4.4513,-4.3741,-4.3443,-4.3341,0.0,0.0,0.0,0.0,0.0,0.0,0.0,0.0,0.0,0.0,0.0,0.0,0.0,0.0,0.0,0.0,0.0,0.0,-2.3521,-2.4324,-2.503,-2.5568,-2.6391,-2.696,-2.7196,-2.8071,-2.8812,-2.9348,-3.0585,-3.1455,-3.2019,-3.2348,-3.2227,-3.1681,-3.1435,-3.1031,-3.0399,-2.9221,-2.8584,-2.8225,-2.7292,-2.6214,-2.5234,-2.5234,-2.4786,-2.4167,-2.476,-2.5576,-2.6428,-2.7106,-2.8088,-2.9322,-3.0612,-3.1002,-3.1271,-3.2617,-3.2766,-3.2856,-3.4532,-3.4981,-3.507,-3.5429,-3.5519,-3.5519,-3.5519,-3.4741,-3.3903,-3.3574,-3.1928,-3.0492,-3.0133,-3.0223,-3.0911,-3.2736,-3.4113,-3.5821,-3.8063,-3.8542,-3.8841,-3.9313,-3.9373,-3.9373,-3.9373,-3.999,-4.0826,-4.1949,-4.1981,-4.2489,-4.3562,-4.427,-4.4615,-4.4615,-4.4615,-4.4615,-4.4615,-4.4615,-4.4615,-4.4615,-4.4615,-4.4468,-4.4298,-4.4497,-4.4468,-4.4298,-4.4497,-4.4615,-4.4615,-4.4615,-4.4615,-4.4615,-4.4615,-4.4615,-4.4581,-4.4378,-4.4282,-4.4248,0.0,0.0,0.0,0.0,0.0,0.0,0.0,0.0,0.0,0.0,0.0,0.0,0.0,0.0,0.0,0.0,0.0,0.0,0.0,-2.3697,-2.4048,-2.4048,-2.4682,-2.5008,-2.5008,-2.5855,-2.667,-2.7428,-2.8526,-2.9433,-3.013,-3.0396,-3.0299,-2.9875,-2.9473,-2.9066,-2.862,-2.767,-2.7011,0.0,0.0,-2.5084,-2.4048,-2.4048,-2.3892,-2.3691,-2.416,-2.5226,-2.6616,-2.8279,-2.966,-3.0896,-3.202,-3.2407,-3.2617,-3.3993,-3.3963,-3.3784,-3.513,-3.5519,-3.5519,-3.5519,-3.5519,-3.534,-3.4771,-3.4053,-3.3155,-3.2018,-3.064,-2.9621,-2.9621,-2.9621,-3.0313,-3.2587,-3.3814,-3.5312,-3.7614,-3.8212,-3.8631,-3.9313,-3.9373,-3.9373,-3.9373,-4.017,-4.1031,-4.1917,-4.2363,-4.2956,-4.3798,-4.4327,-4.4615,-4.4615,-4.4615,-4.4615,-4.4615,-4.4615,-4.4615,-4.4615,-4.4615,-4.4412,-4.4035,-4.4412,-4.4384,-4.4064,-4.444,-4.4615,-4.4615,-4.4615,-4.4615,-4.4615,-4.4615,-4.4615,-4.4615,-4.4615,-4.4615,-4.4615,0.0,0.0,0.0,0.0,0.0,0.0,0.0,0.0,0.0,0.0,0.0,0.0,0.0,0.0,0.0,0.0,0.0,0.0,0.0,0.0,-2.3095,-2.3095,-2.3095,-2.3095,-2.3095,-2.3754,-2.4509,-2.5273,-2.6376,-2.7281,-2.7996,-2.8551,-2.875,-2.8626,-2.7776,-2.7358,-2.7196,-2.6391,-2.546,-2.455,-2.455,-2.3973,-2.3095,0.0,-2.3543,-2.416,-2.4318,-2.5528,-2.7412,-2.9551,-3.1,-3.2105,-3.3354,-3.3661,-3.3807,-3.5128,-3.4681,-3.4023,-3.519,-3.5519,-3.5519,-3.5519,-3.5519,-3.516,-3.3814,-3.3365,-3.2527,-3.0073,-2.9472,-2.9382,-2.9562,-2.9621,-3.046,-3.3066,-3.3963,-3.5102,-3.7105,-3.7913,-3.8542,-3.932,-3.9373,-3.9373,-3.9373,-4.0261,-4.1153,-4.1915,-4.2966,-4.3879,-4.4559,-4.4615,-4.4615,-4.4615,-4.4615,-4.4615,-4.4615,-4.4615,-4.4615,-4.4615,-4.4615,-4.4179,-4.3502,-4.427,-4.4179,-4.3502,-4.427,-4.4615,-4.4615,-4.4615,-4.4615,-4.4615,-4.4615,-4.4615,-4.4615,-4.4615,-4.4615,-4.4615,0.0,0.0,0.0,0.0,0.0,0.0,0.0,0.0,0.0,0.0,-2.3095,-2.3095,0.0,0.0,0.0,0.0,0.0,0.0,0.0,0.0,0.0,-2.3095,-2.3095,-2.3095,-2.3095,-2.3245,-2.3721,-2.4481,-2.4722,-2.5206,-2.5939,-2.6049,-2.5734,-2.5181,-2.5004,-2.4558,-2.3918,-2.3764,-2.3572,-2.3396,-2.3396,-2.3271,-2.3095,-2.3095,0.0,0.0,-2.4368,-2.5897,-2.7735,-2.9174,-3.0195,-3.1361,-3.4257,-3.4581,-3.4122,-3.5172,-3.534,-3.522,-3.5459,-3.5519,-3.5519,-3.5519,-3.5519,-3.516,-3.3814,-3.2647,-3.1421,-2.9894,-2.8723,-2.8274,-2.9412,-2.9621,-3.046,-3.3066,-3.3604,-3.4532,-3.7045,-3.7494,-3.8033,-3.9224,-3.9373,-3.9373,-3.9373,-4.072,-4.1593,-4.1731,-4.3816,-4.4912,-4.4626,-4.4615,-4.4615,-4.4615,-4.4615,-4.4615,-4.4615,-4.4615,-4.4615,-4.4615,-4.4615,-4.453,-4.4384,-4.4525,-4.453,-4.4384,-4.4525,-4.4615,-4.4615,-4.4615,-4.4615,-4.4615,-4.4615,-4.4615,-4.4615,-4.4615,-4.4615,-4.4615,0.0,0.0,0.0,0.0,0.0,0.0,0.0,0.0,-2.3095,-2.3095,-2.3095,-2.3095,-2.3095,0.0,0.0,0.0,0.0,0.0,0.0,0.0,0.0,0.0,0.0,0.0,-2.3095,-2.3095,-2.3484,-2.4279,0.0,-2.4076,-2.4823,-2.4394,-2.4018,-2.3691,-2.3691,-2.3454,-2.3095,-2.3095,-2.3095,-2.3095,-2.3095,-2.3095,-2.3095,0.0,0.0,0.0,0.0,-2.4855,-2.6297,-2.7413,-2.8086,-2.9186,-3.3403,-3.4409,-3.4066,-3.4367,-3.4951,-3.534,-3.4651,-3.4981,-3.5519,-3.5519,-3.5519,-3.4981,-3.2946,-3.1959,-3.0943,-2.8963,-2.8034,-2.8004,-2.9352,-2.9621,-3.0223,-3.2168,-3.3036,-3.4053,-3.5669,-3.6776,-3.7764,-3.8751,-3.92,-3.9373,-3.9373,-4.0776,-4.1709,-4.1709,-4.4008,-4.5291,-4.5023,-4.5101,-4.5162,-4.5162,-4.4818,-4.4615,-4.4615,-4.4615,-4.4615,-4.4615,-4.4615,-4.4615,-4.4615,-4.4615,-4.4615,-4.4615,-4.4615,-4.4615,-4.4615,-4.4615,-4.4615,-4.4615,-4.4615,-4.4615,-4.4615,-4.4615,-4.4615,-4.4615,0.0,0.0,0.0,0.0,0.0,0.0,0.0,-2.3095,-2.3095,-2.3095,-2.3095,-2.3095,-2.3095,-2.3095,-2.3095,0.0,0.0,0.0,0.0,0.0,0.0,0.0,0.0,0.0,0.0,0.0,0.0,-2.4044,-2.3395,0.0,0.0,0.0,0.0,0.0,-2.3095,-2.3095,-2.3095,-2.3095,-2.3095,0.0,0.0,-2.3095,0.0,0.0,0.0,0.0,0.0,-2.3822,-2.4936,-2.5813,-2.6304,-2.7267,-3.1747,-3.304,-3.2996,-3.3384,-3.4233,-3.4891,-3.4143,-3.4711,-3.5519,-3.5519,-3.5519,-3.4801,-3.2108,-3.1511,-3.0763,-2.8154,-2.7585,-2.8004,-2.9352,-2.9382,-2.9684,-3.1241,-3.2168,-3.3095,-3.4324,-3.5938,-3.7345,-3.8272,-3.899,-3.9373,-3.9373,-4.075,-4.1638,-4.1638,-4.4095,-4.5633,-4.5684,-4.5857,-4.5872,-4.5703,-4.5128,-4.4784,-4.4615,-4.4615,-4.4615,-4.4615,-4.4615,-4.4615,-4.4615,-4.4615,-4.4615,-4.4615,-4.4615,-4.4615,-4.4615,-4.4615,-4.4615,-4.4615,-4.4615,-4.4615,-4.4615,-4.4615,-4.4615,-4.4615,0.0,0.0,0.0,0.0,0.0,0.0,0.0,-2.3095,-2.3095,-2.3095,-2.3095,-2.3095,-2.3095,-2.3095,-2.3095,0.0,0.0,0.0,0.0,0.0,0.0,0.0,0.0,0.0,0.0,0.0,0.0,-2.3215,-2.3125,0.0,0.0,0.0,0.0,0.0,0.0,-2.3095,-2.3095,-2.3095,0.0,0.0,0.0,0.0,0.0,0.0,0.0,0.0,0.0,-2.3822,-2.4904,-2.5683,-2.6174,-2.6977,-2.96,-2.9998,-2.9975,-3.2727,-3.3574,-3.3933,-3.5011,-3.54,-3.5519,-3.5519,-3.5519,-3.4801,-3.2108,-3.1511,-3.0763,-2.8154,-2.7585,-2.8004,-2.9352,-2.8603,-2.8603,-3.1092,-3.0642,-3.1029,-3.4084,-3.516,-3.6357,-3.8182,0.0,-3.9373,-3.9373,-4.0621,-4.1445,-4.1445,-4.4329,-4.6288,-4.6641,-4.6688,-4.638,-4.5737,-4.5635,-4.5263,-4.4615,-4.4615,-4.4615,-4.4615,-4.4615,-4.4615,-4.4615,-4.4615,-4.4615,-4.4615,-4.4615,-4.4615,-4.4615,-4.4615,-4.4615,-4.4615,-4.4615,-4.4615,-4.4615,-4.4615,-4.4615,-4.4615,0.0,0.0,0.0,0.0,0.0,0.0,0.0,-2.2372,-2.2187,-2.1667,-2.1604,-2.1604,-2.1604,-2.2063,-2.258,0.0,0.0,0.0,0.0,0.0,0.0,0.0,0.0,0.0,0.0,0.0,-2.3095,-2.3095,-2.3095,0.0,0.0,0.0,0.0,0.0,0.0,-2.3095,-2.3095,-2.3095,0.0,0.0,0.0,0.0,0.0,0.0,0.0,0.0,0.0,0.0,-2.3834,-2.4116,-2.4329,-2.4778,-2.6674,-2.7081,-2.7392,-3.0276,-3.2258,-3.3455,-3.3155,-3.4261,-3.5519,-3.5519,-3.5519,-3.4801,-3.2108,-3.1511,-3.0763,-2.8154,-2.7585,-2.7764,-2.8304,-2.7974,-2.7944,-2.8966,-2.9385,-3.0313,-3.2407,-3.4322,-3.6088,-3.7614,-3.8751,-3.9373,-3.9373,-4.0606,-4.2182,-4.4138,-4.5465,-4.6776,-4.8048,-4.7699,-4.7327,-4.7027,-4.6583,-4.621,-4.5935,-4.5906,-4.5906,-4.5906,-4.5906,-4.5906,-4.5906,-4.5906,-4.5906,-4.5906,-4.5906,-4.5906,-4.5906,-4.5906,-4.5906,-4.5906,-4.5906,-4.5906,-4.5906,-4.5906,-4.5635,-4.5263,0.0,0.0,0.0,0.0,0.0,-2.2187,-2.1596,-2.1534,-2.129,-2.0687,-2.059,-2.059,-2.059,-2.1132,-2.1753,-2.231,0.0,0.0,0.0,0.0,0.0,0.0,0.0,0.0,0.0,0.0,-2.3095,-2.3095,-2.3095,-2.3095,0.0,0.0,-2.3095,-2.3095,0.0,0.0,0.0,0.0,0.0,0.0,0.0,0.0,0.0,0.0,0.0,0.0,0.0,0.0,0.0,0.0,0.0,-2.3424,0.0,0.0,0.0,0.0,-3.0881,-3.2317,-3.2138,-3.3484,-3.5011,-3.54,-3.522,-3.4322,-3.2019,-3.1212,-3.0313,-2.8064,-2.7585,-2.7585,-2.7585,-2.7585,-2.7585,-2.7585,-2.8393,-2.9445,-3.0733,-3.3245,-3.525,-3.6148,-3.7764,-3.8841,-3.8841,-4.0367,-4.2701,-4.5971,-4.6208,-4.7036,-4.8892,-4.8511,-4.8139,-4.7906,-4.7394,-4.7022,-4.6786,-4.6786,-4.6786,-4.6786,-4.6786,-4.6786,-4.6786,-4.6786,-4.6786,-4.6786,-4.6786,-4.6786,-4.6786,-4.6786,-4.6786,-4.6786,-4.6786,-4.6786,-4.6786,-4.6786,-4.6481,-4.6041,0.0,0.0,0.0,0.0,0.0,0.0,0.0,-2.0623,-2.0623,-2.059,-2.059,-2.059,-2.059,-2.0623,-2.0623,-2.0623,0.0,0.0,0.0,0.0,0.0,0.0,0.0,0.0,0.0,0.0,-2.3095,-2.3095,-2.3095,-2.3095,-2.3095,-2.3095,-2.3095,-2.3095,0.0,0.0,0.0,0.0,0.0,0.0,0.0,0.0,-2.3095,0.0,0.0,0.0,0.0,0.0,0.0,0.0,0.0,0.0,0.0,-2.5987,-2.5938,0.0,-2.9621,-3.022,-3.2766,-3.3484,-3.3844,-3.516,-3.4502,-3.3155,-3.1809,-3.0522,-2.9232,-2.7884,-2.7585,-2.7585,-2.7585,-2.7585,-2.7585,-2.7585,-2.7615,-2.8094,-2.9442,-3.1869,-3.3514,-3.3544,-3.5848,-3.7434,-3.7434,-3.9828,-4.2701,-4.5971,-4.6208,-4.7036,-4.8892,-4.8984,-4.8646,-4.7906,-4.7872,-4.7564,-4.6786,-4.6786,-4.6786,-4.6786,-4.6786,-4.6786,-4.6786,-4.6786,-4.6786,-4.6786,-4.6786,-4.6786,-4.6786,-4.6786,-4.6786,-4.6786,-4.6786,-4.6786,-4.6786,-4.6786,-4.6786,-4.6786,0.0,0.0,0.0,0.0,0.0,0.0,0.0,-1.9716,-1.9486,-1.8877,-1.8811,-1.8811,-1.8811,-1.9354,-1.9716,-1.9716,0.0,0.0,0.0,0.0,0.0,0.0,0.0,0.0,0.0,0.0,-2.3095,-2.3095,-2.3095,-2.3095,-2.3095,-2.3095,-2.3095,-2.3095,-2.3095,-2.3095,0.0,0.0,0.0,0.0,0.0,-2.3095,-2.3095,0.0,0.0,0.0,0.0,0.0,0.0,0.0,0.0,0.0,0.0,0.0,0.0,-2.7705,-2.8873,-2.9801,-3.061,-3.148,-3.2228,-3.2647,-3.2437,-3.178,-3.0492,-2.9894,-2.9232,-2.7884,-2.7585,-2.7585,-2.7585,-2.7585,-2.7585,-2.7585,-2.7585,-2.8064,-2.9412,-3.1839,-3.3844,-3.4771,-3.7195,-3.914,-4.0038,-4.148,-4.3438,-4.6007,-4.6765,-4.7704,-4.8923,-4.9018,-4.8883,-4.868,-4.8646,-4.8545,-4.8308,-4.8308,-4.8308,-4.8308,-4.8308,-4.8308,-4.8308,-4.8308,-4.8308,-4.8308,-4.8308,-4.8308,-4.8308,-4.8308,-4.8308,-4.8308,-4.8308,-4.8308,-4.8308,-4.8308,-4.797,-4.7564,0.0,0.0,0.0,0.0,0.0,0.0,0.0,-1.8811,-1.863,-1.8076,-1.8008,-1.8008,-1.8008,-1.8496,-1.8811,-1.8811,0.0,0.0,0.0,0.0,0.0,0.0,0.0,0.0,0.0,-2.2641,-2.2793,-2.3095,-2.3095,-2.3095,-2.3095,-2.3095,-2.3095,-2.3095,-2.3095,-2.3095,0.0,0.0,0.0,0.0,-2.3095,-2.3095,-2.3095,0.0,0.0,0.0,0.0,0.0,0.0,0.0,0.0,0.0,0.0,0.0,0.0,0.0,-2.7977,-2.8963,-2.9472,-3.0193,-3.0883,-3.1391,-3.1122,-3.0582,-2.9801,-2.9202,-2.8603,-2.7764,-2.7585,-2.7585,-2.7585,-2.7585,-2.7585,-2.7585,-2.7585,-2.7884,-2.8723,-3.1091,-3.3425,-3.528,-3.7375,-3.917,-4.0516,-4.1954,-4.376,-4.6042,-4.707,-4.7998,-4.8923,-4.9018,-4.9018,-4.9018,-4.9018,-4.9018,-4.9018,-4.9018,-4.9018,-4.9018,-4.9018,-4.9018,-4.9018,-4.9018,-4.9018,-4.9018,-4.9018,-4.9018,0.0,-4.9018,-4.9018,-4.9018,-4.9018,-4.9018,-4.9018,-4.9018,-4.8714,-4.8342,0.0,0.0,0.0,0.0,0.0,0.0,0.0,0.0,0.0,-1.8008,-1.8008,-1.8008,-1.8008,-1.8008,-1.8008,0.0,0.0,0.0,0.0,0.0,0.0,0.0,0.0,0.0,-2.1784,-2.1877,-2.2249,-2.3005,-2.3065,-2.3095,-2.3095,-2.3095,-2.3095,-2.3095,-2.3095,-2.3095,-2.3095,-2.3095,-2.3095,-2.3095,-2.3095,-2.3095,0.0,0.0,0.0,0.0,0.0,0.0,0.0,0.0,0.0,0.0,0.0,0.0,0.0,0.0,0.0,0.0,0.0,-2.9418,-2.9714,-3.0913,-3.0342,-2.9472,-2.9472,-2.8483,0.0,-2.7585,-2.7585,-2.7585,-2.7585,-2.7585,-2.7585,-2.7585,-2.7585,-2.7585,-2.7585,-2.9924,-3.2617,-3.534,-3.6776,-3.8128,-3.9481,-4.1633,-4.3835,-4.6147,-4.7172,-4.8096,-4.8923,-4.9018,-4.9018,-4.9018,-4.9018,-4.9018,-4.9018,-4.9018,-4.9018,-4.9018,-4.9018,-4.9018,-4.9018,-4.9018,-4.9018,-4.9018,-4.9018,-4.9018,-4.9018,-4.9018,-4.9018,-4.9018,-4.9018,-4.9018,-4.9018,-4.9018,-4.9018,-4.9018,0.0,0.0,0.0,0.0,0.0,0.0,0.0,0.0,0.0,0.0,-1.8008,-1.8008,-1.8008,-1.8008,-1.7871,0.0,0.0,0.0,0.0,0.0,0.0,0.0,0.0,0.0,-2.091,-2.1565,-2.2002,-2.2187,-2.2793,-2.3095,-2.3095,-2.3095,-2.3095,-2.3095,-2.3095,-2.3095,-2.3095,-2.3095,-2.3095,-2.3095,-2.3095,-2.3095,0.0,0.0,0.0,0.0,-2.3095,-2.3095,0.0,0.0,0.0,0.0,0.0,0.0,0.0,0.0,-2.6602,-2.7573,-2.7299,0.0,-2.8154,-2.8453,-2.8304,-2.8064,0.0,-2.7824,-2.7585,-2.7585,-2.7585,-2.7585,-2.7585,-2.7585,-2.7585,-2.7585,-2.7585,-2.7585,-2.7585,-3.0731,-3.4023,-3.6656,-3.8123,-3.9727,-4.1792,-4.3151,-4.4805,-4.7107,-4.8161,-4.8767,-4.9018,-4.9018,-4.9018,-4.9018,-4.9018,-4.9018,-4.9018,-4.9018,-4.9018,-4.9018,-4.9018,-4.9018,-4.9018,-4.9018,-4.9018,-4.9018,-4.9018,-4.9018,-4.9018,-4.9018,-4.9018,-4.9018,-4.9018,-4.9018,-4.9018,-4.9018,-4.9018,-4.9018,0.0,0.0,0.0,0.0,0.0,0.0,0.0,0.0,0.0,0.0,0.0,0.0,0.0,0.0,0.0,0.0,0.0,0.0,0.0,0.0,0.0,0.0,0.0,-1.9404,-2.0009,-2.0846,-2.1502,-2.1908,-2.2702,-2.3095,-2.3095,-2.3095,-2.3095,-2.3095,-2.3095,-2.3095,-2.3095,-2.3095,-2.3095,-2.3095,-2.3095,0.0,0.0,0.0,0.0,0.0,-2.3095,-2.3095,0.0,-2.3095,-2.3095,-2.3185,0.0,0.0,0.0,0.0,-2.5932,-2.7023,-2.6602,-2.7049,-2.7585,-2.7585,-2.7585,-2.7585,-2.7585,0.0,-2.7585,0.0,0.0,-2.7585,-2.7585,-2.7585,-2.7585,-2.7585,-2.8124,-2.8933,-3.0161,-3.2916,-3.5489,-3.7195,-3.8871,-4.0619,-4.2607,-4.3936,-4.5497,-4.744,-4.8482,-4.9018,-4.9018,-4.9018,-4.9018,-4.9018,-4.9018,-4.9018,-4.9018,-4.9018,-4.9018,-4.9018,-4.9018,-4.9018,-4.9018,-4.9018,-4.9018,-4.9018,-4.9018,-4.9018,-4.9018,-4.9018,-4.9018,-4.9018,-4.9018,-4.9018,-4.9018,-4.9018,-4.9018,-4.9018,0.0,0.0,0.0,0.0,0.0,0.0,0.0,0.0,0.0,0.0,0.0,0.0,0.0,0.0,0.0,0.0,0.0,0.0,0.0,0.0,0.0,0.0,0.0,-1.7968,-1.915,-2.0127,-2.1037,-2.1908,-2.2702,-2.3095,-2.3095,-2.3095,-2.3095,-2.3095,-2.3095,-2.3095,-2.3095,-2.3095,-2.3095,-2.3095,-2.3095,0.0,0.0,0.0,0.0,0.0,0.0,0.0,0.0,-2.3095,-2.3095,-2.3095,-2.3095,0.0,0.0,0.0,0.0,0.0,-2.6363,-2.6941,-2.7585,-2.7585,-2.7585,-2.7585,-2.7585,0.0,0.0,0.0,0.0,0.0,0.0,-2.7914,-2.7974,-2.8154,-2.9205,-3.0909,-3.3305,-3.528,-3.6716,-3.7345,-3.9313,-4.1267,-4.2887,-4.4493,-4.6087,-4.7671,-4.8545,-4.8951,-4.8849,-4.8951,-4.8951,-4.8849,-4.8951,-4.9018,-4.9018,-4.9018,-4.9018,-4.9018,-4.9018,-4.9018,-4.9018,-4.9018,-4.9018,-4.9018,-4.9018,-4.9018,-4.9018,-4.9018,-4.9018,-4.9018,-4.9018,-4.9018,-4.9018,-4.9018,-4.9018,-4.9018,0.0,0.0,0.0,0.0,0.0,0.0,0.0,0.0,0.0,0.0,0.0,0.0,0.0,0.0,0.0,0.0,0.0,0.0,0.0,0.0,0.0,-1.6765,-1.7187,-1.7808,-1.8668,-1.9952,-2.1037,-2.1908,-2.2702,-2.3095,-2.3095,-2.3095,-2.3095,-2.3095,-2.3095,-2.3095,-2.3095,-2.3095,-2.3095,-2.3095,-2.3095,0.0,0.0,0.0,0.0,0.0,0.0,0.0,0.0,-2.3095,-2.3095,-2.3095,-2.3095,0.0,0.0,0.0,0.0,0.0,-2.5742,-2.6575,-2.7585,-2.7585,-2.7585,-2.7585,-2.7585,-2.7585,0.0,0.0,0.0,0.0,0.0,-2.9292,-2.9651,-3.0733,-3.154,-3.2587,-3.4144,-3.5612,-3.6716,-3.7345,-3.9886,-4.2237,-4.3827,-4.5439,-4.7041,-4.8668,-4.8923,-4.8748,-4.8075,-4.868,-4.8714,-4.8075,-4.868,-4.9018,-4.9018,-4.9018,-4.9018,-4.9018,-4.9018,-4.9018,-4.9018,-4.9018,-4.9018,-4.9018,-4.9018,-4.9018,-4.9018,-4.9018,-4.9018,-4.9018,-4.9018,-4.9018,-4.9018,-4.9018,-4.9018,-4.9018,0.0,0.0,0.0,0.0,0.0,0.0,0.0,0.0,0.0,0.0,0.0,0.0,0.0,0.0,0.0,0.0,0.0,0.0,0.0,0.0,0.0,-1.6348,-1.744,-1.8356,-1.8973,-2.051,-2.1502,-2.1908,-2.2702,-2.3095,-2.3095,-2.3095,-2.3095,-2.3095,-2.3095,-2.3095,-2.3095,-2.3095,-2.3095,-2.3095,0.0,0.0,0.0,0.0,0.0,0.0,0.0,0.0,0.0,0.0,-2.3095,-2.3095,-2.3095,0.0,0.0,0.0,0.0,0.0,-2.5495,-2.6496,-2.7764,-2.8513,-2.8154,-2.7585,-2.7585,-2.7585,0.0,0.0,0.0,0.0,0.0,-2.9621,-3.0372,-3.2736,-3.3993,-3.513,-3.6417,-3.7434,-3.8302,-3.896,-4.0969,-4.2977,-4.4573,-4.6191,-4.7666,-4.8923,-4.8646,-4.8244,-4.7906,-4.7834,-4.7665,-4.7327,-4.7631,-4.78,-4.78,-4.8206,-4.8612,-4.9018,-4.9018,-4.9018,-4.9018,-4.9018,-4.9018,-4.9018,-4.9018,-4.9018,-4.9018,-4.9018,-4.9018,-4.9018,-4.9018,-4.9018,-4.9018,-4.9018,-4.9018,-4.9018,0.0,0.0,0.0,0.0,0.0,0.0,0.0,0.0,0.0,0.0,0.0,0.0,0.0,0.0,0.0,0.0,0.0,0.0,0.0,0.0,-1.63,-1.6398,-1.802,-1.9084,-1.9414,-2.1055,-2.2002,-2.2187,-2.2793,-2.3095,-2.3095,-2.3095,-2.3095,-2.3095,-2.3095,-2.3095,-2.3095,-2.3095,-2.3095,-2.3095,0.0,0.0,0.0,0.0,0.0,0.0,0.0,0.0,0.0,0.0,0.0,0.0,0.0,0.0,0.0,-2.3095,-2.4192,-2.5412,-2.5412,-2.6496,-2.7854,-2.8873,-2.8603,-2.8154,-2.8453,-2.8487,-2.8487,-2.8487,0.0,0.0,-3.028,-3.0909,-3.2047,-3.4563,-3.6091,-3.7315,-3.8482,-3.923,-3.9828,-4.0337,-4.2166,-4.385,-4.5085,-4.6847,-4.8225,-4.8956,-4.8342,-4.7804,-4.7665,-4.7124,-4.6718,-4.6549,-4.6718,-4.6786,-4.6786,-4.7361,-4.8037,-4.8748,-4.8917,-4.9018,-4.9018,-4.9018,-4.9018,-4.9018,-4.9018,-4.9018,-4.9018,-4.9018,-4.9018,-4.9018,-4.9018,-4.9018,-4.9018,-4.9018,-4.9018,-4.9018,0.0,0.0,0.0,0.0,0.0,0.0,0.0,0.0,0.0,0.0,0.0,0.0,0.0,0.0,0.0,0.0,0.0,0.0,0.0,0.0,-1.6855,-1.7298,-1.8923,-1.982,-1.9865,-2.1214,-2.2249,-2.3005,-2.3065,-2.3095,-2.3095,-2.3095,-2.3095,-2.3095,-2.3095,-2.3095,-2.3095,-2.3095,-2.3095,-2.3095,-2.3095,0.0,0.0,0.0,0.0,0.0,0.0,0.0,0.0,0.0,0.0,0.0,0.0,0.0,-2.3095,-2.3095,-2.4192,-2.5412,-2.5412,-2.6496,-2.7615,-2.7705,-2.8603,-2.9771,-3.0943,-3.1212,-3.1212,-3.1212,-3.1212,-3.163,-3.2976,-3.4741,-3.6058,-3.6297,-3.7404,-3.8512,-3.926,-3.9918,-4.0337,-4.0397,-4.3145,-4.5085,-4.5186,-4.7438,-4.8923,-4.8984,-4.8342,-4.7597,-4.6921,-4.6819,-4.6481,-4.5805,-4.6447,-4.6786,-4.6786,-4.6853,-4.7259,-4.7973,-4.868,-4.9018,-4.9018,-4.9018,-4.9018,-4.9018,-4.9018,-4.9018,-4.9018,-4.9018,-4.9018,-4.9018,-4.9018,-4.9018,-4.9018,-4.9018,-4.9018,-4.9018,0.0,0.0,0.0,0.0,0.0,0.0,0.0,0.0,0.0,0.0,0.0,0.0,0.0,0.0,0.0,0.0,0.0,0.0,0.0,-1.7362,-1.7972,-1.8136,-2.008,-2.1136,-2.1136,-2.2121,-2.2793,-2.3095,-2.3095,-2.3095,-2.3095,-2.3095,-2.3095,-2.3095,-2.3095,-2.3095,-2.3095,-2.3095,-2.3095,-2.3095,-2.3095,-2.3095,0.0,0.0,0.0,0.0,0.0,0.0,0.0,0.0,-2.3095,-2.3095,-2.3095,-2.3095,-2.3095,-2.3095,-2.4192,-2.5412,-2.5412,-2.7099,-2.9052,-2.9834,-3.0432,0.0,0.0,-3.0913,-3.1511,-3.1511,-3.1839,-3.2647,-3.4412,-3.6357,-3.7674,-3.7674,-3.8452,-3.926,-3.9948,-4.0247,-4.0696,-4.1534,-4.3742,-4.5378,-4.576,-4.7735,-4.9018,-4.9018,-4.7902,-4.709,-4.6819,-4.5906,-4.5326,-4.5026,-4.5292,-4.5427,-4.5427,-4.5872,-4.6278,-4.6549,-4.7736,-4.8578,-4.9018,-4.9018,-4.9018,-4.9018,-4.9018,-4.9018,-4.9018,-4.9018,-4.9018,-4.9018,-4.9018,-4.9018,-4.9018,-4.9018,-4.9018,-4.9018,0.0,0.0,0.0,0.0,0.0,0.0,0.0,0.0,0.0,0.0,0.0,0.0,0.0,0.0,0.0,0.0,0.0,0.0,-1.7296,-1.8511,-1.9222,-1.9222,-2.0948,-2.1908,-2.1908,-2.2702,-2.3095,-2.3095,-2.3095,-2.3095,-2.3095,-2.3095,-2.3095,-2.3095,-2.3095,-2.3095,-2.3095,-2.3095,-2.3095,-2.3095,-2.3095,-2.3095,0.0,0.0,0.0,0.0,0.0,0.0,0.0,0.0,-2.3095,-2.3095,-2.3095,-2.3095,-2.3095,-2.3095,-2.4018,-2.5049,-2.5049,-2.7114,-2.9442,-3.0303,0.0,0.0,-3.1031,-3.118,-3.169,-3.2318,-3.3305,-3.4412,-3.5609,-3.7225,-3.8332,-3.8123,-3.8841,-3.9649,-4.0307,-4.0576,-4.1115,-4.2261,-4.4242,-4.5696,-4.6176,-4.7901,-4.9018,-4.9018,-4.7631,-4.6786,-4.6786,-4.5427,-4.4615,-4.4615,-4.4615,-4.4615,-4.4615,-4.5094,-4.5466,-4.5703,-4.6955,-4.7936,-4.868,-4.8883,-4.9018,-4.9018,-4.9018,-4.9018,-4.9018,-4.9018,-4.9018,-4.9018,-4.9018,-4.9018,-4.9018,-4.9018,-4.9018,-4.9018,0.0,0.0,0.0,0.0,0.0,0.0,0.0,0.0,0.0,0.0,0.0,0.0,0.0,0.0,0.0,0.0,0.0,0.0,-1.8617,-1.9876,-2.0623,-2.0623,-2.1471,-2.1908,-2.1908,-2.2702,-2.3095,-2.3095,-2.3095,-2.3095,-2.3095,-2.3095,-2.3095,-2.3095,-2.3095,-2.3095,-2.3095,-2.3095,-2.3095,-2.3095,-2.3095,-2.3095,-2.3095,0.0,0.0,0.0,0.0,0.0,0.0,0.0,-2.3095,-2.3095,-2.3095,-2.3095,-2.3095,-2.3095,-2.3691,-2.4305,-2.4334,-2.6325,-2.8424,-2.8424,0.0,0.0,-3.3514,-3.2467,-3.2079,-3.4114,-3.6058,-3.7225,-3.6596,-3.7524,-3.8182,-3.7524,-3.8542,-3.9649,-4.0307,-4.0965,-4.1662,-4.2321,-4.4642,-4.6208,-4.6208,-4.7901,-4.9018,-4.9018,-4.7631,-4.6786,-4.6786,-4.5427,-4.4615,-4.4615,-4.4615,-4.4615,-4.4615,-4.4615,-4.4987,-4.5703,-4.6447,-4.7192,-4.7906,-4.868,-4.9018,-4.9018,-4.9018,-4.9018,-4.9018,-4.9018,-4.8984,-4.9018,-4.8984,-4.8984,-4.9018,-4.8984,-4.9018,-4.9018,0.0,0.0,0.0,0.0,0.0,0.0,0.0,0.0,0.0,0.0,0.0,0.0,0.0,0.0,0.0,0.0,0.0,0.0,-2.0016,-2.0946,-2.1534,-2.1534,-2.231,-2.2732,-2.2732,-2.2975,-2.3095,-2.3095,-2.3095,-2.3095,-2.3095,-2.3095,-2.3095,-2.3095,-2.3095,-2.3095,-2.3095,-2.3095,-2.3095,-2.3095,-2.3095,-2.3095,-2.3095,0.0,0.0,0.0,0.0,0.0,0.0,0.0,0.0,0.0,-2.3095,-2.3095,-2.3095,-2.3095,-2.4201,-2.5588,-2.6217,-2.8146,-3.0267,-3.1629,-3.2247,-3.2796,0.0,-3.3873,0.0,0.0,-3.6417,-3.7913,-3.7255,-3.8212,-3.905,-3.8841,-3.9559,-4.0337,-4.0995,-4.1692,-4.2312,-4.297,-4.4923,-4.6208,-4.6208,-4.7901,-4.9018,-4.9018,-4.7631,-4.6786,-4.6786,-4.5427,-4.4615,-4.4615,-4.4615,-4.4615,-4.4615,-4.4615,-4.4716,-4.4925,-4.6177,-4.7192,-4.7906,-4.868,-4.9018,-4.9018,-4.9018,-4.9018,-4.9018,-4.9018,-4.9286,-4.9634,-4.9165,-4.9286,-4.9634,-4.9199,-4.9018,-4.9018,0.0,0.0,0.0,0.0,0.0,0.0,0.0,0.0,0.0,0.0,0.0,0.0,0.0,0.0,0.0,0.0,0.0,0.0,0.0,-2.1908,-2.2372,-2.2372,-2.2854,-2.3095,-2.3095,-2.3095,-2.3095,-2.3095,-2.3095,-2.3095,-2.3095,-2.3095,-2.3095,-2.3095,-2.3095,-2.3095,-2.3095,-2.3095,-2.3095,-2.3095,-2.3095,-2.3095,-2.3095,0.0,0.0,0.0,0.0,0.0,0.0,0.0,0.0,0.0,-2.3095,-2.3095,-2.3095,-2.3095,-2.4213,-2.5589,-2.6153,-2.847,-3.1032,-3.2205,-3.2963,-3.3715,-3.4675,-3.507,-3.528,-3.528,-3.7165,-3.8661,-3.8272,-3.8871,-3.9373,-3.9373,-3.9978,-4.0636,-4.1332,-4.1991,-4.265,-4.323,-4.5011,-4.6208,-4.6208,-4.7901,-4.9018,-4.9018,-4.7631,-4.6786,-4.6786,-4.5427,-4.4615,-4.4615,-4.4615,-4.4615,-4.4615,-4.4615,-4.4615,-4.4615,-4.6104,-4.7022,-4.7496,-4.8545,-4.9018,-4.9018,-4.9018,-4.9018,-4.9015,-4.9286,-4.9634,-4.9976,-4.9896,-5.0061,-5.039,-4.9976,-4.9669,-4.9406,0.0,0.0,0.0,0.0,0.0,0.0,0.0,0.0,0.0,0.0,0.0,0.0,0.0,0.0,0.0,0.0,0.0,0.0,0.0,0.0,-2.3095,-2.3095,-2.3095,-2.3095,-2.3095,-2.3095,-2.3095,-2.3095,-2.3095,-2.3095,-2.3095,-2.3095,-2.3095,-2.3095,-2.3095,-2.3095,-2.3095,-2.3095,-2.3095,-2.3095,-2.3095,-2.3095,-2.3095,-2.3095,0.0,0.0,0.0,0.0,0.0,0.0,0.0,0.0,-2.3095,-2.3095,-2.3095,-2.3185,-2.396,-2.4865,-2.5127,-2.796,-3.0926,-3.1205,-3.3492,-3.5669,-3.5669,-3.6237,-3.6686,-3.6447,-3.8003,-3.9343,-3.926,-3.9313,-3.9403,-3.9499,-4.0068,-4.0726,-4.1422,-4.2081,-4.2671,-4.323,-4.5011,-4.6208,-4.6208,-4.7901,-4.8984,-4.8917,-4.7597,-4.6752,-4.6684,-4.5359,-4.4615,-4.4615,-4.4615,-4.4615,-4.4615,-4.4615,-4.4615,-4.4615,-4.6104,-4.6786,-4.6853,-4.8342,-4.9018,-4.9018,-4.9018,-4.9015,-4.9138,-4.9751,-5.009,-5.0251,-5.0876,-5.1138,-5.1164,-5.1034,-5.0581,-5.0004,0.0,0.0,0.0,0.0,0.0,0.0,0.0,0.0,0.0,0.0,0.0,0.0,0.0,0.0,0.0,0.0,0.0,0.0,0.0,0.0,-2.3095,-2.3095,-2.3095,-2.3095,-2.3095,-2.3095,-2.3095,-2.3095,-2.3095,-2.3095,-2.3095,-2.3095,-2.3095,-2.3095,-2.3095,-2.3095,-2.3095,-2.3095,-2.3095,-2.3095,-2.3095,-2.3095,-2.3095,-2.3095,-2.3095,0.0,0.0,0.0,0.0,0.0,0.0,0.0,-2.3095,-2.3095,-2.3215,-2.3868,-2.4392,-2.5274,-2.7488,-2.8939,-3.0369,-3.2778,-3.52,-3.7015,-3.7015,-3.7943,-3.8212,-3.6148,-3.7704,-3.9074,-3.8033,-3.8721,-3.9553,-4.0098,-4.0756,-4.1414,-4.2081,-4.2731,-4.314,-4.326,-4.5011,-4.6208,-4.6208,-4.7901,-4.8781,-4.8206,-4.7293,-4.6549,-4.5974,-4.506,-4.4615,-4.4615,-4.4615,-4.4615,-4.4615,-4.4615,-4.4615,-4.4615,-4.6104,-4.6786,-4.6853,-4.8342,-4.9018,-4.9018,-4.9018,-4.9316,-4.9809,-4.9947,-5.0662,-5.1618,-5.1241,-5.1419,-5.1741,-5.0662,-5.0146,-4.9919,0.0,0.0,0.0,0.0,0.0,0.0,0.0,0.0,0.0,0.0,0.0,0.0,0.0,0.0,0.0,0.0,0.0,0.0,0.0,0.0,-2.3095,-2.3095,-2.3095,-2.3095,-2.3095,-2.3095,-2.3095,-2.3095,-2.3095,-2.3095,-2.3095,-2.3095,-2.3095,-2.3095,-2.3095,-2.3095,-2.3095,-2.3095,-2.3095,-2.3095,-2.3095,-2.3095,-2.3095,-2.3095,-2.3095,-2.3095,-2.3095,0.0,0.0,0.0,0.0,0.0,0.0,0.0,-2.378,-2.4163,-2.5037,-2.6294,-2.842,-2.9854,-3.1405,-3.4055,-3.6081,-3.7404,-3.7404,-3.8452,-3.8985,-3.7674,-3.8446,-3.92,-3.8512,-3.896,-3.9493,-3.9858,-4.0756,-4.1542,-4.1871,-4.2731,-4.329,-4.329,-4.4693,-4.5693,-4.5693,-4.704,-4.78,-4.7394,-4.6684,-4.6109,-4.5737,-4.4993,-4.4615,-4.4615,-4.4615,-4.4615,-4.4615,-4.4615,-4.4784,-4.5128,-4.6244,-4.7158,-4.7868,-4.8646,-4.9018,-4.9049,-4.9346,-4.9664,-5.0061,-5.0743,-5.1444,-5.2112,-5.2125,-5.2312,-5.2531,-5.1801,-5.1112,-5.0472,0.0,0.0,0.0,0.0,0.0,0.0,0.0,0.0,0.0,0.0,0.0,0.0,0.0,0.0,0.0,0.0,0.0,0.0,0.0,0.0,0.0,-2.3095,-2.3095,-2.3095,-2.3095,-2.3095,-2.3095,-2.3095,-2.3095,-2.3095,-2.3095,-2.3095,-2.3095,-2.3095,-2.3095,-2.3095,-2.3095,-2.3095,-2.3185,-2.3305,-2.3305,-2.3395,-2.3514,-2.3514,-2.3514,-2.3514,-2.3514,-2.3514,-2.3514,-2.3514,0.0,0.0,0.0,0.0,-2.4509,-2.4652,-2.5672,-2.7035,-2.8463,-3.0425,-3.2651,-3.4934,-3.6387,-3.7285,-3.7375,-3.8362,-3.926,-3.9409,-3.9373,-3.9373,-3.9373,-3.9373,-3.9469,-3.9559,-4.0487,-4.1302,-4.1354,-4.2312,-4.2961,-4.2961,-4.4133,-4.4955,-4.4955,-4.6079,-4.6752,-4.6616,-4.6041,-4.5635,-4.5534,-4.4925,-4.4615,-4.4615,-4.4615,-4.4615,-4.4615,-4.4615,-4.4959,-4.5703,-4.6583,-4.7789,-4.9199,-4.9199,-4.9199,-4.9195,-4.978,-5.0146,-5.0445,-5.1618,-5.2159,-5.2358,-5.2959,-5.3203,-5.3146,-5.2915,-5.2172,-5.1215,0.0,0.0,0.0,0.0,0.0,0.0,0.0,0.0,0.0,0.0,0.0,0.0,0.0,0.0,0.0,0.0,0.0,0.0,0.0,0.0,0.0,-2.3095,-2.3095,-2.3095,-2.3095,-2.3095,-2.3095,-2.3095,-2.3095,-2.3095,-2.3095,-2.3095,-2.3095,-2.3095,-2.3095,-2.3095,-2.3095,-2.3095,-2.3514,-2.416,-2.416,-2.4538,-2.5078,-2.5078,-2.5078,-2.5078,-2.5078,-2.5078,-2.5078,-2.5078,-2.5078,0.0,0.0,0.0,-2.5384,-2.6014,-2.5936,-2.6022,-2.7768,-3.0113,-3.2651,-3.4934,-3.6058,-3.6746,-3.7285,-3.8003,-3.8691,-3.929,-3.9373,-3.9373,-3.9373,-3.9373,-3.9619,-4.0187,-4.0427,-4.0726,-4.1332,-4.1534,-4.1654,-4.1654,-4.3172,-4.4219,-4.4219,-4.5781,-4.6549,-4.5906,-4.5771,-4.5432,-4.4784,-4.4649,-4.4615,-4.4615,-4.4615,-4.4615,-4.4615,-4.4615,-4.4959,-4.5737,-4.7124,-4.8498,-4.9861,-4.9861,-4.9861,-4.9861,-4.9947,-5.0716,-5.1814,-5.2042,-5.2486,-5.3082,-5.3146,-5.3203,-5.306,-5.1825,-5.1618,-5.1716,0.0,0.0,0.0,0.0,0.0,0.0,0.0,0.0,0.0,0.0,0.0,0.0,0.0,0.0,0.0,0.0,0.0,0.0,0.0,0.0,0.0,-2.3095,-2.3095,-2.3095,-2.3095,-2.3095,-2.3095,-2.3095,-2.3095,-2.3095,-2.3095,-2.3573,-2.3543,-2.3125,-2.3573,-2.378,-2.3809,-2.4221,-2.4568,-2.4936,-2.4936,-2.5133,-2.5412,-2.5412,-2.5412,-2.5412,-2.5412,-2.5412,-2.5412,-2.5412,-2.5412,-2.5412,-2.5412,0.0,0.0,0.0,-2.6549,-2.6968,-2.8523,-3.0867,-3.3138,0.0,-3.5429,-3.6656,-3.7255,-3.7913,-3.8571,-3.9254,-3.9373,-3.9373,-3.9373,-3.9373,-3.9529,-3.9798,-4.0157,-4.0487,-4.0786,-4.1145,-4.1422,-4.1422,-4.2642,-4.3484,-4.3484,-4.4754,-4.5432,-4.5094,-4.506,-4.4925,-4.4615,-4.4615,-4.4615,-4.4615,-4.4615,-4.4615,-4.4615,-4.4615,-4.519,-4.6346,-4.8177,-4.9412,-5.0004,-5.0417,-5.0608,-5.0635,-5.1034,-5.1544,-5.2136,-5.2554,-5.2915,-5.3203,-5.3203,-5.3203,-5.3124,-5.2486,-5.2219,-5.1946,0.0,0.0,0.0,0.0,0.0,0.0,0.0,0.0,0.0,0.0,0.0,0.0,0.0,0.0,0.0,0.0,0.0,0.0,0.0,0.0,0.0,-2.3095,-2.3095,-2.3095,-2.3095,-2.3095,-2.3095,-2.3095,-2.3305,-2.3395,-2.3424,-2.4192,-2.425,-2.3695,-2.4308,-2.4481,-2.4337,-2.5105,-2.5522,-2.5687,-2.5687,-2.5797,-2.5959,-2.5959,-2.5959,-2.5959,-2.5959,-2.5959,-2.5959,-2.5959,-2.5959,-2.5959,-2.5959,-2.6336,0.0,0.0,0.0,-2.7884,-2.9232,0.0,-3.2677,-3.3335,-3.4622,-3.5968,-3.6956,-3.7674,-3.8332,-3.902,-3.929,-3.9373,-3.9373,-3.9373,-3.9373,-3.9373,-3.9828,-4.0157,-4.0157,-4.0576,-4.0876,-4.0876,-4.1984,-4.2749,-4.2749,-4.386,-4.4615,-4.4615,-4.4615,-4.4615,-4.4615,-4.4615,-4.4615,-4.4615,-4.4615,-4.4615,-4.4615,-4.4987,-4.5703,-4.6819,-4.8802,-4.9867,-5.0033,-5.0554,-5.1008,-5.1368,-5.1862,-5.2206,-5.2404,-5.2959,-5.3203,-5.3203,-5.3203,-5.3203,-5.3203,-5.298,-5.2702,-5.2242,0.0,0.0,0.0,0.0,0.0,0.0,0.0,0.0,0.0,0.0,0.0,0.0,0.0,-2.3095,-2.3095,-2.3095,0.0,0.0,0.0,0.0,0.0,-2.3095,-2.3095,0.0,-2.3095,-2.3095,-2.3095,-2.3095,-2.3868,-2.4247,-2.425,-2.5021,-2.5328,-2.5273,-2.5301,-2.4964,-2.4337,-2.5105,-2.5797,-2.6443,-2.6443,-2.6837,-2.7484,-2.7484,-2.7484,-2.7484,-2.7484,-2.7484,-2.7484,-2.7484,-2.7484,-2.7484,-2.7484,-2.7509,-2.7534,0.0,0.0,0.0,-2.9232,-2.9711,0.0,-3.2886,-3.3574,-3.4143,-3.6088,-3.7015,-3.7644,-3.8302,-3.896,-3.9373,-3.9373,-3.9373,-3.9373,-3.9373,-3.9439,-3.9433,-3.9433,-3.9463,-3.9529,-3.9529,-4.1021,-4.2045,-4.2045,-4.3591,-4.4615,-4.4615,-4.4615,-4.4615,-4.4615,-4.4615,-4.4615,-4.4615,-4.4615,-4.4615,-4.4615,-4.5974,-4.6718,-4.6819,-4.8304,-4.9372,-5.0004,-5.0033,-5.0796,-5.2065,-5.2089,-5.2509,-5.3124,-5.3167,-5.3203,-5.3203,-5.3203,-5.3203,-5.3103,-5.2404,-5.2576,-5.285,0.0,0.0,0.0,0.0,0.0,0.0,0.0,0.0,0.0,0.0,0.0,0.0,0.0,-2.4568,-2.4568,-2.4568,-2.4568,0.0,0.0,0.0,0.0,-2.4568,-2.4568,-2.4568,-2.4568,-2.4568,-2.4568,-2.4568,-2.4852,-2.5021,-2.5021,-2.5769,-2.5851,-2.5439,-2.5906,-2.596,-2.5769,-2.6496,-2.6967,-2.7203,-2.7203,-2.7357,-2.7585,-2.7585,-2.7585,-2.7705,-2.8573,-2.8873,-2.9022,-2.9834,-2.9564,-2.8873,-2.8873,-2.8304,-2.7585,-2.7585,-2.7585,-2.7705,0.0,0.0,0.0,-3.076,-3.1599,-3.2497,-3.3664,-3.4771,-3.5848,-3.6926,-3.8003,-3.8901,-3.9313,-3.9373,-3.9373,-3.9373,-3.9373,-3.9373,-3.9373,-3.9373,-3.9625,-4.017,-4.1295,-4.2237,-4.2769,-4.3919,-4.4615,-4.4615,-4.4615,-4.4615,-4.4615,-4.4615,-4.4615,-4.4615,-4.4615,-4.4615,-4.4615,-4.6041,-4.6786,-4.6819,-4.8714,-4.978,-5.0033,-5.0955,-5.1618,-5.2136,-5.2599,-5.2959,-5.3203,-5.3203,-5.3203,-5.3203,-5.3203,-5.3203,-5.3146,-5.2915,-5.2959,-5.3039,0.0,0.0,0.0,0.0,0.0,0.0,0.0,0.0,0.0,0.0,0.0,0.0,0.0,0.0,-2.5412,-2.5412,-2.5412,-2.5412,-2.5412,-2.5412,-2.5412,-2.5412,-2.5412,-2.5412,-2.5412,-2.5412,-2.5412,-2.5412,-2.566,-2.5769,-2.5797,-2.6522,-2.6602,-2.6147,-2.6654,-2.6707,-2.6551,-2.728,-2.7585,-2.7585,-2.7585,-2.7585,-2.7645,-2.8094,-2.8274,-2.8453,-2.9744,-3.0253,-3.0372,-3.1212,-3.0672,-2.9621,-2.9621,-2.8693,-2.7585,-2.7585,-2.7585,0.0,-2.7585,0.0,0.0,-2.9502,-3.0253,-3.1092,-3.1959,-3.3365,-3.4743,-3.5672,-3.7015,-3.8212,-3.8661,-3.8931,-3.914,-3.9343,-3.9373,-3.9373,-3.9373,-3.9373,-3.9737,-4.0588,-4.1462,-4.2332,-4.3199,-4.4093,-4.4615,-4.4615,-4.4615,-4.4615,-4.4615,-4.4615,-4.4615,-4.4615,-4.4615,-4.4615,-4.4615,-4.6041,-4.6786,-4.6819,-4.8744,-4.9664,-4.9693,-5.0635,-5.1317,-5.179,-5.2266,-5.2747,-5.3203,-5.3203,-5.3203,-5.3203,-5.3203,-5.3203,-5.3203,-5.3203,-5.3203,-5.3103,0.0,0.0,0.0,0.0,0.0,0.0,0.0,0.0,0.0,-2.5439,0.0,0.0,0.0,0.0,0.0,-2.5439,-2.5439,-2.5439,-2.5439,-2.5439,-2.5439,-2.5439,0.0,0.0,-2.5439,-2.5439,-2.5439,-2.5439,-2.6176,-2.6522,-2.6551,-2.7255,-2.7585,-2.7585,-2.7585,-2.7203,-2.6575,-2.7306,-2.7585,-2.7585,-2.7645,-2.7645,-2.7794,-2.9142,-2.9681,-2.9804,-3.1092,-3.157,-3.157,-3.16,-3.0761,-2.9651,-2.9562,-2.8663,-2.7585,-2.7585,-2.7585,0.0,0.0,0.0,0.0,-2.9232,-2.9562,-2.9864,-3.1152,-3.2946,-3.4384,-3.4474,-3.5998,-3.7345,-3.7404,-3.7943,-3.8571,-3.926,-3.9343,-3.9373,-3.9373,-3.9373,-3.9737,-4.0588,-4.1462,-4.2332,-4.3199,-4.4093,-4.4615,-4.4615,-4.4615,-4.4615,-4.4615,-4.4615,-4.4615,-4.4615,-4.4615,-4.4615,-4.4615,-4.6041,-4.6786,-4.6819,-4.8308,-4.9018,-4.9018,-4.9015,-4.978,-5.1086,-5.1112,-5.1898,-5.3203,-5.3203,-5.3203,-5.3203,-5.3203,-5.3203,-5.3203,-5.3203,-5.3203,-5.3103,0.0,0.0,0.0,0.0,0.0,0.0,-2.5105,-2.5273,-2.5605,0.0,0.0,0.0,-2.6916,-2.6993,-2.6993,-2.6993,-2.6993,-2.6993,-2.6993,-2.6993,-2.6993,-2.6993,-2.6993,-2.6993,-2.6993,-2.6993,-2.6993,-2.6993,-2.7203,-2.7306,-2.7306,-2.7509,-2.7585,-2.7585,-2.7585,-2.7484,-2.7306,-2.7509,-2.7585,-2.7675,-2.8663,-2.9052,-2.9202,-3.0492,-3.0972,-3.1152,-3.2467,-3.2946,-3.3095,-3.4083,-3.2886,-3.0614,-2.8753,-2.7884,-2.7585,-2.7585,-2.7585,0.0,-2.7585,0.0,0.0,0.0,0.0,0.0,-2.9804,-3.058,-3.1628,-3.4024,-3.4953,-3.5729,-3.7135,-3.7554,-3.7734,-3.7943,-3.8781,-3.9373,-3.9373,-3.9373,-3.9737,-4.0588,-4.1462,-4.2332,-4.3199,-4.4093,-4.4615,-4.4615,-4.4615,-4.4615,-4.4615,-4.4615,-4.4615,-4.4615,-4.4615,-4.4615,-4.4615,-4.6041,-4.6786,-4.6819,-4.8308,-4.9018,-4.9049,-4.9492,-5.023,-5.1138,-5.1618,-5.2335,-5.3203,-5.3203,-5.3203,-5.3203,-5.3203,-5.3203,-5.3203,-5.3203,-5.3203,-5.3146,0.0,0.0,0.0,0.0,0.0,0.0,-2.5878,-2.6122,-2.6469,0.0,0.0,0.0,-2.7534,-2.7585,-2.7585,-2.7585,-2.7585,-2.7585,-2.7585,-2.7585,-2.7585,-2.7585,-2.7585,-2.7585,-2.7585,-2.7585,-2.7585,-2.7585,-2.7585,-2.7585,-2.7585,-2.7585,-2.7585,-2.7585,-2.7585,-2.7585,-2.7585,-2.7585,-2.7914,-2.8453,-2.8693,-2.9112,-2.9741,-3.1002,-3.1511,-3.175,-3.3664,-3.4322,-3.4442,-3.525,-3.4113,-3.1779,-2.8603,-2.7974,-2.8334,-2.7764,-2.7585,0.0,0.0,0.0,0.0,-2.7585,0.0,0.0,-2.8603,-2.9202,-3.0283,-3.2736,-3.3245,-3.3754,-3.5459,-3.5549,-3.5549,-3.6088,-3.7075,-3.7973,-3.8512,-3.8571,-3.8892,-3.9787,-4.0609,-4.1589,-4.2766,-4.3623,-4.4215,-4.4581,-4.4615,-4.4615,-4.4615,-4.4615,-4.4615,-4.4615,-4.4615,-4.4615,-4.4615,-4.6041,-4.6786,-4.6819,-4.8308,-4.9018,-4.8984,-4.9402,-5.0146,-5.1112,-5.1519,-5.2266,-5.3203,-5.3203,-5.3203,-5.3203,-5.3203,-5.3203,-5.3203,-5.3203,-5.3203,-5.3203,0.0,0.0,0.0,-2.5632,-2.6203,-2.6602,-2.6602,-2.7178,-2.7585,0.0,-2.7585,-2.7585,-2.7585,-2.7585,-2.7585,-2.7585,-2.7585,-2.7585,-2.7585,-2.7585,-2.7585,-2.7585,-2.7585,-2.7585,-2.7585,-2.7585,-2.7585,-2.7585,-2.7585,-2.7585,-2.7585,-2.7585,-2.7585,-2.7585,-2.7585,0.0,-2.7585,-2.7585,-2.8364,-2.9502,-2.8453,-2.8843,-3.0163,-3.1451,-3.1959,-3.2258,-3.4651,-3.5519,-3.5459,-3.516,-3.4352,-3.2826,-2.9022,-2.8633,-2.9382,-2.8184,-2.7705,0.0,0.0,0.0,0.0,-2.7585,-2.7585,0.0,-2.7794,-2.8633,-2.9774,-3.1212,-3.1391,-3.169,-3.3036,-3.2796,-3.2796,-3.3963,-3.4771,-3.5789,-3.7195,-3.7404,-3.7681,-3.8481,-3.9377,-4.046,-4.1884,-4.2791,-4.3606,-4.4412,-4.4547,-4.4615,-4.4615,-4.4615,-4.4615,-4.4615,-4.4615,-4.4615,-4.4615,-4.6041,-4.6786,-4.6819,-4.8308,-4.9018,-4.9018,-4.9018,-4.9751,-5.1086,-5.1086,-5.1898,-5.3203,-5.3203,-5.3203,-5.3203,-5.3203,-5.3203,-5.3203,-5.3203,-5.3203,-5.3203,0.0,0.0,0.0,-2.7148,-2.7306,-2.7382,-2.7382,-2.7509,-2.7585,-2.7585,-2.7585,-2.7585,-2.7585,-2.7585,-2.7585,-2.7585,-2.7585,-2.7585,-2.7585,-2.7585,-2.7585,-2.7585,-2.7585,-2.7585,-2.7585,-2.7585,-2.7585,-2.7585,-2.7585,-2.7585,-2.7585,-2.7585,-2.7585,-2.7585,-2.7585,-2.7585,-2.7585,-2.7585,-2.8364,-2.9681,-3.0432,-3.1539,-3.2886,-3.4203,-3.4741,-3.4801,-3.531,-3.5519,-3.519,-3.3005,-3.2796,-3.2976,-3.0131,-2.9382,-2.9562,-2.9292,-2.8453,-2.7585,-2.7585,-2.7585,-2.7585,-2.7585,-2.7585,0.0,-2.8963,-2.8573,-2.8663,-3.1002,-3.0702,-3.0372,-3.163,-3.178,-3.178,-3.2019,-3.3095,-3.4711,-3.7075,-3.7404,-3.7473,-3.7613,-3.8998,-4.0025,-4.0335,-4.1654,-4.2828,-4.3572,-4.4215,-4.4615,-4.4615,-4.4615,-4.4615,-4.4615,-4.4615,-4.4615,-4.4615,-4.6041,-4.6786,-4.6819,-4.8308,-4.9018,-4.9018,-4.9018,-4.9751,-5.1086,-5.1086,-5.1898,-5.3203,-5.3203,-5.3203,-5.3203,-5.3203,-5.3203,-5.3203,-5.3203,-5.3203,-5.3203,0.0,0.0,0.0,0.0,-2.7585,-2.7585,-2.7585,-2.7585,-2.7585,-2.7585,-2.7585,-2.771,-2.8033,-2.8057,-2.8174,-2.8456,-2.848,-2.848,-2.848,-2.848,-2.8367,-2.8052,-2.8343,-2.8222,-2.761,-2.791,-2.791,-2.7585,-2.7585,-2.7585,-2.7585,-2.7585,-2.7585,-2.7585,-2.7585,-2.7585,-2.7645,-2.8304,-2.9355,-3.0552,-3.0552,-3.136,-3.2647,-3.3993,-3.4711,-3.507,-3.5759,-3.6178,-3.6088,-3.3784,-3.3425,-3.3574,-3.127,-3.0103,-2.9621,-2.9621,-2.8663,-2.7585,-2.7585,-2.7585,-2.7585,-2.7585,-2.7585,0.0,0.0,-2.8094,-2.8154,-3.0133,-2.9505,-2.9022,-3.0313,-3.0013,-2.9774,-3.0462,-3.112,-3.2228,-3.4171,-3.5639,-3.6447,-3.6447,-3.7527,-3.8552,-3.9326,-4.0499,-4.1667,-4.2767,-4.3572,-4.4012,-4.4012,-4.4378,-4.4615,-4.4615,-4.4615,-4.4615,-4.4615,-4.5703,-4.6447,-4.6819,-4.7936,-4.8646,-4.9018,-4.9346,-5.009,-5.1112,-5.1444,-5.2219,-5.3203,-5.3203,-5.3203,-5.3203,-5.3203,-5.3203,-5.3203,-5.3203,-5.3203,-5.3203,-2.7645,0.0,0.0,0.0,-2.7585,-2.7585,-2.7585,0.0,-2.7635,-2.776,-2.7885,-2.8217,-2.8996,-2.8857,-2.8983,-2.9767,-2.9566,-2.9406,-2.9406,-2.9406,-2.918,-2.8701,-2.9134,-2.895,-2.7953,-2.8439,-2.8439,-2.7929,-2.7835,-2.776,-2.776,-2.7635,-2.7585,-2.7585,-2.7585,-2.7735,-2.8064,-2.9142,-3.0342,-3.1421,-3.0642,-3.0971,-3.2049,-3.3514,-3.4233,-3.4683,-3.6148,-3.6985,-3.7135,-3.528,-3.4863,-3.4681,-3.2587,-3.118,-3.031,-3.0043,-2.8906,-2.7794,-2.7794,-2.7705,-2.7585,-2.7585,-2.7585,-2.7585,0.0,0.0,0.0,-2.8992,-2.8364,-2.7914,-2.9022,-2.8334,-2.7944,-2.9052,-2.9442,-2.9953,-3.0972,-3.3185,-3.4741,-3.4741,-3.5401,-3.6495,-3.8142,-3.9514,-4.0788,-4.2023,-4.2895,-4.3375,-4.3375,-4.4147,-4.4615,-4.4615,-4.4615,-4.4615,-4.4615,-4.5331,-4.6075,-4.6819,-4.7564,-4.8308,-4.9015,-4.9693,-5.039,-5.1138,-5.179,-5.2531,-5.3203,-5.3203,-5.3203,-5.3203,-5.3203,-5.3203,-5.3203,-5.3203,-5.3203,-5.3203,-2.7824,-2.7585,0.0,0.0,0.0,0.0,0.0,0.0,-2.7785,-2.8319,-2.8857,-2.9726,-3.111,-3.0073,-2.9872,-3.1229,-3.0133,-2.9406,-2.9406,-2.9406,-2.9361,-2.9293,-2.9361,-2.9339,-2.9203,-2.9271,-2.9271,-2.9203,-2.8677,-2.8391,-2.8391,-2.786,-2.7585,-2.7585,-2.7585,-2.8274,-2.9382,-2.9562,-3.0342,-3.16,-3.2647,-3.3125,-3.3484,-3.54,-3.5459,-3.4743,-3.6626,-3.7345,-3.7195,-3.5848,-3.6148,-3.6626,-3.4083,-3.3155,-3.2826,-3.163,-2.9983,-2.8487,-2.8487,-2.8064,-2.7585,-2.7585,-2.7585,-2.7585,-2.7585,0.0,-2.7645,-2.7794,0.0,-2.7645,-2.7794,0.0,0.0,-2.7794,-2.8813,-2.9651,-2.9801,-3.1061,-3.1959,-3.1959,-3.2675,-3.3944,-3.5957,-3.9149,-4.1159,-4.1305,-4.2625,-4.3375,-4.3375,-4.4147,-4.4615,-4.4615,-4.4615,-4.4615,-4.4615,-4.5331,-4.6075,-4.6819,-4.7564,-4.8308,-4.9015,-4.9693,-5.039,-5.1138,-5.179,-5.2531,-5.3203,-5.3203,-5.3203,-5.3203,-5.3203,-5.3203,-5.3203,-5.3203,-5.3203,-5.3203,-2.8952,-2.8753,0.0,0.0,0.0,0.0,0.0,0.0,-3.0026,-3.0267,-3.0528,-3.1347,-3.3208,-3.2066,-3.2105,-3.4409,-3.3216,-3.2531,-3.2961,-3.2199,-3.1946,-3.2448,-3.1177,-3.05,-3.066,-3.0182,-2.9761,-2.9406,-2.9134,-2.9019,-2.9019,-2.8764,-2.8646,-2.8654,-2.91,-2.9822,-3.0822,-3.2044,-3.243,-3.2336,-3.403,-3.4311,-3.387,-3.5776,-3.6596,-3.6896,-3.8123,-3.8571,-3.8422,-3.7494,-3.7045,-3.6746,-3.5998,-3.4203,-3.2378,-3.2617,-3.1001,-2.9325,-3.0076,-3.0076,-2.9864,-2.9864,-2.9864,-2.9564,-2.8427,-2.8158,-2.8094,-2.7675,0.0,0.0,0.0,0.0,0.0,0.0,-2.8064,-2.8453,-2.8453,-2.8876,-2.9804,-3.1331,-3.2104,-3.3531,-3.6084,-3.7319,-3.8328,-3.9242,-4.0257,-4.1035,-4.1441,-4.3031,-4.4113,-4.4581,-4.4615,-4.4615,-4.4615,-4.4891,-4.5635,-4.6786,-4.7124,-4.8073,-4.9576,-5.0307,-5.1034,-5.1716,-5.2404,-5.2915,-5.3203,-5.3203,-5.3203,-5.3203,-5.3203,-5.3203,-5.3203,-5.3203,-5.3203,-5.3203,-3.0799,0.0,0.0,0.0,-3.0873,0.0,-3.1534,-3.1725,-3.1843,-3.1843,-3.1983,-3.298,-3.5309,-3.4236,-3.452,-3.7459,-3.6152,-3.5351,-3.5893,-3.4336,-3.3837,-3.4891,-3.2942,-3.1867,-3.2099,-3.1473,-3.0747,-2.9892,-2.9717,-2.9651,-2.9651,-2.9473,-2.9406,-2.9416,-2.9973,-3.0921,-3.2271,-3.3738,-3.4269,-3.4254,-3.5872,-3.6197,-3.5831,-3.6561,-3.7613,-3.8751,-3.923,-3.9373,-3.9349,-3.8841,-3.8063,-3.7315,-3.7375,-3.5459,-3.3245,-3.3873,-3.2557,-3.1149,-3.2078,-3.1929,-3.16,-3.1959,-3.1511,-3.0703,-2.9654,-2.9116,-2.8667,-2.8034,-2.7884,0.0,0.0,0.0,-2.7585,-2.7585,0.0,-2.7585,-2.7585,-2.7735,-2.8484,-3.0223,-3.1474,-3.3071,-3.5333,-3.5569,-3.6039,-3.7188,-3.7956,-3.8894,-4.0045,-4.1813,-4.3369,-4.4581,-4.4615,-4.4615,-4.4615,-4.4615,-4.5359,-4.6786,-4.6786,-4.7909,-5.0033,-5.077,-5.1469,-5.2136,-5.2893,-5.3203,-5.3203,-5.3203,-5.3203,-5.3203,-5.3203,-5.3203,-5.3203,-5.3203,-5.3314,-5.3555,-3.3483,-3.2446,0.0,-3.1558,-3.1558,-3.1582,-3.1582,-3.2108,-3.2473,-3.2473,-3.2971,-3.4496,-3.7469,-3.6422,-3.6692,-3.9724,-3.799,-3.6728,-3.6761,-3.4641,-3.4044,-3.5509,-3.4112,-3.3334,-3.3326,-3.3313,-3.257,-3.1151,-3.0559,-3.0288,-3.0267,-2.9673,-2.9406,-2.9406,-2.9416,-3.095,-3.3534,-3.363,-3.5171,-3.7697,-3.8491,-3.961,-4.0543,-3.8435,-3.8394,-3.9379,-3.9373,-3.9373,-3.9373,-3.9409,-3.9313,-3.9074,-3.7823,-3.7315,-3.6985,-3.5789,-3.4921,-3.4354,-3.4384,-3.2976,-3.1809,-3.3125,-3.1509,-2.9953,-3.1122,-3.0462,-2.9382,-2.8697,-2.8577,-2.8368,-2.7735,-2.7585,-2.7585,-2.7585,-2.7585,0.0,0.0,-2.8076,-2.8277,-2.778,-3.0054,-3.1892,-3.256,-3.4443,-3.5633,-3.5667,-3.64,-3.7811,-3.9977,-4.0832,-4.2286,-4.4547,-4.4615,-4.4615,-4.4615,-4.4615,-4.5359,-4.6786,-4.6786,-4.7909,-5.0033,-5.077,-5.1469,-5.2136,-5.2893,-5.3203,-5.3203,-5.3203,-5.3203,-5.3203,-5.3203,-5.3203,-5.3203,-5.3203,-5.3702,-5.4363,0.0,0.0,0.0,-3.3645,-3.3606,-3.3749,-3.418,-3.4409,-3.4924,-3.5954,-3.6251,-3.7516,-4.0493,-3.9478,-3.958,-4.2057,-4.073,-3.9918,-4.0417,-3.8826,-3.8261,-3.9276,-3.6941,-3.5385,-3.4856,-3.3875,-3.2679,-3.119,-3.1012,-3.0898,-3.0878,-3.0695,-3.058,-3.0593,-3.1122,-3.2643,-3.4954,-3.5439,-3.6555,-3.8106,-3.934,-3.9425,-3.8878,-3.9618,-4.0387,-4.1129,-4.1129,-4.0758,-4.0274,-4.0274,-3.9884,-3.9313,-3.8901,-3.8123,-3.7315,-3.6896,-3.5998,-3.534,-3.6178,-3.5938,-3.5487,-3.5968,-3.4771,-3.3275,-3.2377,-3.115,-3.0013,-2.9385,-2.8906,-2.8517,-2.8278,-2.7914,-2.7585,-2.7585,-2.7585,-2.7585,0.0,-2.8131,-2.8583,-2.8764,-2.9593,-3.093,-3.2892,-3.2845,-3.3085,-3.4078,-3.4404,-3.552,-3.7811,-3.9537,-4.1474,-4.3741,-4.4316,-4.4615,-4.4615,-4.4615,-4.5359,-4.6786,-4.6786,-4.8163,-5.0743,-5.0981,-5.1728,-5.2813,-5.3082,-5.3203,-5.3203,-5.3203,-5.3203,-5.3203,-5.3203,-5.3555,-5.3995,-5.3995,-5.4179,-5.4546,-3.4981,-3.5316,-3.5453,-3.5028,-3.4981,-3.5098,-3.5554,-3.6073,-3.658,-3.7043,-3.8024,-3.9411,-4.1331,-4.1162,-4.1677,-4.3639,-4.2692,-4.2185,-4.2658,-4.1068,-4.0561,-4.1542,-3.9276,-3.7618,-3.684,-3.5351,-3.3761,-3.1968,-3.1461,-3.119,-3.119,-3.119,-3.119,-3.1205,-3.1683,-3.2983,-3.4901,-3.62,-3.7403,-3.8571,-4.0041,-4.0094,-3.9475,-4.0939,-4.1355,-4.1278,-4.1821,-4.1429,-4.0758,-4.1031,-4.0378,-3.9445,-3.9773,-3.9063,-3.8123,-3.8123,-3.7554,-3.7075,-3.7913,-3.7764,-3.7524,-3.8003,-3.6806,-3.528,-3.4442,-3.3215,-3.2108,-3.1478,-3.0612,-2.9924,-2.9684,-2.8697,-2.7974,-2.7974,-2.7764,-2.776,0.0,-2.8391,-2.8857,-2.9913,-2.9848,-3.0467,-3.2428,-3.1765,-3.1596,-3.2544,-3.2611,-3.3829,-3.666,-3.842,-4.0561,-4.3308,-4.4181,-4.4615,-4.4615,-4.4615,-4.5359,-4.6786,-4.7043,-4.8522,-5.1112,-5.1343,-5.2065,-5.3203,-5.3203,-5.3203,-5.3203,-5.3203,-5.3203,-5.3203,-5.3203,-5.3702,-5.4399,-5.4399,-5.4766,-5.5427,-3.56,-3.56,-3.56,-3.56,-3.56,-3.56,-3.56,-3.6817,-3.7313,-3.5904,-3.8261,-4.0146,-4.0214,-4.1534,-4.2997,-4.4479,-4.391,-4.3443,-4.3443,-4.1482,-4.0933,-4.2286,-4.1035,-3.9859,-3.9073,-3.7608,-3.578,-3.3525,-3.2002,-3.1258,-3.1258,-3.1224,-3.119,-3.119,-3.119,-3.2036,-3.3592,-3.578,-3.7642,-3.9242,-4.0764,-4.1745,-4.2286,-4.2388,-4.138,-4.0124,-4.1596,-4.156,-4.0961,-4.1756,-4.0927,-3.9666,-4.0485,-4.017,-3.9445,-3.9445,-3.9409,-3.9373,-3.9373,-3.8482,-3.7823,-3.9074,-3.7494,-3.5908,-3.7135,-3.6417,-3.531,-3.4683,-3.3514,-3.2378,-3.169,-3.0016,-2.8727,-2.8607,-2.8034,-2.8002,-2.9157,-2.8889,-2.918,-3.0898,-3.0642,-3.0559,-3.1151,-3.119,-3.119,-3.119,-3.119,-3.278,-3.6457,-3.7449,-3.9546,-4.3105,-4.4113,-4.4615,-4.4615,-4.4615,-4.5359,-4.6815,-4.7485,-4.895,-5.1112,-5.1741,-5.245,-5.3203,-5.3146,-5.3182,-5.3203,-5.3203,-5.3203,-5.3203,-5.3261,-5.3775,-5.4509,-5.4509,-5.55,-5.6969,-3.56,-3.56,-3.56,-3.56,-3.56,-3.56,-3.56,-3.5938,-3.6445,-3.7212,-3.8937,-4.0527,-4.161,-4.3091,-4.4175,-4.4581,-4.4384,-4.4282,-4.4282,-4.3741,-4.3335,-4.3132,-4.2733,-4.1685,-3.9884,-3.8362,-3.6772,-3.5025,-3.3017,-3.2022,-3.2022,-3.1481,-3.119,-3.119,-3.119,-3.2307,-3.4269,-3.4844,-3.7246,-4.0832,-4.2895,-4.3132,-4.2422,-4.3565,-4.3048,-4.1849,-4.338,-4.338,-4.2645,-4.2894,-4.2237,-4.1395,-4.1625,-4.1095,-4.0378,-4.0378,-3.9884,-3.9373,-3.9373,-3.9134,-3.899,-3.9284,-3.8153,-3.7015,-3.7345,-3.6417,-3.5459,-3.528,-3.4562,-3.3634,-3.2437,-3.1421,-3.0285,-2.8846,-2.8034,-2.771,-2.8002,-2.8693,-2.9339,-2.9805,-3.0518,-3.1052,-3.119,-3.119,-3.119,-3.119,-3.119,-3.2104,-3.4167,-3.6569,-3.8836,-4.0865,-4.3328,-4.4615,-4.4615,-4.4615,-4.5359,-4.6815,-4.7485,-4.895,-5.1112,-5.1266,-5.2018,-5.3146,-5.2621,-5.2702,-5.3203,-5.3203,-5.3203,-5.324,-5.3849,-5.495,-5.6198,-5.6198,-5.6822,-5.7703,-3.6197,-3.5836,-3.56,-3.56,-3.56,-3.5836,-3.6479,-3.7155,-3.7865,-3.8734,-4.073,-4.2117,-4.2286,-4.3701,-4.4615,-4.4615,-4.4615,-4.4615,-4.4615,-4.4615,-4.4412,-4.3944,-4.391,-4.32,-4.1583,-4.0121,-3.8464,-3.6614,-3.4675,-3.3389,-3.2747,-3.2022,-3.1833,-3.2138,-3.1799,-3.2544,-3.4134,-3.5757,-3.8125,-4.0899,-4.2794,-4.3064,0.0,-4.3261,-4.3498,-4.343,-4.431,-4.4035,-4.3383,-4.3739,-4.3047,-4.2078,-4.2458,-4.1691,-4.0752,-4.1062,-4.0522,-3.9918,-4.0187,-4.0277,-4.0277,-4.0277,-3.9499,-3.8721,-3.8721,-3.7943,-3.7225,-3.7225,-3.6447,-3.5549,-3.4801,-3.3155,-3.1182,-2.8966,-2.8505,-2.8412,-2.8398,-2.9203,-2.9892,-3.0182,-3.0797,-3.119,-3.119,-3.119,-3.119,-3.119,-3.119,-3.2273,-3.4742,-3.6163,-3.8024,-4.0493,-4.2523,-4.3267,-4.2625,-4.3938,-4.5021,-4.5867,-4.7496,-4.9266,-5.1112,-5.1393,-5.197,-5.2702,-5.2289,-5.2335,-5.2747,-5.3082,-5.3203,-5.3314,-5.4473,-5.5684,-5.6859,-5.7189,-5.7593,-5.7997,-3.7066,-3.6299,-3.5802,-3.6005,-3.5802,-3.6276,-3.8328,-3.9285,-3.9918,-4.0214,-4.2719,-4.3972,-4.2726,-4.3972,-4.4886,-4.4886,-4.4886,-4.4852,-4.475,-4.475,-4.4716,-4.4615,-4.4615,-4.4248,-4.3544,-4.2117,-4.0324,-3.8193,-3.6569,-3.5013,-3.3525,-3.278,-3.278,-3.3389,-3.2733,-3.297,-3.4066,-3.7652,-3.9648,-4.0502,-4.1982,-4.2591,-4.2591,-4.2591,-4.343,-4.4615,-4.4615,-4.4093,-4.3591,-4.4355,-4.3588,-4.2489,-4.3361,-4.2429,-4.1109,-4.179,-4.1296,-4.0666,-4.1235,-4.1422,-4.1422,-4.1422,-4.0935,-4.0516,-4.0516,-4.0008,-3.9559,-3.9559,-3.8542,-3.7614,-3.7434,-3.4775,-3.1865,-2.9475,-2.9496,-2.9703,-2.9457,-3.0163,-3.0829,-3.1032,-3.132,0.0,-3.1224,-3.119,-3.119,-3.119,-3.119,-3.2645,-3.6051,-3.5825,-3.7121,-4.0527,-4.1711,-4.1677,-4.04,-4.32,-4.4716,-4.4919,-4.7595,-4.9674,-5.1112,-5.179,-5.2112,-5.2112,-5.2112,-5.2112,-5.2159,-5.2893,-5.3314,-5.3665,-5.506,-5.6161,-5.7042,-5.774,-5.7997,-5.7997,-3.7719,-3.711,-3.6975,-3.8193,-3.6874,-3.7155,-4.1719,-4.0062,-3.8937,-4.0764,-4.2523,-4.3775,-4.4175,-4.55,-4.6413,-4.6413,-4.6413,-4.6143,-4.5534,-4.55,-4.5229,-4.4649,-4.4615,-4.4547,-4.4384,-4.2895,-4.1305,-3.9706,-3.7642,-3.5791,-3.4303,-3.3558,-3.3288,-3.3389,-3.3254,-3.4303,-3.6389,-3.887,-4.0696,-4.2049,-4.3572,-4.4209,-4.4209,-4.4209,-4.4378,-4.4615,-4.4615,-4.4497,-4.4384,-4.4559,-4.4412,-4.4251,-4.5033,-4.4056,-4.2741,-4.3474,-4.2509,-4.1235,-4.1392,-4.1422,-4.1422,-4.1422,-4.1294,-4.1205,-4.1205,-4.0696,-4.0217,-4.0217,-3.9619,-3.8721,-3.7614,-3.5184,-3.3014,-3.1986,-3.1481,-3.0831,-2.9661,-3.1546,-3.2375,-3.0654,-3.1972,-3.2544,-3.1326,-3.119,-3.119,-3.119,-3.119,-3.1732,-3.3038,-3.4709,-3.6231,-3.754,-4.0629,-4.2185,-4.1914,-4.3701,-4.5224,-4.6443,-4.812,-4.9674,-5.1112,-5.179,-5.2112,-5.2112,-5.2112,-5.2112,-5.2159,-5.2893,-5.3995,-5.5207,-5.5486,-5.6492,-5.7813,-5.796,-5.7997,-5.7997,-3.8894,-3.8535,-3.8499,-3.9207,-3.9077,-4.0038,-4.3315,-4.304,-4.2832,-4.3952,-4.505,-4.5843,-4.622,-4.6906,-4.7458,-4.7862,-4.7889,-4.775,-4.7368,-4.699,-4.646,-4.5733,-4.5354,-4.4993,-4.4615,-4.387,-4.2381,-4.0113,-3.9039,-3.7347,-3.5047,-3.4336,-3.4167,-3.4585,-3.5385,-3.6332,-3.755,-4.0155,-4.1644,-4.2422,-4.4005,-4.4615,-4.4615,-4.4615,-4.4615,-4.4615,-4.4615,-4.4852,-4.5162,-4.5162,-4.5162,-4.5297,-4.6041,-4.5338,-4.4431,-4.5146,-4.405,-4.2724,-4.3053,-4.2795,-4.2402,-4.2402,-4.2132,-4.1931,-4.1931,-4.1422,-4.0905,-4.0905,-4.0397,-3.9553,-3.8321,-3.7029,-3.5916,-3.5005,-3.3846,-3.2862,-3.2288,-3.3613,-3.4074,-3.2637,-3.3376,-3.3525,-3.2442,-3.1664,-3.119,-3.119,-3.1549,-3.2408,-3.3931,-3.4675,-3.6096,-3.843,-4.0223,-4.0798,-4.002,-4.3436,-4.4925,-4.4513,-4.7875,-5.0039,-5.1112,-5.1444,-5.1765,-5.2089,-5.1716,-5.1765,-5.2196,-5.3354,-5.4509,-5.5647,-5.6051,-5.6932,-5.7997,-5.7997,-5.7997,-5.7997,-4.1173,-4.0764,-4.0425,-4.078,-4.1461,-4.2669,-4.4604,-4.6148,-4.7166,-4.7442,-4.7941,-4.8328,-4.8467,-4.8502,-4.8741,-4.933,-4.938,-4.9309,-4.9132,-4.86,-4.7936,-4.7195,-4.6645,-4.6007,-4.5255,-4.5118,-4.3639,-4.078,-4.0332,-3.8642,-3.5836,-3.5081,-3.5216,-3.614,-3.7381,-3.8261,-3.9005,-4.1305,-4.2489,-4.2895,-4.4107,-4.4615,-4.4615,-4.4615,-4.4716,-4.4852,-4.4852,-4.5297,-4.5974,-4.6109,-4.6075,-4.6075,-4.6786,-4.6444,-4.5857,-4.6551,-4.558,-4.4434,-4.496,-4.4358,-4.3654,-4.3858,-4.3417,-4.2977,-4.3176,-4.2546,-4.1904,-4.1904,-4.1271,-4.043,-3.9473,-3.9279,-3.8744,-3.7452,-3.6045,-3.4987,-3.4526,-3.5525,-3.5926,-3.4844,-3.5013,-3.4878,-3.3964,-3.2544,-3.1664,-3.1664,-3.2056,-3.3343,-3.5723,-3.4979,-3.6096,-3.9521,-3.9623,-3.9217,-3.8396,-4.2929,-4.4637,-4.3503,-4.7891,-5.0444,-5.1317,-5.1317,-5.1593,-5.2089,-5.1544,-5.1692,-5.2454,-5.3837,-5.4876,-5.5706,-5.6492,-5.7299,-5.7997,-5.7997,-5.7997,-5.7997,-4.5703,-4.4223,-4.318,-4.4533,-4.3251,-4.318,-4.6731,-4.8025,-4.8866,-4.9584,-4.9745,-5.0044,-5.0725,-5.0796,-5.0822,-5.0899,-5.0899,-5.0616,-4.9933,-4.9821,-4.9468,-4.8739,-4.8629,-4.8226,-4.7424,-4.6786,-4.5329,-4.3009,-4.105,-3.8928,-3.666,-3.5893,-3.6276,-3.7686,-3.7855,-3.9377,-4.1914,-4.2185,-4.3098,-4.4412,-4.4547,-4.4615,-4.4615,-4.4615,-4.4993,-4.5602,-4.5602,-4.6075,-4.6786,-4.7496,-4.7259,-4.6819,-4.7564,-4.7151,-4.6552,-4.7276,-4.677,-4.5971,-4.6067,-4.5379,-4.4856,-4.571,-4.5238,-4.48,-4.5651,-4.4678,-4.3592,-4.3592,-4.2499,-4.1573,-4.1426,-4.1087,-4.0131,-3.8065,-3.7656,-3.6654,-3.4004,-3.653,-3.7889,-3.5735,-3.6738,-3.7009,-3.5532,-3.4044,-3.3186,-3.3186,-3.2666,-3.358,-3.6524,-3.5306,-3.5622,-3.8024,-3.8125,-3.8667,-3.9876,-4.2388,-4.4845,-4.7311,-4.9116,-5.0695,-5.2018,-5.2018,-5.2042,-5.2112,-5.2042,-5.2404,-5.3176,-5.4047,-5.4876,-5.5706,-5.6492,-5.7299,-5.7997,-5.7997,-5.7997,-5.7997,-4.6823,-4.6612,-4.6384,-4.6995,-4.7202,-4.7804,-4.9293,-5.062,-5.1544,-5.1874,-5.1562,-5.1394,-5.1656,-5.1692,-5.1898,-5.2325,-5.2371,-5.2226,-5.196,-5.1502,-5.0952,-5.0174,-4.9791,-4.9213,-4.8458,-4.8176,-4.6725,-4.4024,-4.2265,-4.049,-3.8768,-3.755,-3.7763,-3.9251,-4.0155,-4.1204,-4.2354,-4.3295,-4.4039,-4.4615,-4.4615,-4.4886,-4.5263,-4.5263,-4.5703,-4.6346,-4.6346,-4.6819,-4.753,-4.7804,-4.7703,-4.7597,-4.8342,-4.8298,-4.8082,-4.8349,-4.777,-4.7036,-4.7036,-4.6381,-4.5742,-4.6103,-4.5889,-4.5742,-4.6103,-4.5702,-4.5227,-4.5227,-4.4886,-4.4329,-4.346,-4.3159,-4.2492,-4.0779,-4.0066,-3.8909,-3.6473,-3.8924,-3.9817,-3.6671,-3.7652,-3.8159,-3.7087,-3.481,-3.3964,-3.5318,-3.4324,-3.4155,-3.5374,-3.6129,-3.7381,-3.9149,-3.9208,-3.9918,-4.1433,-4.32,-4.4934,-4.6508,-4.9318,-5.1183,-5.2089,-5.1667,-5.1494,-5.1519,-5.1946,-5.2786,-5.3974,-5.4351,-5.4953,-5.5776,-5.7052,-5.7434,-5.7401,-5.7821,-5.7997,-5.7997,-4.8862,-4.9297,-4.9407,-4.9407,-5.0582,-5.1499,-5.1499,-5.2858,-5.3922,-5.3922,-5.3462,-5.2935,-5.2499,-5.2404,-5.2621,-5.3146,-5.3203,-5.3203,-5.3203,-5.2725,-5.2173,-5.1673,-5.1166,-5.0593,-4.9828,-4.9627,-4.828,-4.575,-4.4112,-4.2511,-4.1043,-3.9555,-3.9783,-4.1474,-4.2489,-4.3227,-4.3673,-4.4784,-4.5258,-4.5258,-4.5258,-4.5534,-4.6007,-4.6007,-4.6481,-4.7124,-4.7124,-4.7597,-4.821,-4.821,-4.821,-4.8311,-4.8849,-4.9018,-4.9018,-4.9018,-4.8545,-4.7998,-4.7998,-4.734,-4.6662,-4.6936,-4.6799,-4.6662,-4.6936,-4.6799,-4.6523,-4.6244,-4.6349,-4.619,-4.52,-4.4889,-4.429,-4.2848,-4.1927,-4.0567,-3.8256,-4.0426,-4.1001,-3.754,-3.843,-3.9106,-3.8599,-3.6231,-3.5385,-3.6975,-3.6096,-3.5487,-3.5487,-3.6603,-3.7898,-3.9386,-3.9005,-3.9783,-4.1948,-4.3476,-4.5039,-4.6612,-4.9841,-5.1544,-5.179,-5.1519,-5.1393,-5.1419,-5.2112,-5.3184,-5.4451,-5.4779,-5.5233,-5.5844,-5.7397,-5.7546,-5.6989,-5.7726,-5.7997,-5.7997,-5.28,-5.2491,-5.194,-5.194,-5.2637,-5.3167,-5.3167,-5.4546,-5.5596,-5.5596,-5.5574,-5.495,-5.335,-5.3203,-5.3203,-5.3203,-5.3203,-5.3203,-5.3203,-5.3203,-5.3167,-5.3167,-5.3167,-5.28,-5.1977,-5.1318,-5.0234,-4.8774,-4.6599,-4.4828,-4.3308,-4.1847,-4.2354,-4.4547,-4.4581,-4.5393,-4.6752,-4.6752,-4.6752,-4.6752,-4.6752,-4.6786,-4.6786,-4.6786,-4.7259,-4.7872,-4.7872,-4.8376,-4.8984,-4.8984,-4.8984,-4.8984,-4.9018,-4.9018,-4.9018,-4.9018,-4.8984,-4.8954,-4.8954,-4.8289,-4.7803,-4.8736,-4.8257,-4.7836,-4.8767,-4.8257,-4.7306,-4.6384,-4.6349,-4.6486,-4.6486,-4.6049,-4.5167,-4.3646,-4.2794,-4.1271,-3.8328,-4.0426,-4.1204,-3.8261,-3.9174,-4.0079,-4.0079,-3.8734,-3.7855,-3.7889,-3.7889,-3.7855,-3.7855,-3.6445,-3.6343,-3.7889,-3.6445,-3.7425,-4.117,-4.2674,-4.5249,-4.8882,-5.1052,-5.1741,-5.1138,-5.179,-5.2089,-5.2136,-5.2872,-5.3644,-5.4473,-5.5244,-5.5614,-5.5844,-5.7397,-5.7546,-5.6989,-5.7726,-5.7997,-5.7997,-5.4509,-5.462,-5.4436,-5.4436,-5.4656,-5.484,-5.484,-5.5244,-5.5596,-5.5596,-5.5596,-5.539,-5.4876,-5.484,-5.462,-5.4069,-5.4032,-5.3812,-5.3261,-5.3203,-5.3203,-5.3203,-5.3203,-5.3078,-5.2821,-5.2615,-5.1791,-5.0293,-4.8598,-4.679,-4.4897,-4.4973,-4.5399,-4.6075,-4.6075,-4.6346,-4.6786,-4.6786,-4.6786,-4.6786,-4.6786,-4.709,-4.7564,-4.7564,-4.8003,-4.8646,-4.8646,-4.8815,-4.9018,-4.9018,-4.9018,-4.9018,-4.9018,-4.9018,-4.9018,-4.9018,-4.9018,-4.9018,-4.9018,-4.8798,-4.8608,-4.8923,-4.8798,-4.8639,-4.8923,-4.8767,-4.8482,-4.8161,-4.8154,-4.8042,-4.7572,-4.7315,-4.635,-4.3815,-4.4113,-4.3403,-3.9884,-4.1068,-4.1576,-3.9623,-3.9817,-4.0493,-4.1474,-4.0282,-3.9411,-3.9386,-3.9386,-3.8946,-3.7956,-3.8372,-3.9352,-4.0832,-4.0907,-4.1989,-4.4248,-4.4735,-4.652,-4.967,-5.086,-5.1544,-5.179,-5.2531,-5.2576,-5.2112,-5.2358,-5.3225,-5.4471,-5.4773,-5.4932,-5.5177,-5.7181,-5.7216,-5.6259,-5.7522,-5.7997,-5.7997,-5.539,-5.5831,-5.6051,-5.6051,-5.6308,-5.6492,-5.6492,-5.6492,-5.6492,-5.6492,-5.6492,-5.6492,-5.6492,-5.6492,-5.6051,-5.495,-5.484,-5.4509,-5.3702,-5.3665,-5.3518,-5.3203,-5.3203,-5.3203,-5.3203,-5.3203,-5.2616,-5.1401,-5.0243,-4.885,-4.7253,-4.7757,-4.786,-4.7631,-4.7631,-4.7631,-4.7631,-4.7631,-4.7631,-4.7631,-4.7631,-4.7902,-4.8311,-4.8311,-4.8612,-4.9018,-4.9018,-4.9018,-4.9018,-4.9018,-4.9018,-4.9018,-4.9018,-4.9018,-4.9018,-4.9018,-4.9018,-4.9018,-4.9018,-4.9018,-4.9018,-4.9018,-4.9018,-4.9018,-4.9018,-4.9018,-4.9018,-4.9018,-4.9018,-4.8849,-4.8409,-4.8075,-4.7263,-4.5404,-4.5669,-4.4993,-4.1779,-4.2625,-4.2726,-4.0366,-4.0569,-4.1305,-4.2185,-4.1467,-4.0933,-4.0933,-4.0426,-3.9952,-3.958,-3.9918,-4.0527,-4.1441,-4.2185,-4.347,-4.5263,-4.609,-4.7519,-4.9644,-5.0344,-5.1317,-5.2531,-5.2725,-5.2702,-5.2509,-5.2508,-5.3279,-5.4492,-5.4579,-5.4598,-5.4787,-5.6825,-5.6789,-5.5893,-5.7413,-5.7997,-5.7997,-5.578,-5.6381,-5.6895,-5.6895,-5.7483,-5.7997,-5.7997,-5.7997,-5.7997,-5.7997,-5.7997,-5.7997,-5.7997,-5.7997,-5.7409,-5.5926,-5.5721,-5.5317,-5.4546,-5.4473,-5.4142,-5.3387,-5.3314,-5.3277,-5.3277,-5.3203,-5.2835,-5.2159,-5.1494,-5.0823,-5.0111,-5.0118,-4.9751,-4.9138,-4.9077,-4.9077,-4.9077,-4.9049,-4.9018,-4.9018,-4.9018,-4.9018,-4.9018,-4.9018,-4.9018,-4.9018,-4.9018,-4.9018,-4.9018,-4.9018,-4.9018,-4.9018,-4.9018,-4.9018,-4.9018,-4.9018,-4.9018,-4.9018,-4.9018,-4.9018,-4.9018,-4.9018,-4.9018,-4.9018,-4.9018,-4.9018,-4.9018,-4.9018,-4.9018,-4.9018,-4.9018,-4.8443,-4.7939,-4.7906,-4.7327,-4.6075,-4.3781,-4.4722,-4.4316,-4.0738,-4.1542,-4.2388,-4.2455,-4.2455,-4.2422,-4.2286,-4.1128,-4.0959,-4.2151,-4.1128,-4.0493,-4.0468,-4.1204,-4.2651,-4.4902,-4.694,-4.8382,-4.9195,-4.989,-5.1266,-5.3203,-5.2509,-5.2554,-5.3219,-5.3261,-5.3712,-5.4428,-5.4545,-5.4595,-5.4757,-5.6322,-5.6421,-5.5976,-5.7437,-5.7997,-5.7997,-5.7409,-5.7593,-5.7703,-5.7703,-5.7886,-5.7997,-5.7997,-5.7997,-5.7997,-5.7997,-5.7997,-5.7997,-5.7997,-5.7997,-5.785,-5.7483,-5.6859,-5.6161,-5.5354,-5.5317,-5.5207,-5.5023,-5.4436,-5.4106,-5.4106,-5.3518,-5.3103,-5.2937,-5.2219,-5.1765,-5.1593,-5.1086,-5.0743,-5.0554,-5.0004,-4.978,-4.9722,-4.9195,-4.9018,-4.9018,-4.9018,-4.9018,-4.9018,-4.9018,-4.9018,-4.9018,-4.9018,-4.9018,-4.9018,-4.9018,-4.9018,-4.9018,-4.9018,-4.9018,-4.9018,-4.9018,-4.9018,-4.9018,-4.9018,-4.9018,-4.9018,-4.9018,-4.9018,-4.9018,-4.9018,-4.9018,-4.9018,-4.9018,-4.9018,-4.9018,-4.9018,-4.8849,-4.8578,-4.7973,-4.7736,-4.6853,-4.4621,-4.4621,-4.4282,-4.2801,-4.2902,-4.3369,-4.4005,-4.4073,-4.3565,-4.2388,-4.3091,-4.2956,-4.1542,-4.3301,-4.4384,-4.4384,-4.5094,-4.6255,-4.7872,-4.8965,-5.0101,-5.1393,-5.2101,-5.2702,-5.3167,-5.3039,-5.3002,-5.324,-5.3844,-5.3917,-5.3673,-5.489,-5.5107,-5.4757,-5.6322,-5.6773,-5.6721,-5.7679,-5.7997,-5.7997,-5.7997,-5.7997,-5.7997,-5.7997,-5.7997,-5.7997,-5.7997,-5.7997,-5.7997,-5.7997,-5.7997,-5.7997,-5.7997,-5.7997,-5.7997,-5.7997,-5.7593,-5.7005,-5.6198,-5.6161,-5.5978,-5.5611,-5.517,-5.495,-5.495,-5.4179,-5.3592,-5.3203,-5.2791,-5.2427,-5.2089,-5.1716,-5.1393,-5.1086,-5.0689,-5.05,-5.0445,-4.9751,-4.9462,-4.9432,-4.9138,-4.9018,-4.9018,-4.9018,-4.9018,-4.9018,-4.9018,-4.9018,-4.9018,-4.9018,-4.9018,-4.9018,-4.9018,-4.9018,-4.9018,-4.9018,-4.9018,-4.9018,-4.9018,-4.9018,-4.9018,-4.9018,-4.9018,-4.9018,-4.9018,-4.9018,-4.9018,-4.9018,-4.9018,-4.9018,-4.9018,-4.9018,-4.8883,-4.8477,-4.7834,-4.6853,-4.5297,-4.5094,-4.4823,-4.4045,-4.4553,-4.5128,-4.5563,-4.563,-4.5263,-4.4418,-4.4513,-4.4378,-4.3775,-4.4654,-4.5196,-4.5196,-4.6857,-4.8117,-4.8917,-4.9951,-5.106,-5.2112,-5.2509,-5.2893,-5.3203,-5.3203,-5.3039,-5.2739,-5.3941,-5.385,-5.2965,-5.4543,-5.4764,-5.4232,-5.5759,-5.634,-5.6474,-5.7594,-5.7997,-5.7997,-5.8364,-5.8364,-5.8364,-5.8364,-5.8364,-5.8327,-5.8217,-5.818,-5.8143,-5.8033,-5.7997,-5.7997,-5.7997,-5.7997,-5.7997,-5.7997,-5.7997,-5.7703,-5.7042,-5.6969,-5.6675,-5.5978,-5.5831,-5.5757,-5.5757,-5.4987,-5.4252,-5.3555,-5.3445,-5.3076,-5.2434,-5.2325,-5.197,-5.1393,-5.1292,-5.1241,-5.1189,-5.0472,-5.0118,-4.9947,-4.9372,-4.9077,-4.9018,-4.9018,-4.9018,-4.9018,-4.9018,-4.9018,-4.9018,-4.9018,-4.9018,-4.9018,-4.9018,-4.9018,-4.9018,-4.9018,-4.9018,-4.9018,-4.9018,-4.9018,-4.9018,-4.9018,-4.9018,-4.9018,-4.9018,-4.9018,-4.9018,-4.9018,-4.9018,-4.9018,-4.9018,-4.9018,-4.8951,-4.8714,-4.7597,-4.6481,-4.5635,-4.5737,-4.5602,-4.4852,-4.6075,-4.6921,-4.6819,-4.6786,-4.6786,-4.6786,-4.5664,-4.5427,-4.6549,-4.5778,-4.519,-4.5088,-4.7575,-4.9062,-4.9385,-5.0741,-5.1728,-5.2289,-5.2289,-5.2599,-5.3203,-5.3203,-5.2872,-5.2338,-5.3845,-5.3727,-5.2572,-5.4131,-5.4422,-5.3979,-5.532,-5.5948,-5.6196,-5.7522,-5.7997,-5.7997,-6.0015,-6.0015,-6.0015,-6.0015,-6.0015,-5.9795,-5.9111,-5.9001,-5.8767,-5.8107,-5.7997,-5.7997,-5.7997,-5.7997,-5.7997,-5.7997,-5.7997,-5.796,-5.7813,-5.7813,-5.774,-5.7629,-5.6969,-5.6602,-5.6602,-5.5831,-5.5354,-5.5207,-5.4546,-5.4173,-5.4049,-5.3331,-5.2959,-5.285,-5.2242,-5.1934,-5.1886,-5.1215,-5.0554,-5.0004,-4.989,-4.9521,-4.9018,-4.9018,-4.9018,-4.9018,-4.9018,-4.9018,-4.9018,-4.9018,-4.9018,-4.9018,-4.9018,-4.9018,-4.9018,-4.9018,-4.9018,-4.9018,-4.9018,-4.9018,-4.9018,-4.9018,-4.9018,-4.9018,-4.9018,-4.9018,-4.9018,-4.9018,-4.9018,-4.9018,-4.9018,-4.9018,-4.8578,-4.7327,-4.6955,-4.6312,-4.4987,-4.5838,-4.6346,-4.5635,-4.6853,-4.7496,-4.6853,-4.6786,-4.6786,-4.6786,-4.6583,-4.6278,-4.5906,-4.7352,-4.7955,-4.7299,-4.8342,-4.9793,-5.1586,-5.2436,-5.2915,-5.3039,-5.3039,-5.3082,-5.3203,-5.3203,-5.3124,-5.309,-5.4074,-5.3989,-5.3281,-5.4889,-5.5466,-5.5437,-5.634,-5.7091,-5.7666,-5.7927,-5.7997,-5.7997,-6.0419,-6.0419,-6.0419,-6.0419,-6.0419,-6.0272,-5.9905,-5.9869,-5.9722,-5.9355,-5.8914,-5.8657,-5.8657,-5.8253,-5.7997,-5.7997,-5.7997,-5.7997,-5.7997,-5.7997,-5.7997,-5.7997,-5.7629,-5.7262,-5.6822,-5.6455,-5.6014,-5.5596,-5.5207,-5.506,-5.5023,-5.4656,-5.4252,-5.3827,-5.3492,-5.3103,-5.2621,-5.1946,-5.1241,-5.0554,-5.0174,-4.9576,-4.9018,-4.9018,-4.9018,-4.9018,-4.9018,-4.9018,-4.9018,-4.9018,-4.9018,-4.9018,-4.9018,-4.9018,-4.9018,-4.9018,-4.9018,-4.9018,-4.9018,-4.9018,-4.9018,-4.9018,-4.9018,-4.9018,-4.9018,-4.9018,-4.9018,-4.9018,-4.9018,-4.9018,-4.9018,-4.9018,-4.8511,-4.7022,-4.6786,-4.6278,-4.4818,-4.5872,-4.665,-4.6346,-4.7597,-4.8376,-4.8003,-4.8003,-4.8003,-4.797,-4.8003,-4.7834,-4.7496,-4.843,-4.9148,-4.9556,-5.0265,-5.1076,-5.2089,-5.2813,-5.298,-5.2599,-5.3002,-5.3203,-5.3203,-5.3203,-5.3237,-5.329,-5.4122,-5.4073,-5.348,-5.4629,-5.5084,-5.5173,-5.5948,-5.6747,-5.7449,-5.7844,-5.7997,-5.7997,-6.097,-6.097,-6.097,-6.097,-6.097,-6.0896,-6.0713,-6.0676,-6.0603,-6.0419,-5.9869,-5.9478,-5.9478,-5.8767,-5.829,-5.829,-5.8107,-5.7997,-5.7997,-5.7997,-5.7997,-5.7997,-5.7997,-5.7703,-5.7079,-5.7079,-5.6785,-5.6161,-5.5978,-5.5868,-5.5868,-5.5684,-5.5244,-5.4693,-5.4693,-5.4216,-5.3439,-5.289,-5.215,-5.1292,-5.0716,-4.9976,-4.9226,-4.9226,-4.9138,-4.9018,-4.9018,-4.9018,-4.9018,-4.9018,-4.9018,-4.9018,-4.9018,-4.9018,-4.9018,-4.9018,-4.9018,-4.9018,-4.9018,-4.9018,-4.9018,-4.9018,-4.9018,-4.9018,-4.9018,-4.9018,-4.9018,-4.9018,-4.9018,-4.9018,-4.9018,-4.9018,-4.8511,-4.7022,-4.6786,-4.638,-4.5292,-4.6075,-4.6921,-4.7259,-4.8308,-4.9018,-4.9018,-4.9018,-4.9018,-4.9018,-4.9018,-4.9077,-4.9226,-4.9406,-5.0118,-5.1519,-5.2065,-5.2358,-5.2358,-5.2915,-5.2915,-5.2358,-5.2937,-5.3203,-5.3203,-5.3203,-5.3354,-5.3577,-5.4254,-5.4207,-5.3769,-5.4535,-5.4757,-5.4665,-5.5408,-5.6204,-5.6964,-5.7522,-5.7844,-5.7997,-6.2622,-6.2622,-6.2622,-6.2622,-6.2622,-6.2365,-6.163,-6.152,-6.1227,-6.0493,-6.0346,-6.0309,-6.0309,-5.9588,-5.9111,-5.9111,-5.8437,-5.7997,-5.7997,-5.7997,-5.7997,-5.7997,-5.7997,-5.796,-5.7923,-5.7923,-5.7886,-5.7813,-5.7079,-5.6712,-5.6712,-5.5941,-5.5596,-5.55,-5.55,-5.506,-5.4326,-5.4246,-5.3381,-5.2042,-5.1994,-5.1128,-4.9919,-4.9919,-4.9551,-4.9018,-4.9018,-4.9018,-4.9018,-4.9018,-4.9018,-4.9018,-4.9018,-4.9018,-4.9018,-4.9018,-4.9018,-4.9018,-4.9018,-4.9018,-4.9018,-4.9018,-4.9018,-4.9018,-4.9018,-4.9018,-4.9018,-4.9018,-4.9018,-4.9018,-4.9018,-4.9018,-4.8511,-4.7022,-4.6786,-4.6752,-4.665,-4.6718,-4.7293,-4.868,-4.8951,-4.9018,-4.9018,-4.9018,-4.9018,-4.9018,-4.9018,-4.9256,-4.989,-5.0554,-5.1604,-5.3017,-5.3082,-5.3124,-5.3124,-5.3167,-5.3167,-5.3124,-5.3167,-5.3203,-5.3203,-5.3203,-5.3607,-5.4349,-5.4423,-5.447,-5.4486,-5.5292,-5.5203,-5.4665,-5.5408,-5.6204,-5.6912,-5.6964,-5.7425,-5.7997,-6.278,-6.278,-6.278,-6.278,-6.278,-6.267,-6.2401,-6.2365,-6.2254,-6.1924,-6.1447,-6.1153,-6.1153,-6.0419,-5.9942,-5.9942,-5.9648,-5.9281,-5.8804,-5.8767,-5.851,-5.8033,-5.7997,-5.7997,-5.7997,-5.7997,-5.7997,-5.7997,-5.7703,-5.7556,-5.7556,-5.7226,-5.6822,-5.6345,-5.6345,-5.5904,-5.5133,-5.5133,-5.425,-5.2858,-5.2858,-5.1972,-5.0635,-5.0174,-4.9833,-4.958,-4.9168,-4.9018,-4.9018,-4.9018,-4.9018,-4.9018,-4.9018,-4.9018,-4.9018,-4.9018,-4.9018,-4.9018,-4.9018,-4.9018,-4.9018,-4.9018,-4.9018,-4.9018,-4.9018,-4.9018,-4.9018,-4.9018,-4.9018,-4.9018,-4.9018,-4.9018,-4.8511,-4.7022,-4.7564,-4.7834,-4.6921,-4.7597,-4.8376,-4.8951,-4.9018,-4.9018,-4.9018,-4.9018,-4.9018,-4.9018,-4.9018,-4.9107,-4.9376,-5.0445,-5.1519,-5.2509,-5.2959,-5.3203,-5.3203,-5.3203,-5.3203,-5.3203,-5.3203,-5.3203,-5.3203,-5.3203,-5.3922,-5.5111,-5.4665,-5.5076,-5.5964,-5.5786,-5.5836,-5.6039,-5.6313,-5.6902,-5.757,-5.757,-5.775,-5.7997,-6.278,-6.278,-6.278,-6.278,-6.278,-6.278,-6.278,-6.278,-6.278,-6.278,-6.2328,-6.1998,-6.1998,-6.1263,-6.0786,-6.0786,-6.0566,-6.0162,-5.9588,-5.9588,-5.9134,-5.8033,-5.7997,-5.7997,-5.7997,-5.7997,-5.7997,-5.7997,-5.7997,-5.7997,-5.7997,-5.7997,-5.7703,-5.7189,-5.7189,-5.6748,-5.5978,-5.5978,-5.5204,-5.4034,-5.4034,-5.3291,-5.2106,-5.1334,-5.0767,-5.0322,-4.9594,-4.9199,-4.9018,-4.9018,-4.9018,-4.9018,-4.9018,-4.9018,-4.9018,-4.9018,-4.9018,-4.9018,-4.9018,-4.9018,-4.9018,-4.9018,-4.9018,-4.9018,-4.9018,-4.9018,-4.9018,-4.9018,-4.9018,-4.9018,-4.9018,-4.9018,-4.868,-4.7665,-4.8342,-4.8646,-4.7631,-4.8376,-4.9018,-4.9018,-4.9018,-4.9018,-4.9018,-4.9018,-4.9018,-4.9018,-4.9018,-4.9199,-4.9639,-5.0981,-5.197,-5.2427,-5.2937,-5.3203,-5.3203,-5.3203,-5.3203,-5.3203,-5.3203,-5.3203,-5.3203,-5.3203,-5.4069,-5.5574,-5.5083,-5.5643,-5.6861,-5.6313,-5.6259,-5.6501,-5.6501,-5.7015,-5.7655,-5.7655,-5.7797,-5.7997,-6.278,-6.278,-6.278,-6.278,-6.278,-6.278,-6.278,-6.278,-6.278,-6.278,-6.278,-6.278,-6.278,-6.2108,-6.1594,-6.1594,-6.0896,-6.0419,-6.0419,-6.0419,-5.9685,-5.807,-5.7997,-5.7997,-5.7997,-5.7997,-5.7997,-5.7997,-5.7997,-5.7997,-5.7997,-5.7997,-5.7997,-5.7997,-5.7997,-5.7556,-5.6822,-5.6822,-5.6345,-5.5633,-5.5633,-5.5199,-5.4507,-5.3616,-5.2491,-5.1194,-5.031,-4.958,-4.9018,-4.9018,-4.9018,-4.9018,-4.9018,-4.9018,-4.9018,-4.9018,-4.9018,-4.9018,-4.9018,-4.9018,-4.9018,-4.9018,-4.9018,-4.9018,-4.9018,-4.9018,-4.9018,-4.9018,-4.9018,-4.9018,-4.9018,-4.9018,-4.9018,-4.9018,-4.9018,-4.9018,-4.9018,-4.9018,-4.9018,-4.9018,-4.9018,-4.9018,-4.9018,-4.9018,-4.9018,-4.9018,-4.8984,-4.9639,-5.1034,-5.244,-5.3167,-5.3203,-5.3203,-5.3203,-5.3203,-5.3203,-5.3203,-5.3203,-5.3203,-5.3203,-5.3203,-5.3203,-5.4069,-5.5596,-5.5633,-5.6111,-5.6912,-5.6912,-5.6421,-5.5724,-5.5724,-5.6204,-5.6912,-5.6912,-5.7376,-5.7997,-6.278,-6.278,-6.278,-6.278,-6.278,-6.278,-6.278,-6.278,-6.278,-6.278,-6.278,-6.278,-6.278,-6.2585,-6.2438,-6.2438,-6.2218,-6.1851,-6.1263,-6.0713,-6.0199,-5.9722,-5.9134,-5.8584,-5.7997,-5.7997,-5.7997,-5.7997,-5.7997,-5.7997,-5.7997,-5.7997,-5.7997,-5.7997,-5.7997,-5.7886,-5.7629,-5.7629,-5.7189,-5.6455,-5.6455,-5.5976,-5.5208,-5.4496,-5.3972,-5.3476,-5.2129,-5.1227,-5.0518,-4.9946,-4.9424,-4.9018,-4.9018,-4.9018,-4.9018,-4.9018,-4.9018,-4.9018,-4.9018,-4.9018,-4.9018,-4.9018,-4.9018,-4.9018,-4.9018,-4.9018,-4.9018,-4.9018,-4.9018,-4.9018,-4.9018,-4.9018,-4.9018,-4.9018,-4.9018,-4.9018,-4.9018,-4.9018,-4.9018,-4.9018,-4.9018,-4.9018,-4.9018,-4.9018,-4.9229,-4.9664,-5.0174,-5.085,-5.1741,-5.2183,-5.268,-5.3167,-5.3203,-5.3203,-5.3203,-5.3203,-5.3203,-5.3203,-5.3203,-5.3203,-5.3203,-5.3775,-5.462,-5.5633,-5.6198,-5.6891,-5.7679,-5.7679,-5.7522,-5.7315,-5.7315,-5.7474,-5.7679,-5.7679,-5.7797,-5.7997,-6.278,-6.278,-6.278,-6.278,-6.278,-6.278,-6.278,-6.278,-6.278,-6.278,-6.278,-6.278,-6.278,-6.278,-6.278,-6.278,-6.278,-6.2585,-6.2108,-6.163,-6.1227,-6.0896,-6.0419,-5.9758,-5.8951,-5.8657,-5.8474,-5.8474,-5.8143,-5.7997,-5.7997,-5.7997,-5.7997,-5.7997,-5.7997,-5.7997,-5.7997,-5.7997,-5.7703,-5.7262,-5.7262,-5.6969,-5.6469,-5.5736,-5.5305,-5.4914,-5.37,-5.281,-5.2116,-5.1597,-5.0763,-4.9911,-4.9911,-4.9498,-4.9018,-4.9018,-4.9018,-4.9018,-4.9018,-4.9018,-4.9018,-4.9018,-4.9018,-4.9018,-4.9018,-4.9018,-4.9018,-4.9018,-4.9018,-4.9018,-4.9018,-4.9018,-4.9018,-4.9018,-4.9018,-4.9018,-4.9018,-4.9018,-4.9018,-4.9018,-4.9018,-4.9018,-4.9018,-4.9226,-4.9664,-5.0362,-5.1086,-5.1667,-5.2089,-5.2381,-5.2747,-5.3203,-5.3203,-5.3203,-5.3203,-5.3203,-5.3203,-5.3203,-5.3203,-5.3203,-5.3203,-5.4032,-5.484,-5.5647,-5.6455,-5.7262,-5.7997,-5.7997,-5.7997,-5.7997,-5.7997,-5.7997,-5.7997,-5.7997,-5.7997,-5.7997,-6.278,-6.278,-6.278,-6.278,-6.278,-6.278,-6.278,-6.278,-6.278,-6.278,-6.278,-6.278,-6.278,-6.278,-6.278,-6.278,-6.278,-6.278,-6.278,-6.278,-6.2475,-6.1741,-6.1704,-6.1374,-6.0639,-5.9735,-5.9294,-5.9294,-5.851,-5.8107,-5.8107,-5.8033,-5.7997,-5.7997,-5.7997,-5.7997,-5.7997,-5.7997,-5.7997,-5.7997,-5.7997,-5.7997,-5.7923,-5.7189,-5.6536,-5.5907,-5.511,-5.4348,-5.3682,-5.3531,-5.2607,-5.1517,-5.1517,-5.0484,-4.9311,-4.9311,-4.9215,-4.9086,-4.9086,-4.9052,-4.9018,-4.9018,-4.9018,-4.9018,-4.9018,-4.9018,-4.9018,-4.9018,-4.9018,-4.9018,-4.9018,-4.9018,-4.9018,-4.9018,-4.9018,-4.9018,-4.9018,-4.9018,-4.9018,-4.9018,-4.9018,-4.9018,-4.9018,-4.9664,-5.039,-5.1138,-5.1825,-5.2183,-5.2183,-5.285,-5.3203,-5.3203,-5.3203,-5.3203,-5.3203,-5.3203,-5.3203,-5.3203,-5.3203,-5.3261,-5.3335,-5.4142,-5.495,-5.5757,-5.6565,-5.7336,-5.7997,-5.7997,-5.7997,-5.7997,-5.7997,-5.7997,-5.7997,-5.7997,-5.7997,-5.7997,-6.278,-6.278,-6.278,-6.278,-6.278,-6.278,-6.278,-6.278,-6.278,-6.278,-6.278,-6.278,-6.278,-6.278,-6.278,-6.278,-6.278,-6.278,-6.278,-6.278,-6.2707,-6.2548,-6.2548,-6.2475,-6.2266,-6.086,-6.0162,-6.0162,-5.9355,-5.8927,-5.8927,-5.829,-5.7997,-5.7997,-5.7997,-5.7997,-5.7997,-5.7997,-5.7997,-5.7997,-5.7997,-5.7997,-5.796,-5.7813,-5.767,-5.741,-5.6681,-5.5923,-5.5122,-5.3931,-5.3281,-5.3039,-5.3039,-5.2402,-5.1662,-5.1662,-5.083,-4.9864,-4.9864,-4.9424,-4.9018,-4.9018,-4.9018,-4.9018,-4.9018,-4.9018,-4.9018,-4.9018,-4.9018,-4.9018,-4.9018,-4.9018,-4.9018,-4.9018,-4.9018,-4.9018,-4.9018,-4.9018,-4.9018,-4.9018,-4.9018,-4.9018,-4.9018,-5.0118,-5.1164,-5.1814,-5.2554,-5.2959,-5.2959,-5.3103,-5.3203,-5.3203,-5.3203,-5.3203,-5.3203,-5.3203,-5.3203,-5.3203,-5.3203,-5.3555,-5.4179,-5.495,-5.5794,-5.6602,-5.7373,-5.785,-5.7997,-5.7997,-5.7997,-5.7997,-5.7997,-5.7997,-5.7997,-5.7997,-5.7997,-5.7997,-6.278,-6.278,-6.278,-6.278,-6.278,-6.278,-6.278,-6.278,-6.278,-6.278,-6.278,-6.278,-6.278,-6.278,-6.278,-6.278,-6.278,-6.278,-6.278,-6.278,-6.278,-6.278,-6.278,-6.278,-6.278,-6.1998,-6.1374,-6.097,-6.0162,-5.9795,-5.9758,-5.8951,-5.8584,-5.8547,-5.818,-5.7997,-5.7997,-5.7997,-5.7997,-5.7997,-5.7997,-5.7997,-5.7997,-5.7997,-5.7997,-5.795,-5.7546,-5.7195,-5.6734,-5.5944,-5.5184,-5.4603,-5.4603,-5.3814,-5.2923,-5.2923,-5.2358,-5.1672,-5.1287,-5.0922,-5.0526,-5.0127,-4.9796,-4.9424,-4.9086,-4.9018,-4.9018,-4.9018,-4.9018,-4.9018,-4.9018,-4.9018,-4.9018,-4.9018,-4.9018,-4.9018,-4.9018,-4.9018,-4.9018,-4.9018,-4.9018,-4.9256,-4.9953,-5.0955,-5.1874,-5.2576,-5.298,-5.3203,-5.3203,-5.3203,-5.3203,-5.3203,-5.3203,-5.3203,-5.3203,-5.3203,-5.3203,-5.3203,-5.3203,-5.3628,-5.4436,-5.5207,-5.6051,-5.6859,-5.7666,-5.7997,-5.7997,-5.7997,-5.7997,-5.7997,-5.7997,-5.7997,-5.7997,-5.7997,-5.7997,-5.7997,-6.2941,-6.2917,-6.2929,-6.2805,-6.278,-6.278,-6.278,-6.278,-6.278,-6.278,-6.278,-6.278,-6.278,-6.278,-6.278,-6.278,-6.278,-6.278,-6.278,-6.278,-6.278,-6.278,-6.278,-6.278,-6.278,-6.278,-6.2475,-6.1814,-6.1006,-6.0603,-6.0603,-5.9795,-5.9331,-5.9148,-5.851,-5.8143,-5.7997,-5.7997,-5.7997,-5.7997,-5.7997,-5.7997,-5.7997,-5.7997,-5.7997,-5.7997,-5.7997,-5.7997,-5.7997,-5.7997,-5.718,-5.6187,-5.6187,-5.5205,-5.4082,-5.4082,-5.3895,-5.3545,-5.2962,-5.2654,-5.2409,-5.1595,-5.0932,-5.0289,-4.9557,-4.9187,-4.9018,-4.9018,-4.9018,-4.9018,-4.9018,-4.9018,-4.9018,-4.9018,-4.9018,-4.9018,-4.9018,-4.9018,-4.9018,-4.9018,-4.9107,-4.9722,-5.1138,-5.1765,-5.2404,-5.3124,-5.3203,-5.3203,-5.3203,-5.3203,-5.3203,-5.3203,-5.3203,-5.3203,-5.3203,-5.3314,-5.3408,-5.3408,-5.3555,-5.3959,-5.462,-5.5427,-5.6235,-5.7042,-5.7703,-5.7997,-5.7997,-5.7997,-5.7997,-5.7997,-5.7997,-5.7997,-5.7997,-5.7997,-5.7997,-5.7997,-6.3571,-6.3498,-6.334,-6.288,-6.278,-6.278,-6.278,-6.278,-6.278,-6.278,-6.278,-6.278,-6.278,-6.278,-6.278,-6.278,-6.278,-6.278,-6.278,-6.278,-6.278,-6.278,-6.278,-6.278,-6.278,-6.278,-6.2743,-6.2658,-6.1814,-6.1447,-6.141,-6.0603,-5.9869,-5.9184,-5.9074,-5.8657,-5.7997,-5.7997,-5.7997,-5.7997,-5.7997,-5.7997,-5.7997,-5.7997,-5.7997,-5.7997,-5.7997,-5.7997,-5.7997,-5.7997,-5.7877,-5.7697,-5.7697,-5.7121,-5.6459,-5.6459,-5.5526,-5.4434,-5.4323,-5.3836,-5.3175,-5.2438,-5.2161,-5.1882,-5.1072,-4.9932,-4.9018,-4.9018,-4.9018,-4.9018,-4.9018,-4.9018,-4.9018,-4.9018,-4.9018,-4.9018,-4.9018,-4.9018,-4.9018,-4.9018,-4.9521,-5.0417,-5.1814,-5.2065,-5.2404,-5.3124,-5.3203,-5.3203,-5.3203,-5.3203,-5.3203,-5.3203,-5.3203,-5.3203,-5.3203,-5.3885,-5.4252,-5.4252,-5.495,-5.5317,-5.5464,-5.6271,-5.7079,-5.785,-5.796,-5.7997,-5.7997,-5.7997,-5.7997,-5.7997,-5.7997,-5.7997,-5.7997,-5.7997,-5.7997,-5.7997,-6.4079,-6.4056,-6.3958,-6.3745,-6.3453,-6.3262,-6.3262,-6.299,-6.278,-6.278,-6.278,-6.278,-6.278,-6.278,-6.278,-6.278,-6.278,-6.278,-6.278,-6.278,-6.278,-6.278,-6.278,-6.278,-6.278,-6.278,-6.278,-6.278,-6.2438,-6.2291,-6.2254,-6.1447,-6.0896,-6.0529,-6.0089,-5.9428,-5.8694,-5.8694,-5.84,-5.7997,-5.7997,-5.7997,-5.7997,-5.7997,-5.7997,-5.7997,-5.7997,-5.7997,-5.7997,-5.7997,-5.7997,-5.7997,-5.7997,-5.7774,-5.7498,-5.7498,-5.7036,-5.6411,-5.5998,-5.5668,-5.5223,-5.4415,-5.3928,-5.3439,-5.2643,-5.1634,-5.0758,-5.0331,-5.0236,-5.0236,-5.0236,-4.9898,-4.9593,-4.9593,-4.9255,-4.9138,-4.9521,-4.958,-4.9693,-5.0118,-5.077,-5.1444,-5.2042,-5.245,-5.2872,-5.3203,-5.3203,-5.3203,-5.3203,-5.3203,-5.3203,-5.3203,-5.3203,-5.3445,-5.3885,-5.4216,-5.462,-5.506,-5.5904,-5.6271,-5.6271,-5.6638,-5.7262,-5.7997,-5.7997,-5.7997,-5.7997,-5.7997,-5.7997,-5.7997,-5.7997,-5.7997,-5.7997,-5.7997,-5.7997,-5.7997]},{"header":{"parameterUnit":"m.s-1","parameterCategory":1,"la1":30.6,"la2":28.766,"lo1":-90.7593,"lo2":-88.6598,"dy":0.0162,"dx":0.0183,"nx":116,"ny":114,"refTime":"2023-11-16T06:00:00:Z","depth":0,"parameterNumber":3,"parameterNumberName":"V-component_of_WINDS"},"data":[0.0,0.0,0.0,0.0,0.0,0.0,0.0,0.0,0.0,0.0,0.0,0.0,0.0,0.0,0.0,0.0,0.0,0.0,0.0,0.0,0.0,0.0,0.0,0.0,0.0,0.0,0.0,0.0,0.0,0.0,0.0,0.0,0.0,0.0,0.0,0.0,0.0,0.0,0.0,0.0,0.0,0.0,0.0,0.0,0.0,0.0,0.0,0.0,0.0,0.0,0.0,0.0,0.0,0.0,0.0,0.0,0.0,0.0,0.0,0.0,0.0,0.0,0.0,0.0,0.0,0.0,0.0,0.0,0.0,0.0,0.0,0.0,0.0,0.0,0.0,0.0,0.0,0.0,0.0,0.0,0.0,0.0,0.0,0.0,0.0,0.0,0.0,0.0,0.0,0.0,0.0,0.0,0.0,0.0,0.0,0.0,0.0,0.0,0.0,0.0,0.0,0.0,0.0,0.0,0.0,0.0,0.0,0.0,0.0,0.0,0.0,0.0,0.0,0.0,0.0,0.0,0.0,0.0,0.0,0.0,0.0,0.0,0.0,0.0,0.0,0.0,0.0,0.0,0.0,0.0,0.0,0.0,0.0,0.0,0.0,0.0,0.0,0.0,0.0,0.0,0.0,0.0,0.0,0.0,0.0,0.0,0.0,0.0,0.0,0.0,0.0,0.0,0.0,0.0,0.0,0.0,0.0,0.0,0.0,0.0,0.0,0.0,0.0,0.0,0.0,0.0,0.0,0.0,0.0,0.0,0.0,0.0,0.0,0.0,0.0,0.0,0.0,0.0,0.0,0.0,0.0,0.0,0.0,0.0,0.0,0.0,0.0,0.0,0.0,0.0,0.0,0.0,0.0,0.0,0.0,0.0,0.0,0.0,0.0,0.0,0.0,0.0,0.0,0.0,0.0,0.0,0.0,0.0,0.0,0.0,0.0,0.0,0.0,0.0,0.0,0.0,0.0,0.0,0.0,0.0,0.0,0.0,0.0,0.0,0.0,0.0,0.0,0.0,0.0,0.0,0.0,0.0,0.0,0.0,0.0,0.0,0.0,0.0,0.0,0.0,0.0,0.0,0.0,0.0,0.0,0.0,0.0,0.0,0.0,0.0,0.0,0.0,0.0,0.0,0.0,0.0,0.0,0.0,0.0,0.0,0.0,0.0,0.0,0.0,0.0,0.0,0.0,0.0,0.0,0.0,0.0,0.0,0.0,0.0,0.0,0.0,0.0,0.0,0.0,0.0,0.0,0.0,0.0,0.0,0.0,0.0,0.0,0.0,0.0,0.0,0.0,0.0,0.0,0.0,0.0,0.0,0.0,0.0,0.0,0.0,0.0,0.0,0.0,0.0,0.0,0.0,0.0,0.0,0.0,0.0,0.0,0.0,0.0,0.0,0.0,0.0,0.0,0.0,0.0,0.0,0.0,0.0,0.0,0.0,0.0,0.0,0.0,0.0,0.0,0.0,0.0,0.0,0.0,0.0,0.0,0.0,0.0,0.0,0.0,0.0,0.0,0.0,0.0,0.0,0.0,0.0,0.0,0.0,0.0,0.0,0.0,0.0,0.0,0.0,0.0,0.0,0.0,0.0,0.0,0.0,0.0,0.0,0.0,0.0,0.0,0.0,0.0,0.0,0.0,0.0,0.0,0.0,0.0,0.0,0.0,0.0,0.0,0.0,0.0,0.0,0.0,0.0,0.0,0.0,0.0,0.0,0.0,0.0,0.0,0.0,0.0,0.0,0.0,0.0,0.0,0.0,0.0,0.0,0.0,0.0,0.0,0.0,0.0,0.0,0.0,0.0,0.0,0.0,0.0,0.0,0.0,0.0,0.0,0.0,0.0,0.0,0.0,0.0,0.0,0.0,0.0,0.0,0.0,0.0,0.0,0.0,0.0,0.0,0.0,0.0,0.0,0.0,0.0,0.0,0.0,0.0,0.0,0.0,0.0,0.0,0.0,0.0,0.0,0.0,0.0,0.0,0.0,0.0,0.0,0.0,0.0,0.0,0.0,0.0,0.0,0.0,0.0,0.0,0.0,0.0,0.0,0.0,0.0,0.0,0.0,0.0,0.0,0.0,0.0,0.0,0.0,0.0,0.0,0.0,0.0,0.0,0.0,0.0,0.0,0.0,0.0,0.0,0.0,0.0,0.0,0.0,0.0,0.0,0.0,0.0,0.0,0.0,0.0,0.0,0.0,0.0,0.0,0.0,0.0,0.0,0.0,0.0,0.0,0.0,0.0,0.0,0.0,0.0,0.0,0.0,0.0,0.0,0.0,0.0,0.0,0.0,0.0,0.0,0.0,0.0,0.0,0.0,0.0,0.0,0.0,0.0,0.0,0.0,0.0,0.0,0.0,0.0,0.0,0.0,0.0,0.0,0.0,0.0,0.0,0.0,0.0,0.0,0.0,0.0,0.0,0.0,0.0,0.0,0.0,0.0,0.0,0.0,0.0,0.0,0.0,0.0,0.0,0.0,0.0,0.0,0.0,0.0,0.0,0.0,0.0,0.0,0.0,0.0,0.0,0.0,0.0,0.0,0.0,0.0,0.0,0.0,0.0,0.0,0.0,0.0,0.0,0.0,0.0,0.0,0.0,0.0,0.0,0.0,0.0,0.0,0.0,0.0,0.0,0.0,0.0,0.0,0.0,0.0,0.0,0.0,0.0,0.0,0.0,0.0,0.0,0.0,0.0,0.0,0.0,0.0,0.0,0.0,0.0,0.0,0.0,0.0,0.0,0.0,0.0,0.0,0.0,0.0,0.0,0.0,0.0,0.0,0.0,0.0,0.0,0.0,0.0,0.0,0.0,0.0,0.0,0.0,0.0,0.0,0.0,0.0,0.0,0.0,0.0,0.0,0.0,0.0,0.0,0.0,0.0,0.0,0.0,0.0,0.0,0.0,0.0,0.0,0.0,0.0,0.0,0.0,0.0,0.0,0.0,0.0,0.0,0.0,0.0,0.0,0.0,0.0,0.0,0.0,0.0,0.0,0.0,0.0,0.0,0.0,0.0,0.0,0.0,0.0,0.0,0.0,0.0,0.0,0.0,0.0,0.0,0.0,0.0,0.0,0.0,0.0,0.0,0.0,0.0,0.0,0.0,0.0,0.0,0.0,0.0,0.0,0.0,0.0,0.0,0.0,0.0,0.0,0.0,0.0,0.0,0.0,0.0,0.0,0.0,0.0,0.0,0.0,0.0,0.0,0.0,0.0,0.0,0.0,0.0,0.0,0.0,0.0,0.0,0.0,0.0,0.0,0.0,0.0,0.0,0.0,0.0,0.0,0.0,0.0,0.0,0.0,0.0,0.0,0.0,0.0,0.0,0.0,0.0,0.0,0.0,0.0,0.0,0.0,0.0,0.0,0.0,0.0,0.0,0.0,0.0,0.0,0.0,0.0,0.0,0.0,0.0,0.0,0.0,0.0,0.0,0.0,0.0,0.0,0.0,0.0,0.0,0.0,0.0,0.0,0.0,0.0,0.0,0.0,0.0,0.0,0.0,0.0,0.0,0.0,0.0,0.0,0.0,0.0,0.0,0.0,0.0,0.0,0.0,0.0,0.0,0.0,0.0,0.0,0.0,0.0,0.0,0.0,0.0,0.0,0.0,0.0,0.0,0.0,0.0,0.0,0.0,0.0,0.0,0.0,0.0,0.0,0.0,0.0,0.0,0.0,0.0,0.0,0.0,0.0,0.0,0.0,0.0,0.0,0.0,0.0,0.0,0.0,0.0,0.0,0.0,0.0,0.0,0.0,0.0,0.0,0.0,0.0,0.0,0.0,0.0,0.0,0.0,0.0,0.0,0.0,0.0,0.0,0.0,0.0,0.0,0.0,0.0,0.0,0.0,0.0,0.0,0.0,0.0,0.0,0.0,0.0,0.0,0.0,0.0,0.0,0.0,0.0,0.0,0.0,0.0,0.0,0.0,0.0,0.0,0.0,0.0,0.0,0.0,0.0,0.0,0.0,0.0,0.0,0.0,0.0,0.0,0.0,0.0,0.0,0.0,0.0,0.0,0.0,0.0,0.0,0.0,0.0,0.0,0.0,0.0,0.0,0.0,0.0,0.0,0.0,0.0,0.0,0.0,0.0,0.0,0.0,0.0,0.0,0.0,0.0,0.0,0.0,0.0,0.0,0.0,0.0,0.0,0.0,0.0,0.0,0.0,0.0,0.0,0.0,0.0,0.0,0.0,0.0,0.0,0.0,0.0,0.0,0.0,0.0,0.0,0.0,0.0,0.0,0.0,0.0,0.0,0.0,0.0,0.0,0.0,0.0,0.0,0.0,0.0,0.0,0.0,0.0,0.0,0.0,0.0,0.0,0.0,0.0,0.0,0.0,0.0,0.0,0.0,0.0,0.0,0.0,0.0,0.0,0.0,0.0,0.0,0.0,0.0,0.0,0.0,0.0,0.0,0.0,0.0,0.0,0.0,0.0,0.0,0.0,0.0,0.0,0.0,0.0,0.0,0.0,0.0,0.0,0.0,0.0,0.0,0.0,0.0,0.0,0.0,0.0,0.0,0.0,0.0,0.0,0.0,0.0,0.0,0.0,0.0,0.0,0.0,0.0,0.0,0.0,0.0,0.0,0.0,0.0,0.0,0.0,0.0,0.0,0.0,0.0,0.0,0.0,0.0,0.0,0.0,0.0,0.0,0.0,0.0,0.0,0.0,0.0,0.0,0.0,0.0,0.0,0.0,0.0,0.0,0.0,0.0,0.0,0.0,0.0,0.0,0.0,0.0,0.0,0.0,0.0,0.0,0.0,0.0,0.0,0.0,0.0,0.0,0.0,0.0,0.0,0.0,0.0,0.0,0.0,0.0,0.0,0.0,0.0,0.0,0.0,0.0,0.0,0.0,0.0,0.0,0.0,0.0,0.0,0.0,0.0,0.0,0.0,0.0,0.0,0.0,0.0,0.0,0.0,0.0,0.0,0.0,0.0,0.0,0.0,0.0,0.0,0.0,0.0,0.0,0.0,0.0,0.0,0.0,0.0,0.0,0.0,0.0,0.0,0.0,0.0,0.0,0.0,0.0,0.0,0.0,0.0,0.0,0.0,0.0,0.0,0.0,0.0,0.0,0.0,0.0,0.0,0.0,0.0,0.0,0.0,0.0,0.0,0.0,0.0,0.0,0.0,0.0,0.0,0.0,0.0,0.0,0.0,0.0,0.0,0.0,0.0,0.0,0.0,0.0,0.0,0.0,0.0,0.0,0.0,0.0,0.0,0.0,0.0,0.0,0.0,0.0,0.0,0.0,0.0,0.0,0.0,0.0,0.0,0.0,0.0,0.0,0.0,0.0,0.0,0.0,0.0,0.0,0.0,0.0,0.0,0.0,0.0,0.0,0.0,0.0,0.0,0.0,0.0,0.0,0.0,0.0,0.0,0.0,0.0,0.0,0.0,0.0,0.0,0.0,0.0,0.0,0.0,0.0,0.0,0.0,0.0,0.0,0.0,0.0,0.0,0.0,0.0,0.0,0.0,0.0,0.0,0.0,0.0,0.0,0.0,0.0,0.0,0.0,0.0,0.0,0.0,0.0,0.0,0.0,0.0,0.0,0.0,0.0,0.0,0.0,0.0,0.0,0.0,0.0,0.0,0.0,0.0,0.0,0.0,0.0,0.0,0.0,0.0,0.0,0.0,0.0,0.0,0.0,0.0,0.0,0.0,0.0,0.0,0.0,0.0,0.0,0.0,0.0,0.0,0.0,0.0,0.0,0.0,0.0,0.0,0.0,0.0,0.0,0.0,0.0,0.0,0.0,0.0,0.0,0.0,0.0,0.0,0.0,0.0,0.0,0.0,0.0,0.0,0.0,0.0,0.0,0.0,0.0,0.0,0.0,0.0,0.0,0.0,0.0,0.0,0.0,0.0,0.0,0.0,0.0,0.0,0.0,0.0,0.0,0.0,0.0,0.0,0.0,0.0,0.0,0.0,0.0,0.0,0.0,0.0,0.0,0.0,0.0,0.0,0.0,0.0,0.0,0.0,0.0,0.0,0.0,0.0,0.0,0.0,0.0,0.0,0.0,0.0,0.0,0.0,0.0,0.0,0.0,0.0,0.0,0.0,0.0,0.0,0.0,0.0,0.0,0.0,0.0,0.0,0.0,0.0,0.0,0.0,1.9635,1.8204,0.0,0.0,0.0,0.0,0.0,0.0,0.0,0.0,0.0,0.0,0.0,0.0,0.0,0.0,0.0,0.0,0.0,0.0,0.0,0.0,0.0,0.0,0.0,0.0,0.0,0.0,0.0,0.0,0.0,0.0,0.0,0.0,0.0,0.0,0.0,0.0,0.0,2.3721,2.3862,2.4506,2.5586,2.5435,2.506,2.458,0.0,0.0,0.0,0.0,0.0,0.0,0.0,0.0,0.0,0.0,0.0,0.0,0.0,0.0,0.0,0.0,0.0,0.0,0.0,0.0,0.0,0.0,0.0,0.0,0.0,0.0,0.0,0.0,0.0,0.0,0.0,0.0,0.0,0.0,0.0,0.0,0.0,0.0,0.0,0.0,0.0,0.0,0.0,0.0,0.0,0.0,0.0,0.0,0.0,0.0,0.0,0.0,0.0,0.0,0.0,0.0,0.0,0.0,0.0,0.0,0.0,0.0,0.0,0.0,0.0,0.0,0.0,0.0,0.0,0.0,2.0177,1.9535,0.0,0.0,0.0,0.0,0.0,0.0,0.0,0.0,0.0,0.0,0.0,0.0,0.0,0.0,0.0,0.0,0.0,0.0,0.0,0.0,0.0,0.0,0.0,2.3215,2.3305,2.3305,2.3518,2.3636,0.0,0.0,0.0,0.0,0.0,0.0,0.0,2.375,2.3857,2.3396,2.4725,2.5862,2.6776,2.6776,2.6264,2.5368,2.5658,0.0,0.0,0.0,0.0,0.0,0.0,0.0,0.0,0.0,0.0,0.0,0.0,0.0,0.0,0.0,0.0,0.0,0.0,0.0,0.0,0.0,0.0,0.0,0.0,0.0,0.0,0.0,0.0,0.0,0.0,0.0,0.0,0.0,0.0,0.0,0.0,0.0,0.0,0.0,0.0,0.0,0.0,0.0,0.0,0.0,0.0,0.0,0.0,0.0,0.0,0.0,0.0,0.0,0.0,0.0,0.0,0.0,0.0,0.0,0.0,0.0,0.0,0.0,2.2145,2.1806,2.0373,2.0373,2.0421,2.0484,2.0677,2.1089,2.1493,1.9506,0.0,0.0,0.0,0.0,0.0,0.0,0.0,0.0,0.0,0.0,0.0,0.0,0.0,0.0,0.0,0.0,0.0,0.0,0.0,0.0,0.0,2.3721,2.416,2.4134,2.5301,2.5797,2.5134,0.0,0.0,0.0,0.0,0.0,2.3095,2.3185,2.3694,2.4575,2.6666,2.7745,2.7896,2.7896,2.7821,2.7656,2.7416,2.6349,2.4868,0.0,0.0,0.0,0.0,0.0,0.0,0.0,0.0,0.0,0.0,0.0,0.0,0.0,0.0,0.0,0.0,0.0,0.0,0.0,0.0,0.0,0.0,0.0,0.0,0.0,0.0,0.0,0.0,0.0,0.0,0.0,0.0,0.0,0.0,0.0,0.0,0.0,0.0,0.0,0.0,0.0,2.3296,2.4424,0.0,0.0,0.0,0.0,0.0,0.0,0.0,0.0,0.0,0.0,0.0,0.0,0.0,2.3673,2.3899,2.4255,2.4434,2.4413,2.5409,2.5291,2.4249,2.4249,2.356,2.2283,2.1374,0.0,2.2113,2.1069,0.0,0.0,0.0,0.0,0.0,0.0,0.0,0.0,0.0,0.0,0.0,0.0,0.0,0.0,0.0,0.0,0.0,0.0,0.0,0.0,0.0,2.4833,2.5797,2.5409,2.7014,2.7622,2.6549,2.6863,0.0,0.0,0.0,2.4397,2.3125,2.4131,2.5333,2.6666,2.7645,2.8423,2.9051,2.9051,2.9051,2.9064,2.8893,2.7697,2.587,2.7674,0.0,0.0,0.0,0.0,0.0,0.0,0.0,0.0,0.0,0.0,0.0,0.0,0.0,0.0,0.0,0.0,0.0,0.0,0.0,0.0,0.0,0.0,0.0,0.0,0.0,0.0,0.0,0.0,0.0,0.0,0.0,0.0,0.0,0.0,0.0,0.0,0.0,0.0,0.0,2.3346,2.4474,2.5611,2.5209,2.46,0.0,0.0,0.0,0.0,0.0,0.0,0.0,0.0,0.0,2.522,2.4735,2.4469,2.4539,2.4699,2.4558,2.4028,2.4484,2.418,2.3264,2.3264,2.3174,2.3015,2.251,2.2523,2.2731,2.1183,2.0214,1.955,0.0,0.0,0.0,0.0,1.5512,1.5406,0.0,0.0,0.0,0.0,0.0,0.0,0.0,0.0,0.0,0.0,0.0,0.0,2.4197,2.6519,2.7861,2.7318,2.8879,2.9304,2.7995,2.8225,2.7258,2.4706,2.5467,2.505,2.3125,2.5024,2.6719,2.8097,2.8398,2.8976,2.9804,2.9804,2.9804,2.9804,2.9804,2.8699,2.6971,2.8259,2.8311,2.7533,0.0,0.0,0.0,0.0,0.0,0.0,0.0,0.0,0.0,0.0,0.0,0.0,0.0,0.0,0.0,0.0,0.0,0.0,0.0,0.0,0.0,0.0,0.0,0.0,0.0,0.0,0.0,0.0,0.0,0.0,0.0,0.0,0.0,0.0,0.0,0.0,0.0,2.4531,2.5661,2.6776,2.6414,2.5988,0.0,0.0,0.0,0.0,0.0,0.0,2.6456,2.5581,2.529,2.5797,2.5294,2.4989,2.5004,2.4893,2.4434,2.3682,2.3682,2.3182,2.2267,2.2267,2.2493,2.294,2.294,2.2945,2.2816,2.1298,2.024,1.9569,1.8754,1.7688,1.6555,1.6191,1.6074,1.6174,0.0,0.0,0.0,0.0,0.0,0.0,0.0,0.0,0.0,0.0,0.0,2.6351,2.7039,2.8991,3.0242,3.0212,3.0925,3.0857,2.9573,2.8789,2.7512,2.5411,2.4738,2.3989,2.3125,2.5325,2.7012,2.8097,2.9176,2.9729,2.9804,2.9804,2.9804,2.9804,2.9804,2.9126,2.8058,2.887,2.906,2.884,2.8306,0.0,0.0,0.0,0.0,0.0,0.0,0.0,0.0,0.0,0.0,0.0,0.0,0.0,0.0,0.0,0.0,0.0,0.0,0.0,0.0,0.0,0.0,0.0,0.0,0.0,0.0,0.0,0.0,0.0,0.0,0.0,0.0,0.0,0.0,0.0,0.0,0.0,0.0,2.7896,2.8925,0.0,0.0,0.0,0.0,2.6449,2.4672,2.4485,2.6405,2.4659,2.4505,2.6367,2.5878,2.5552,2.5556,2.5049,2.4787,2.4709,2.4709,2.4198,2.3241,2.3241,2.2757,2.1958,2.1958,2.1979,2.1984,2.1927,2.1387,2.0386,1.8694,1.7983,1.791,1.7891,1.7871,1.7988,0.0,0.0,0.0,0.0,0.0,0.0,0.0,0.0,2.4076,2.4624,2.6405,2.7534,2.7329,3.0332,3.2191,3.1729,3.3142,3.3514,3.2198,3.104,2.9261,2.6716,2.5572,2.511,2.5267,2.6741,2.8072,2.9202,2.9603,2.9804,2.9804,2.9804,2.9804,2.9804,2.9804,2.9553,2.924,2.9479,2.9388,2.9167,2.9536,2.8993,0.0,0.0,0.0,0.0,0.0,0.0,0.0,0.0,0.0,0.0,0.0,0.0,0.0,0.0,0.0,0.0,0.0,0.0,0.0,0.0,0.0,0.0,0.0,0.0,0.0,0.0,0.0,0.0,0.0,0.0,0.0,0.0,0.0,0.0,0.0,0.0,0.0,2.7971,2.8473,0.0,2.8147,2.7508,2.7188,2.7509,2.6873,2.6745,2.7498,2.6867,2.612,2.542,2.5206,2.4745,2.4028,2.3821,2.3697,2.3697,2.3697,2.3529,2.3168,2.3168,2.3018,2.2652,2.2652,2.2539,2.2308,2.2305,2.199,2.135,2.0427,2.004,2.0021,1.9766,1.9648,1.9744,0.0,0.0,0.0,0.0,0.0,0.0,0.0,0.0,2.4729,2.5936,2.7826,2.9145,2.937,3.225,3.3955,3.348,3.4723,3.4741,3.2946,3.1989,3.0075,2.6801,2.5722,2.5782,2.7002,2.7745,2.875,3.008,3.008,3.0156,3.0331,3.0331,3.0331,3.0331,3.0156,3.008,3.0055,2.988,3.0019,3.0334,3.0177,2.9323,2.8212,0.0,0.0,0.0,0.0,0.0,0.0,0.0,0.0,0.0,0.0,0.0,0.0,0.0,0.0,0.0,0.0,0.0,0.0,0.0,0.0,0.0,0.0,0.0,0.0,0.0,0.0,0.0,0.0,0.0,0.0,0.0,0.0,0.0,0.0,2.6314,2.7293,2.8021,2.8448,2.8674,2.8674,2.8011,2.7721,2.8062,2.7743,2.74,2.7012,2.6603,2.5734,2.4253,2.4211,2.3887,2.3101,2.3101,2.3101,2.3101,2.3101,2.3101,2.3101,2.3101,2.3101,2.3101,2.3101,2.2945,2.2672,2.2672,2.2559,2.2246,2.168,2.1465,2.1426,2.1113,2.1055,2.1055,0.0,0.0,0.0,0.0,0.0,0.0,0.0,2.4823,2.56,2.9114,3.0074,3.1215,3.3274,3.4711,3.5519,3.5519,3.5519,3.4351,3.1721,3.1482,2.9694,2.5633,2.5127,2.5937,2.8072,2.8172,2.9001,3.0633,3.0633,3.0909,3.1386,3.1386,3.1386,3.1361,3.0859,3.0633,3.0608,3.0055,3.0872,3.2396,3.0202,2.9738,3.0212,0.0,0.0,0.0,0.0,0.0,0.0,0.0,0.0,0.0,0.0,0.0,0.0,0.0,0.0,0.0,0.0,0.0,0.0,0.0,0.0,0.0,0.0,0.0,0.0,0.0,0.0,0.0,0.0,0.0,0.0,0.0,0.0,0.0,2.6399,2.7419,2.8122,2.8147,2.9126,2.9804,2.9804,2.974,2.9248,2.8187,2.7098,2.6008,2.4914,2.3797,2.3184,2.314,2.314,2.314,2.314,2.314,2.314,2.314,2.312,2.312,2.312,2.3101,2.3101,2.3101,2.3101,2.3101,2.3101,2.3101,2.3101,2.3023,2.2246,2.1934,2.1934,2.1934,2.1934,2.1934,0.0,0.0,0.0,0.0,0.0,0.0,2.6095,2.6041,2.6575,2.8475,3.0189,3.1783,3.3334,3.4711,3.5519,3.5519,3.5519,3.4547,3.2301,3.1753,3.0017,2.6708,2.7615,2.8366,2.8674,2.9503,3.0331,3.1185,3.1185,3.126,3.1386,3.1386,3.1386,3.1386,3.1235,3.1185,3.1135,3.0608,3.1074,3.2134,3.1821,3.0895,2.9841,0.0,0.0,0.0,0.0,0.0,0.0,0.0,0.0,0.0,0.0,0.0,0.0,0.0,0.0,0.0,0.0,0.0,0.0,0.0,0.0,0.0,0.0,0.0,0.0,0.0,0.0,0.0,0.0,0.0,0.0,0.0,2.6691,2.7318,2.762,2.7921,2.8423,2.9227,2.9603,2.9804,2.9804,2.8331,2.7749,2.8549,2.6788,2.572,2.575,2.5437,2.4901,2.4062,2.4017,2.4017,2.4017,2.4017,2.4017,2.4062,2.375,2.3613,2.3594,2.3237,2.3101,2.3101,2.3101,2.3101,2.3101,2.3101,2.3101,2.3081,2.2847,2.275,2.275,2.275,2.275,2.275,0.0,0.0,0.0,0.0,0.0,0.0,2.6416,2.6496,2.7267,2.9431,3.0774,3.2228,3.4143,3.504,3.5519,3.5519,3.4981,3.3926,3.2131,3.0512,2.928,2.8546,2.8984,2.9369,2.9628,3.0482,3.121,3.1738,3.1738,3.1863,3.2089,3.2089,3.2089,3.2089,3.1838,3.1738,3.1712,3.116,3.1508,3.2393,3.2347,3.1487,3.0221,3.1132,3.0183,2.8524,2.9659,2.9223,2.8061,2.8081,0.0,0.0,0.0,0.0,0.0,0.0,0.0,0.0,0.0,0.0,0.0,0.0,0.0,0.0,0.0,0.0,0.0,0.0,0.0,0.0,0.0,0.0,0.0,0.0,2.7394,2.8273,2.875,2.8825,2.9051,2.9704,3.0005,2.9934,2.941,2.8427,2.7748,2.7705,2.6432,2.5609,2.5381,2.5401,2.5083,2.4414,2.4414,2.4414,2.4414,2.4414,2.4414,2.4414,2.418,2.4043,2.4043,2.3613,2.3418,2.3398,2.3179,2.3101,2.3101,2.3101,2.3101,2.3101,0.0,0.0,0.0,0.0,2.3101,2.3101,0.0,0.0,0.0,0.0,0.0,0.0,2.6602,2.6602,2.7827,3.1066,3.1511,3.2527,3.522,3.5519,3.5519,3.5519,3.4262,3.2946,3.16,2.9053,2.8529,3.0596,2.9865,2.9859,3.0758,3.126,3.1763,3.2315,3.2315,3.2566,3.3111,3.3111,3.3111,3.3086,3.2541,3.2315,3.2265,3.1712,3.2111,3.3027,3.2381,3.1792,3.1237,3.0815,3.0129,2.9481,3.002,2.9704,2.8872,2.8073,0.0,0.0,0.0,0.0,0.0,0.0,0.0,0.0,0.0,0.0,0.0,0.0,0.0,0.0,0.0,0.0,0.0,0.0,0.0,0.0,0.0,0.0,0.0,0.0,2.762,2.875,2.9754,2.993,2.9955,2.9905,3.0357,3.0258,2.9193,2.9266,2.8568,2.6525,2.6142,2.5594,2.4617,2.457,0.0,0.0,0.0,2.457,2.457,2.457,2.457,2.457,2.4512,2.4492,2.4473,2.4043,2.3828,2.3769,2.3379,2.314,2.3101,2.3101,2.3101,2.3101,2.3101,2.3101,2.3101,2.3101,2.3101,2.3101,0.0,0.0,0.0,0.0,0.0,0.0,2.7382,2.7382,2.8386,3.1123,3.1511,3.2527,3.522,3.5519,3.5519,3.5519,3.4262,3.2946,3.16,3.1417,3.1371,3.1316,3.21,3.2326,3.193,3.2014,3.234,3.2918,3.2918,3.3011,3.3111,3.3111,3.3111,3.3111,3.3011,3.2918,3.2867,3.229,3.2675,3.3582,3.3027,3.2934,3.296,3.1594,3.1451,3.1833,3.1199,3.0868,3.0529,2.9495,2.8611,2.7835,2.681,2.5711,0.0,0.0,0.0,0.0,0.0,0.0,0.0,0.0,0.0,0.0,0.0,0.0,0.0,0.0,0.0,0.0,0.0,0.0,0.0,2.7745,2.9101,3.0206,3.0432,3.0809,3.0934,3.0507,3.0909,3.1154,3.0925,2.9287,2.8184,2.8099,2.6346,2.5334,2.5469,2.544,2.544,2.544,2.544,2.544,2.544,2.544,2.544,2.5421,2.5117,0.0,2.4969,2.4492,2.4102,2.3789,2.3691,2.3457,2.3101,2.3101,2.3101,2.3101,2.3101,2.3101,2.3101,2.3101,2.3101,2.3101,0.0,0.0,0.0,0.0,0.0,0.0,2.7585,2.7585,2.8304,3.0283,3.0552,3.13,3.3274,3.3484,3.3484,3.3484,3.2886,3.1841,3.0328,3.1009,3.1561,3.1738,3.2163,3.2356,3.219,3.2491,3.2792,3.3111,3.3111,3.3111,3.3111,3.3111,3.3111,3.3111,3.3111,3.3111,3.3068,3.2767,3.3264,3.4149,3.3057,3.2896,3.3246,3.2624,3.2181,3.1865,3.1352,3.0895,3.0392,2.9825,2.9337,2.885,2.8334,2.7369,2.6364,0.0,0.0,0.0,0.0,0.0,0.0,0.0,0.0,0.0,0.0,0.0,0.0,0.0,0.0,2.6499,2.6499,0.0,2.8197,2.8473,2.9704,3.0708,3.0959,3.1461,3.1612,3.106,3.0943,3.0652,3.0058,2.8611,2.7567,2.7175,2.6039,2.5508,2.5674,2.5693,2.5693,2.5693,2.5693,2.5693,2.5693,2.5693,2.5693,2.5693,2.5508,2.541,2.5391,2.4941,2.4629,2.446,2.3984,2.3672,2.3437,2.3179,2.3101,2.3101,2.3101,2.3101,2.3101,2.3101,2.3101,2.3101,0.0,0.0,0.0,0.0,0.0,0.0,0.0,2.7585,2.8094,2.9442,2.9621,3.0073,3.1361,3.1511,3.1391,3.1152,3.16,3.119,2.9594,3.0783,3.1847,3.2525,3.2189,3.2128,3.2482,3.2895,3.3111,3.3111,3.3111,3.3111,3.3111,3.3111,3.3111,3.3111,3.3111,3.3111,3.3111,3.3111,3.3725,3.4583,3.3101,3.2699,3.3038,3.3234,3.2562,3.1426,3.1044,3.0566,2.9985,2.9858,2.9654,2.9503,2.9729,2.9026,2.7921,2.7077,2.665,0.0,0.0,0.0,0.0,0.0,0.0,0.0,0.0,2.6826,2.6876,2.7102,2.7153,2.7153,2.7153,2.7921,2.875,2.9139,3.0206,3.106,3.1486,3.2039,3.2215,3.1763,3.1265,3.0561,2.9571,2.8761,2.7767,2.6524,2.6187,2.5965,2.5693,2.5693,2.5693,2.5693,2.5693,2.5693,2.5693,2.5693,2.5693,2.5693,2.5693,2.5693,2.5674,2.5371,2.5156,2.5067,2.4238,2.3867,2.3769,2.3418,2.3179,2.3101,2.3101,2.3101,2.3101,2.3101,2.3101,2.3101,0.0,0.0,0.0,0.0,0.0,0.0,0.0,0.0,2.8094,2.9442,2.9621,3.0073,3.1361,3.1511,3.1032,2.9894,3.1928,3.2676,3.1308,3.3532,3.4852,3.4576,3.4187,3.3865,3.3564,3.3275,3.3111,3.3111,3.3111,3.3111,3.3111,3.3111,3.3111,3.3111,3.3111,3.3111,3.3111,3.3111,3.3725,3.4665,3.3936,3.3357,3.296,3.2532,3.2378,3.2227,3.057,3.0341,3.0774,3.001,2.9126,2.8473,2.9478,2.9026,2.8072,2.7971,2.7253,2.6248,2.5134,2.4876,2.5008,2.5008,2.5661,2.66,0.0,2.7921,2.8197,2.9202,2.9428,2.9428,2.9428,2.993,3.0357,3.0407,3.1336,3.2064,3.2114,3.2616,3.3011,3.2893,3.2857,3.2753,3.2624,3.1509,3.0305,2.9096,2.8002,2.6887,2.5791,2.5693,2.5693,2.5693,2.5693,2.5693,2.5693,2.5693,2.5693,2.5693,2.5693,2.5693,2.5693,2.5635,2.5449,2.5086,2.4551,2.4141,2.3789,2.373,2.3496,2.3101,2.3101,2.3101,2.3101,2.3101,2.3101,2.3101,0.0,0.0,0.0,0.0,0.0,0.0,0.0,0.0,0.0,2.8364,2.8453,2.8633,2.9175,2.9235,2.8836,2.7874,3.0594,3.1663,3.0146,3.2919,3.4432,3.4048,3.3346,3.3019,3.3199,3.2807,3.2566,3.2566,3.2918,3.3111,3.3111,3.3111,3.3111,3.3111,3.3111,3.3111,3.3086,3.3367,3.3379,3.3219,3.3235,3.2567,3.1561,3.1369,3.1494,3.1529,2.9525,2.9025,0.0,2.8921,2.8499,2.8298,2.9428,2.9026,2.8097,2.8097,2.7318,2.6524,2.6691,2.6264,2.6088,2.7394,2.757,2.772,2.8825,2.9076,2.9227,2.9704,2.9804,2.9905,3.0206,3.0457,3.0809,3.1436,3.1913,3.234,3.2667,3.2918,3.3111,3.3111,3.3111,3.281,3.2064,3.0214,2.8912,2.8402,2.722,2.6255,2.5742,2.5693,2.5693,2.5693,2.5693,2.5693,2.5693,2.5693,2.5693,2.5693,2.5693,2.5693,2.5693,2.5693,2.5488,2.5106,2.4863,2.4551,2.416,2.416,2.4043,2.3822,2.3613,2.3516,2.3496,2.3198,2.3101,2.3101,0.0,0.0,0.0,0.0,0.0,0.0,0.0,0.0,0.0,0.0,2.7585,2.7585,2.7585,2.7585,2.7382,2.6867,2.9354,3.0601,2.9752,3.2313,3.3767,3.3589,3.2833,3.2452,3.2567,3.2194,3.1989,3.1989,3.2416,3.2616,3.2616,3.2616,3.2616,3.2616,3.2616,3.2616,3.2676,3.3227,3.3045,3.2408,3.283,3.2318,3.1358,3.1203,3.0965,3.0477,2.874,2.8077,2.8013,2.7752,2.7444,2.7394,2.8524,2.8298,2.7645,2.7645,2.6901,2.6273,2.7344,2.7102,2.6952,2.885,2.895,2.88,2.9603,2.9804,2.9804,2.9804,2.9804,2.9905,3.0306,3.0633,3.1085,3.1863,3.224,3.2591,3.3061,3.3111,3.3111,3.3111,3.3111,3.2742,3.1821,3.0147,2.8819,2.8143,2.7268,2.6428,2.5742,2.5693,2.5693,2.5693,2.5693,2.5693,2.5693,2.5693,2.5693,2.5693,2.5693,2.5693,2.5693,2.5693,2.5566,2.5254,2.5254,2.5,2.459,2.459,2.4531,2.4394,2.4082,2.3965,2.3906,2.3477,2.3198,2.3101,0.0,0.0,0.0,0.0,0.0,0.0,0.0,0.0,0.0,0.0,0.0,0.0,0.0,2.7585,2.7585,2.756,2.8846,3.0135,3.1363,3.2736,3.3642,3.395,3.3597,3.2915,3.2026,3.1632,3.1411,3.1411,3.1436,3.1436,3.1436,3.1436,3.1436,3.1436,3.1436,3.1436,3.1518,3.2448,3.2817,3.2843,3.3224,3.3321,3.3266,3.2734,3.1306,2.9434,2.846,2.8004,2.7756,2.6867,2.5812,2.5109,2.6248,2.6575,2.6549,2.6549,2.5737,2.5109,2.6248,2.6524,2.6776,2.7871,2.895,2.9754,2.9779,2.9804,2.9804,2.9804,2.9804,2.9804,2.9804,3.0658,3.1386,3.1411,3.234,3.3068,3.3111,3.3111,3.3111,3.3111,3.3111,3.3068,3.3025,3.2982,3.1933,2.9533,2.9304,2.8215,2.582,2.5693,2.5693,2.5693,2.5693,2.5693,2.5693,2.5693,2.5693,2.5693,2.5693,2.5693,2.5693,2.5693,2.5674,2.5674,2.5674,2.5469,2.5106,2.5106,2.4805,2.4414,2.4414,2.4394,2.4355,2.3926,2.3496,2.3101,0.0,0.0,0.0,0.0,0.0,0.0,0.0,0.0,0.0,0.0,0.0,0.0,0.0,0.0,0.0,0.0,2.8843,2.9801,3.0223,3.2287,3.354,3.3642,3.3748,3.367,3.3325,3.2315,3.1811,3.1811,3.1508,3.1386,3.1386,3.1386,3.1386,3.1386,3.1386,3.1386,3.1483,3.2679,3.2836,3.2352,3.3398,3.2884,3.1508,3.1351,3.0323,2.8816,0.0,2.6725,2.5793,2.5492,2.5134,2.5008,2.6147,2.5996,2.5385,2.5385,2.5636,2.6197,2.7243,2.7544,2.7821,2.895,2.9503,2.9804,2.9804,2.9804,2.9804,2.9804,2.9202,2.8775,2.9151,2.8925,2.9151,3.0633,3.1185,3.1838,3.2918,3.3111,3.3111,3.3111,3.3111,3.3111,3.3111,3.2326,3.1512,3.0664,2.9096,2.7861,2.6982,2.6159,2.5693,2.5693,2.5693,2.5693,2.5693,2.5693,2.5693,2.5693,2.5693,2.5693,2.5693,2.5693,2.5693,2.5693,2.5693,2.5596,2.5508,2.5508,2.543,2.5254,2.4961,2.4844,2.4805,2.4355,2.4121,2.3861,0.0,0.0,0.0,0.0,0.0,0.0,0.0,0.0,0.0,0.0,0.0,0.0,0.0,0.0,0.0,0.0,0.0,2.9082,2.9562,3.115,3.2169,3.2283,3.2481,3.243,3.2098,3.101,3.0434,3.0434,3.0292,3.0206,3.0231,3.0633,3.0809,3.0849,3.1182,3.1315,3.1446,3.2973,3.2996,3.2154,3.3355,3.2667,3.091,3.091,2.9771,0.0,2.7368,2.5857,2.4262,2.4518,2.4424,2.4374,2.5511,2.5385,2.4876,2.5285,2.5636,2.6248,2.7695,2.8097,2.8373,2.9503,2.9804,2.9804,2.9804,2.9804,2.9679,2.9277,2.8624,2.8097,2.8047,2.762,2.7871,2.9729,3.0317,3.111,3.2566,3.2943,3.3111,3.3111,3.3111,3.3111,3.3111,3.237,3.1488,3.0619,2.9143,2.7861,2.6982,2.6159,2.5693,2.5693,2.5693,2.5693,2.5693,2.5693,2.5693,2.5693,2.5693,2.5917,2.6332,2.5917,2.5965,2.6332,2.5917,2.5693,2.5693,2.5693,2.5693,2.5654,2.543,2.5312,2.5254,2.4805,2.4648,2.4551,0.0,0.0,0.0,0.0,0.0,0.0,0.0,0.0,0.0,0.0,0.0,0.0,0.0,0.0,0.0,0.0,0.0,0.0,2.9412,2.9562,2.9742,3.0064,3.0149,2.9752,2.8876,2.8103,2.7703,2.767,2.7931,2.8058,2.8047,2.9126,2.9667,2.9744,3.0626,3.1045,3.1166,3.3023,3.3115,3.2086,3.3026,3.2617,3.1391,3.1391,2.9697,2.7304,2.7275,2.559,2.3471,2.4044,2.3776,2.3396,2.4525,2.4876,2.5134,2.6248,2.5812,2.5427,2.762,2.8197,2.8448,2.9528,2.9804,2.9804,2.9804,2.9754,2.9402,2.8323,2.8021,2.762,2.66,2.6826,2.7519,2.8612,2.974,3.0934,3.2064,3.2692,3.3086,3.3111,3.3111,3.3111,3.3111,3.3025,3.2021,2.9579,2.9396,2.8355,2.5917,2.5742,2.5693,2.5693,2.5693,2.5693,2.5693,2.5693,2.5693,2.5693,2.5693,2.6332,2.7458,2.6235,2.6332,2.7458,2.6207,2.5693,2.5693,2.5693,2.5693,2.5693,2.5693,2.5693,2.5635,2.5254,2.5145,2.5086,0.0,0.0,0.0,0.0,0.0,0.0,0.0,0.0,0.0,0.0,0.0,0.0,0.0,0.0,0.0,0.0,0.0,0.0,2.8094,2.9052,2.9632,2.9739,3.0628,3.1014,3.0807,2.9905,2.9192,2.8652,2.8026,2.7464,2.6927,2.7203,2.7646,2.8153,2.8428,2.8811,2.942,3.0591,3.0922,3.0668,3.1604,3.124,3.0073,3.0073,2.902,2.7436,2.6903,2.6834,2.666,2.4246,2.3831,2.455,2.5686,2.6072,2.6298,2.7369,2.7494,2.757,2.8976,2.9352,2.9428,2.9729,2.9804,2.9804,2.9804,2.9151,2.8448,2.8172,2.6791,2.5586,2.5285,2.536,2.5937,2.7469,2.8624,2.9991,3.1938,3.234,3.2591,3.3061,3.3111,3.3111,3.3111,3.2239,3.1045,2.951,2.9396,2.8727,2.722,2.6207,2.5693,2.5693,2.5693,2.5693,2.5693,2.5693,2.5693,2.5693,2.5693,2.5868,2.6159,2.582,2.5868,2.6159,2.582,2.5693,2.5693,2.5693,2.5693,2.5693,2.5693,2.5693,2.5674,2.5557,2.5566,2.5547,0.0,0.0,0.0,0.0,0.0,0.0,0.0,0.0,0.0,0.0,0.0,0.0,0.0,0.0,0.0,0.0,0.0,0.0,0.0,2.8304,2.8723,2.8723,2.9415,2.9804,2.9804,2.8968,2.8166,2.7428,2.7367,2.6971,2.625,2.707,2.7703,2.8103,2.8524,2.8939,2.938,3.0329,3.0397,0.0,0.0,2.9894,2.8723,2.8723,2.8036,2.7074,2.6657,2.711,2.7622,2.5744,2.5897,2.6917,2.7107,2.7193,2.7429,2.8524,2.8499,2.8348,2.9478,2.9804,2.9804,2.9804,2.9804,2.9654,2.9176,2.8574,2.7821,2.6866,2.5653,2.48,2.48,2.48,2.5435,2.7344,2.8373,2.9565,3.1562,3.2064,3.2416,3.3061,3.3111,3.3111,3.3111,3.1952,3.0709,2.9487,2.8912,2.8096,2.6839,2.611,2.5693,2.5693,2.5693,2.5693,2.5693,2.5693,2.5693,2.5693,2.5693,2.5965,2.6524,2.5965,2.6014,2.6476,2.5917,2.5693,2.5693,2.5693,2.5693,2.5693,2.5693,2.5693,2.5693,2.5693,2.5693,2.5693,0.0,0.0,0.0,0.0,0.0,0.0,0.0,0.0,0.0,0.0,0.0,0.0,0.0,0.0,0.0,0.0,0.0,0.0,0.0,0.0,2.7585,2.7585,2.7585,2.7585,2.7585,2.6967,2.6283,2.555,2.6491,2.6576,2.5879,2.7511,2.8314,2.8439,2.927,2.9661,2.981,3.0628,3.0342,2.9322,2.9322,2.8633,2.7585,0.0,2.7203,2.6657,2.683,2.7256,2.7774,2.8104,2.8845,2.9548,2.8613,2.8433,2.8683,2.9541,2.9101,2.8549,2.9528,2.9804,2.9804,2.9804,2.9804,2.9503,2.8373,2.7996,2.7293,2.5234,2.4675,2.46,2.475,2.48,2.5502,2.7745,2.8499,2.9389,3.1135,3.1813,3.234,3.2993,3.3111,3.3111,3.3111,3.2025,3.0871,2.9829,2.8506,2.7153,2.5791,2.5693,2.5693,2.5693,2.5693,2.5693,2.5693,2.5693,2.5693,2.5693,2.5693,2.6284,2.7315,2.6207,2.6284,2.7315,2.6207,2.5693,2.5693,2.5693,2.5693,2.5693,2.5693,2.5693,2.5693,2.5693,2.5693,2.5693,0.0,0.0,0.0,0.0,0.0,0.0,0.0,0.0,0.0,0.0,2.7585,2.7585,0.0,0.0,0.0,0.0,0.0,0.0,0.0,0.0,0.0,2.7585,2.7585,2.7585,2.7585,2.7458,2.7049,2.631,2.6512,2.6215,2.549,2.5823,2.6302,2.6885,2.7049,2.7455,2.8066,2.8196,2.8154,2.7944,2.7944,2.7794,2.7585,2.7585,0.0,0.0,2.8657,2.94,3.0004,3.1013,3.1063,3.0617,2.9779,3.0061,3.0522,2.9973,2.9654,2.9553,2.9754,2.9804,2.9804,2.9804,2.9804,2.9503,2.8373,2.7394,2.6424,2.5084,2.4048,2.3672,2.4625,2.48,2.5502,2.7745,2.8197,2.8976,3.1085,3.1461,3.1913,3.2986,3.3111,3.3111,3.3111,3.239,3.1843,3.1661,2.9833,2.786,2.583,2.5693,2.5693,2.5693,2.5693,2.5693,2.5693,2.5693,2.5693,2.5693,2.5693,2.5839,2.6014,2.5771,2.5839,2.6014,2.5771,2.5693,2.5693,2.5693,2.5693,2.5693,2.5693,2.5693,2.5693,2.5693,2.5693,2.5693,0.0,0.0,0.0,0.0,0.0,0.0,0.0,0.0,2.7585,2.7585,2.7585,2.7585,2.7585,0.0,0.0,0.0,0.0,0.0,0.0,0.0,0.0,0.0,0.0,0.0,2.7585,2.7585,2.7255,2.6496,0.0,2.668,2.5987,2.639,2.6733,2.7074,2.7074,2.728,2.7585,2.7585,2.7585,2.7585,2.7585,2.7585,2.7585,0.0,0.0,0.0,0.0,2.9166,2.9985,2.9982,3.0584,3.1162,3.0675,3.0846,3.0876,2.9352,2.9327,2.9654,2.9076,2.9352,2.9804,2.9804,2.9804,2.9352,2.7645,2.6876,2.6021,2.4249,2.3471,2.3446,2.4575,2.48,2.536,2.6992,2.772,2.8574,2.993,3.0859,3.1687,3.2516,3.2893,3.3111,3.3111,3.2508,3.2077,3.2077,3.0175,2.8507,2.7455,2.6566,2.6074,2.6074,2.581,2.5693,2.5693,2.5693,2.5693,2.5693,2.5693,2.5693,2.5693,2.5693,2.5693,2.5693,2.5693,2.5693,2.5693,2.5693,2.5693,2.5693,2.5693,2.5693,2.5693,2.5693,2.5693,2.5693,0.0,0.0,0.0,0.0,0.0,0.0,0.0,2.7585,2.7585,2.7585,2.7585,2.7585,2.7585,2.7585,2.7585,0.0,0.0,0.0,0.0,0.0,0.0,0.0,0.0,0.0,0.0,0.0,0.0,2.6762,2.7331,0.0,0.0,0.0,0.0,0.0,2.7585,2.7585,2.7585,2.7585,2.7585,0.0,0.0,2.7585,0.0,0.0,0.0,0.0,0.0,2.8453,2.9456,2.848,2.9666,3.1368,3.0724,3.0609,3.0368,2.8638,2.8725,2.9277,2.8649,2.9126,2.9804,2.9804,2.9804,2.9202,2.7002,2.6499,2.5871,2.3572,2.3095,2.3446,2.4575,2.46,2.4908,2.6273,2.6992,2.777,2.8737,3.0156,3.1336,3.2114,3.2717,3.3111,3.3111,3.2852,3.2678,3.2678,3.0804,2.9352,2.8616,2.7282,2.6484,2.6387,2.6055,2.5791,2.5693,2.5693,2.5693,2.5693,2.5693,2.5693,2.5693,2.5693,2.5693,2.5693,2.5693,2.5693,2.5693,2.5693,2.5693,2.5693,2.5693,2.5693,2.5693,2.5693,2.5693,2.5693,0.0,0.0,0.0,0.0,0.0,0.0,0.0,2.7585,2.7585,2.7585,2.7585,2.7585,2.7585,2.7585,2.7585,0.0,0.0,0.0,0.0,0.0,0.0,0.0,0.0,0.0,0.0,0.0,0.0,2.7484,2.756,0.0,0.0,0.0,0.0,0.0,0.0,2.7585,2.7585,2.7585,0.0,0.0,0.0,0.0,0.0,0.0,0.0,0.0,0.0,2.8453,2.9483,2.865,2.9781,3.1102,2.8898,2.8654,2.9073,2.8324,2.8172,2.8473,2.9377,2.9704,2.9804,2.9804,2.9804,2.9202,2.7002,2.6499,2.5871,2.3572,2.3095,2.3446,2.4575,2.3948,2.3948,2.6147,2.5711,2.5979,2.8537,2.9503,3.0507,3.2039,0.0,3.3111,3.3111,3.3934,3.447,3.447,3.2951,3.0565,2.7337,2.7024,2.6777,2.6406,2.6348,2.6133,2.5693,2.5693,2.5693,2.5693,2.5693,2.5693,2.5693,2.5693,2.5693,2.5693,2.5693,2.5693,2.5693,2.5693,2.5693,2.5693,2.5693,2.5693,2.5693,2.5693,2.5693,2.5693,0.0,0.0,0.0,0.0,0.0,0.0,0.0,2.8125,2.8271,2.8622,2.867,2.867,2.867,2.8367,2.8008,0.0,0.0,0.0,0.0,0.0,0.0,0.0,0.0,0.0,0.0,0.0,2.7585,2.7585,2.7585,0.0,0.0,0.0,0.0,0.0,0.0,2.7585,2.7585,2.7585,0.0,0.0,0.0,0.0,0.0,0.0,0.0,0.0,0.0,0.0,2.8342,2.805,2.8485,2.882,2.6966,2.6613,2.6742,2.6261,2.7067,2.8072,2.7882,2.8812,2.9804,2.9804,2.9804,2.9202,2.7002,2.6499,2.5871,2.3572,2.3095,2.3246,2.3697,2.3421,2.3396,2.4305,2.4657,2.5435,2.7193,2.88,3.0281,3.1562,3.2516,3.3111,3.3111,3.4073,3.4311,3.3336,3.2655,3.096,2.795,2.7539,2.7324,2.7219,2.6894,2.668,2.6454,2.6504,2.6504,2.6504,2.6504,2.6504,2.6504,2.6504,2.6504,2.6504,2.6504,2.6504,2.6504,2.6504,2.6504,2.6504,2.6504,2.6504,2.6504,2.6504,2.6348,2.6133,0.0,0.0,0.0,0.0,0.0,2.8271,2.8724,2.8772,2.8904,2.9339,2.9406,2.9406,2.9406,2.9019,2.8606,2.8174,0.0,0.0,0.0,0.0,0.0,0.0,0.0,0.0,0.0,0.0,2.7585,2.7585,2.7585,2.7585,0.0,0.0,2.7585,2.7585,0.0,0.0,0.0,0.0,0.0,0.0,0.0,0.0,0.0,0.0,0.0,0.0,0.0,0.0,0.0,0.0,0.0,2.7306,0.0,0.0,0.0,0.0,2.5912,2.7118,2.7027,2.8097,2.9377,2.9704,2.9553,2.88,2.6927,2.6248,2.5435,2.3496,2.3095,2.3095,2.3095,2.3095,2.3095,2.3095,2.3772,2.4707,2.5845,2.7896,2.9578,3.0331,3.1687,3.2591,3.2591,3.3872,3.4042,3.2414,3.228,3.1133,2.8441,2.8008,2.7793,2.7728,2.7363,2.7148,2.7012,2.7012,2.7012,2.7012,2.7012,2.7012,2.7012,2.7012,2.7012,2.7012,2.7012,2.7012,2.7012,2.7012,2.7012,2.7012,2.7012,2.7012,2.7012,2.7012,2.6836,2.6582,0.0,0.0,0.0,0.0,0.0,0.0,0.0,2.9384,2.9384,2.9406,2.9406,2.9406,2.9406,2.9384,2.9384,2.9384,0.0,0.0,0.0,0.0,0.0,0.0,0.0,0.0,0.0,0.0,2.7585,2.7585,2.7585,2.7585,2.7585,2.7585,2.7585,2.7585,0.0,0.0,0.0,0.0,0.0,0.0,0.0,0.0,2.7585,0.0,0.0,0.0,0.0,0.0,0.0,0.0,0.0,0.0,0.0,2.4823,2.5323,0.0,2.48,2.5302,2.7494,2.8097,2.8398,2.9503,2.895,2.7821,2.6751,2.5611,2.4474,2.3346,2.3095,2.3095,2.3095,2.3095,2.3095,2.3095,2.312,2.3521,2.465,2.6741,2.8122,2.8147,3.008,3.1411,3.1411,3.342,3.4042,3.2414,3.228,3.1133,2.8441,2.8281,2.8086,2.7728,2.7708,2.7461,2.7012,2.7012,2.7012,2.7012,2.7012,2.7012,2.7012,2.7012,2.7012,2.7012,2.7012,2.7012,2.7012,2.7012,2.7012,2.7012,2.7012,2.7012,2.7012,2.7012,2.7012,2.7012,0.0,0.0,0.0,0.0,0.0,0.0,0.0,3.0,3.0149,3.058,3.0621,3.0621,3.0621,3.0234,3.0,3.0,0.0,0.0,0.0,0.0,0.0,0.0,0.0,0.0,0.0,0.0,2.7585,2.7585,2.7585,2.7585,2.7585,2.7585,2.7585,2.7585,2.7585,2.7585,0.0,0.0,0.0,0.0,0.0,2.7585,2.7585,0.0,0.0,0.0,0.0,0.0,0.0,0.0,0.0,0.0,0.0,0.0,0.0,2.3978,2.4173,2.4951,2.5628,2.6414,2.7102,2.7454,2.7278,2.6725,2.5586,2.5084,2.4474,2.3346,2.3095,2.3095,2.3095,2.3095,2.3095,2.3095,2.3095,2.3496,2.4625,2.6716,2.8398,2.9176,3.121,3.2842,3.3596,3.344,3.3031,3.2364,3.1469,3.0172,2.8388,2.8301,2.8223,2.8105,2.8086,2.8027,2.7891,2.7891,2.7891,2.7891,2.7891,2.7891,2.7891,2.7891,2.7891,2.7891,2.7891,2.7891,2.7891,2.7891,2.7891,2.7891,2.7891,2.7891,2.7891,2.7891,2.7695,2.7461,0.0,0.0,0.0,0.0,0.0,0.0,0.0,3.0621,3.0777,3.1151,3.119,3.119,3.119,3.0858,3.0621,3.0621,0.0,0.0,0.0,0.0,0.0,0.0,0.0,0.0,0.0,2.7959,2.7835,2.7585,2.7585,2.7585,2.7585,2.7585,2.7585,2.7585,2.7585,2.7585,0.0,0.0,0.0,0.0,2.7585,2.7585,2.7585,0.0,0.0,0.0,0.0,0.0,0.0,0.0,0.0,0.0,0.0,0.0,0.0,0.0,2.3842,2.4249,2.4675,2.5335,2.5971,2.6399,2.6172,2.5661,2.4951,2.4449,2.3948,2.3246,2.3095,2.3095,2.3095,2.3095,2.3095,2.3095,2.3095,2.3346,2.4048,2.6088,2.8047,2.9603,3.1361,3.2867,3.3997,3.3223,3.2603,3.2314,3.1081,2.9702,2.8388,2.8301,2.8301,2.8301,2.8301,2.8301,2.8301,2.8301,2.8301,2.8301,2.8301,2.8301,2.8301,2.8301,2.8301,2.8301,2.8301,2.8301,0.0,2.8301,2.8301,2.8301,2.8301,2.8301,2.8301,2.8301,2.8125,2.791,0.0,0.0,0.0,0.0,0.0,0.0,0.0,0.0,0.0,3.119,3.119,3.119,3.119,3.119,3.119,0.0,0.0,0.0,0.0,0.0,0.0,0.0,0.0,0.0,2.8583,2.8511,2.8222,2.766,2.761,2.7585,2.7585,2.7585,2.7585,2.7585,2.7585,2.7585,2.7585,2.7585,2.7585,2.7585,2.7585,2.7585,0.0,0.0,0.0,0.0,0.0,0.0,0.0,0.0,0.0,0.0,0.0,0.0,0.0,0.0,0.0,0.0,0.0,2.4739,2.4933,2.5996,2.546,2.4675,2.4675,2.3847,0.0,2.3095,2.3095,2.3095,2.3095,2.3095,2.3095,2.3095,2.3095,2.3095,2.3095,2.5109,2.7429,2.9654,3.0859,3.1922,3.2982,3.2747,3.2436,3.2163,3.0927,2.9618,2.8388,2.8301,2.8301,2.8301,2.8301,2.8301,2.8301,2.8301,2.8301,2.8301,2.8301,2.8301,2.8301,2.8301,2.8301,2.8301,2.8301,2.8301,2.8301,2.8301,2.8301,2.8301,2.8301,2.8301,2.8301,2.8301,2.8301,2.8301,0.0,0.0,0.0,0.0,0.0,0.0,0.0,0.0,0.0,0.0,3.119,3.119,3.119,3.119,3.0954,0.0,0.0,0.0,0.0,0.0,0.0,0.0,0.0,0.0,2.918,2.8748,2.8415,2.8271,2.7835,2.7585,2.7585,2.7585,2.7585,2.7585,2.7585,2.7585,2.7585,2.7585,2.7585,2.7585,2.7585,2.7585,0.0,0.0,0.0,0.0,2.7585,2.7585,0.0,0.0,0.0,0.0,0.0,0.0,0.0,0.0,2.4163,2.3291,2.4205,0.0,2.3572,2.3822,2.3697,2.3496,0.0,2.3296,2.3095,2.3095,2.3095,2.3095,2.3095,2.3095,2.3095,2.3095,2.3095,2.3095,2.3095,2.5787,2.8549,3.0758,3.1989,3.2748,3.2798,3.1785,3.1083,3.0811,2.9513,2.8654,2.8301,2.8301,2.8301,2.8301,2.8301,2.8301,2.8301,2.8301,2.8301,2.8301,2.8301,2.8301,2.8301,2.8301,2.8301,2.8301,2.8301,2.8301,2.8301,2.8301,2.8301,2.8301,2.8301,2.8301,2.8301,2.8301,2.8301,2.8301,0.0,0.0,0.0,0.0,0.0,0.0,0.0,0.0,0.0,0.0,0.0,0.0,0.0,0.0,0.0,0.0,0.0,0.0,0.0,0.0,0.0,0.0,0.0,2.9737,2.9805,2.9225,2.8795,2.8487,2.791,2.7585,2.7585,2.7585,2.7585,2.7585,2.7585,2.7585,2.7585,2.7585,2.7585,2.7585,2.7585,0.0,0.0,0.0,0.0,0.0,2.7585,2.7585,0.0,2.7585,2.7585,2.7509,0.0,0.0,0.0,0.0,2.4824,2.375,2.4163,2.3721,2.3095,2.3095,2.3095,2.3095,2.3095,0.0,2.3095,0.0,0.0,2.3095,2.3095,2.3095,2.3095,2.3095,2.3547,2.4224,2.5252,2.762,2.9779,3.121,3.2616,3.3261,3.2767,3.1702,3.0833,3.0369,2.9059,2.8301,2.8301,2.8301,2.8301,2.8301,2.8301,2.8301,2.8301,2.8301,2.8301,2.8301,2.8301,2.8301,2.8301,2.8301,2.8301,2.8301,2.8301,2.8301,2.8301,2.8301,2.8301,2.8301,2.8301,2.8301,2.8301,2.8301,2.8301,2.8301,0.0,0.0,0.0,0.0,0.0,0.0,0.0,0.0,0.0,0.0,0.0,0.0,0.0,0.0,0.0,0.0,0.0,0.0,0.0,0.0,0.0,0.0,0.0,3.0127,3.0133,2.9631,2.9088,2.8487,2.791,2.7585,2.7585,2.7585,2.7585,2.7585,2.7585,2.7585,2.7585,2.7585,2.7585,2.7585,2.7585,0.0,0.0,0.0,0.0,0.0,0.0,0.0,0.0,2.7585,2.7585,2.7585,2.7585,0.0,0.0,0.0,0.0,0.0,2.4423,2.3783,2.3095,2.3095,2.3095,2.3095,2.3095,0.0,0.0,0.0,0.0,0.0,0.0,2.3371,2.3421,2.3572,2.4506,2.5879,2.7946,2.9603,3.0809,3.1336,3.2696,3.3269,3.2465,3.1663,3.0867,3.0078,2.8953,2.8262,2.8203,2.8262,2.8262,2.8203,2.8262,2.8301,2.8301,2.8301,2.8301,2.8301,2.8301,2.8301,2.8301,2.8301,2.8301,2.8301,2.8301,2.8301,2.8301,2.8301,2.8301,2.8301,2.8301,2.8301,2.8301,2.8301,2.8301,2.8301,0.0,0.0,0.0,0.0,0.0,0.0,0.0,0.0,0.0,0.0,0.0,0.0,0.0,0.0,0.0,0.0,0.0,0.0,0.0,0.0,0.0,2.9111,2.977,2.9858,2.9374,2.9372,2.9088,2.8487,2.791,2.7585,2.7585,2.7585,2.7585,2.7585,2.7585,2.7585,2.7585,2.7585,2.7585,2.7585,2.7585,0.0,0.0,0.0,0.0,0.0,0.0,0.0,0.0,2.7585,2.7585,2.7585,2.7585,0.0,0.0,0.0,0.0,0.0,2.5077,2.4192,2.3095,2.3095,2.3095,2.3095,2.3095,2.3095,0.0,0.0,0.0,0.0,0.0,2.4525,2.4825,2.5845,2.6524,2.7344,2.8587,2.9816,3.0809,3.1336,3.1869,3.19,3.1117,3.029,2.9466,2.8668,2.8388,2.8144,2.7826,2.8105,2.8125,2.7826,2.8105,2.8301,2.8301,2.8301,2.8301,2.8301,2.8301,2.8301,2.8301,2.8301,2.8301,2.8301,2.8301,2.8301,2.8301,2.8301,2.8301,2.8301,2.8301,2.8301,2.8301,2.8301,2.8301,2.8301,0.0,0.0,0.0,0.0,0.0,0.0,0.0,0.0,0.0,0.0,0.0,0.0,0.0,0.0,0.0,0.0,0.0,0.0,0.0,0.0,0.0,2.8315,2.9168,2.9663,2.9782,2.9224,2.8795,2.8487,2.791,2.7585,2.7585,2.7585,2.7585,2.7585,2.7585,2.7585,2.7585,2.7585,2.7585,2.7585,0.0,0.0,0.0,0.0,0.0,0.0,0.0,0.0,0.0,0.0,2.7585,2.7585,2.7585,0.0,0.0,0.0,0.0,0.0,2.5328,2.4279,2.3246,2.3873,2.3572,2.3095,2.3095,2.3095,0.0,0.0,0.0,0.0,0.0,2.48,2.5485,2.7469,2.8524,2.9478,3.0557,3.1411,3.2139,3.2692,3.2516,3.202,3.1211,3.0428,2.9497,2.8388,2.8086,2.7924,2.7728,2.7617,2.7519,2.7324,2.75,2.7598,2.7598,2.7832,2.8066,2.8301,2.8301,2.8301,2.8301,2.8301,2.8301,2.8301,2.8301,2.8301,2.8301,2.8301,2.8301,2.8301,2.8301,2.8301,2.8301,2.8301,2.8301,2.8301,0.0,0.0,0.0,0.0,0.0,0.0,0.0,0.0,0.0,0.0,0.0,0.0,0.0,0.0,0.0,0.0,0.0,0.0,0.0,0.0,2.8162,2.8331,2.8768,2.9246,2.9824,2.8979,2.8415,2.8271,2.7835,2.7585,2.7585,2.7585,2.7585,2.7585,2.7585,2.7585,2.7585,2.7585,2.7585,2.7585,0.0,0.0,0.0,0.0,0.0,0.0,0.0,0.0,0.0,0.0,0.0,0.0,0.0,0.0,0.0,2.7585,2.6575,2.5412,2.5412,2.4279,2.3321,2.4173,2.3948,2.3572,2.3822,2.3904,2.3904,2.3904,0.0,0.0,2.5352,2.5879,2.6832,2.8938,3.0217,3.1311,3.229,3.2918,3.342,3.3847,3.3017,3.2152,3.1569,3.0496,2.9408,2.8408,2.791,2.7669,2.7519,2.7207,2.6973,2.6875,2.6973,2.7012,2.7012,2.7344,2.7734,2.8144,2.8242,2.8301,2.8301,2.8301,2.8301,2.8301,2.8301,2.8301,2.8301,2.8301,2.8301,2.8301,2.8301,2.8301,2.8301,2.8301,2.8301,2.8301,0.0,0.0,0.0,0.0,0.0,0.0,0.0,0.0,0.0,0.0,0.0,0.0,0.0,0.0,0.0,0.0,0.0,0.0,0.0,0.0,2.9194,2.9886,2.8931,2.8372,2.8436,2.8474,2.8222,2.766,2.761,2.7585,2.7585,2.7585,2.7585,2.7585,2.7585,2.7585,2.7585,2.7585,2.7585,2.7585,2.7585,0.0,0.0,0.0,0.0,0.0,0.0,0.0,0.0,0.0,0.0,0.0,0.0,0.0,2.7585,2.7585,2.6575,2.5412,2.5412,2.4279,2.312,2.3195,2.3948,2.4926,2.6021,2.6248,2.6248,2.6248,2.6248,2.66,2.767,2.9151,3.0256,3.0457,3.1386,3.2315,3.2943,3.3495,3.3847,3.3897,3.2512,3.1569,3.1493,2.9642,2.8388,2.8281,2.791,2.748,2.709,2.7031,2.6836,2.6445,2.6816,2.7012,2.7012,2.7051,2.7285,2.7767,2.8105,2.8301,2.8301,2.8301,2.8301,2.8301,2.8301,2.8301,2.8301,2.8301,2.8301,2.8301,2.8301,2.8301,2.8301,2.8301,2.8301,2.8301,0.0,0.0,0.0,0.0,0.0,0.0,0.0,0.0,0.0,0.0,0.0,0.0,0.0,0.0,0.0,0.0,0.0,0.0,0.0,2.8896,2.9257,2.9523,2.881,2.8434,2.8434,2.8124,2.7835,2.7585,2.7585,2.7585,2.7585,2.7585,2.7585,2.7585,2.7585,2.7585,2.7585,2.7585,2.7585,2.7585,2.7585,2.7585,0.0,0.0,0.0,0.0,0.0,0.0,0.0,0.0,2.7585,2.7585,2.7585,2.7585,2.7585,2.7585,2.6575,2.5412,2.5412,2.4777,2.4324,2.5034,2.5536,0.0,0.0,2.5996,2.6499,2.6499,2.6776,2.7454,2.8875,3.0507,3.1612,3.1612,3.2265,3.2943,3.352,3.3771,3.4148,3.4851,3.2887,3.1627,3.1967,2.9756,2.8301,2.8301,2.7656,2.7187,2.7031,2.6504,2.6103,2.5996,2.6083,2.6161,2.6161,2.6484,2.6719,2.6875,2.763,2.8047,2.8301,2.8301,2.8301,2.8301,2.8301,2.8301,2.8301,2.8301,2.8301,2.8301,2.8301,2.8301,2.8301,2.8301,2.8301,2.8301,0.0,0.0,0.0,0.0,0.0,0.0,0.0,0.0,0.0,0.0,0.0,0.0,0.0,0.0,0.0,0.0,0.0,0.0,2.9072,2.9197,2.9249,2.9249,2.8767,2.8487,2.8487,2.791,2.7585,2.7585,2.7585,2.7585,2.7585,2.7585,2.7585,2.7585,2.7585,2.7585,2.7585,2.7585,2.7585,2.7585,2.7585,2.7585,0.0,0.0,0.0,0.0,0.0,0.0,0.0,0.0,2.7585,2.7585,2.7585,2.7585,2.7585,2.7585,2.6733,2.5769,2.5769,2.5451,2.5313,2.611,0.0,0.0,2.6038,2.6163,2.665,2.7178,2.7946,2.8875,2.988,3.1235,3.2164,3.1989,3.2591,3.3269,3.3822,3.4048,3.45,3.5382,3.3263,3.1923,3.2258,2.9859,2.8301,2.8301,2.75,2.7012,2.7012,2.6161,2.5693,2.5693,2.5693,2.5693,2.5693,2.6035,2.625,2.6387,2.7109,2.7676,2.8105,2.8223,2.8301,2.8301,2.8301,2.8301,2.8301,2.8301,2.8301,2.8301,2.8301,2.8301,2.8301,2.8301,2.8301,2.8301,0.0,0.0,0.0,0.0,0.0,0.0,0.0,0.0,0.0,0.0,0.0,0.0,0.0,0.0,0.0,0.0,0.0,0.0,2.9222,2.9329,2.9384,2.9384,2.8818,2.8487,2.8487,2.791,2.7585,2.7585,2.7585,2.7585,2.7585,2.7585,2.7585,2.7585,2.7585,2.7585,2.7585,2.7585,2.7585,2.7585,2.7585,2.7585,2.7585,0.0,0.0,0.0,0.0,0.0,0.0,0.0,2.7585,2.7585,2.7585,2.7585,2.7585,2.7585,2.7074,2.6525,2.6498,2.621,2.5932,2.5932,0.0,0.0,2.8122,2.7304,2.6977,2.8562,3.0256,3.1235,3.0708,3.1486,3.2039,3.1486,3.234,3.3269,3.3822,3.4374,3.4881,3.5433,3.364,3.228,3.228,2.9859,2.8301,2.8301,2.75,2.7012,2.7012,2.6161,2.5693,2.5693,2.5693,2.5693,2.5693,2.5693,2.5908,2.6387,2.6816,2.7246,2.7728,2.8105,2.8301,2.8301,2.8301,2.8301,2.8301,2.8301,2.8281,2.8301,2.8281,2.8281,2.8301,2.8281,2.8301,2.8301,0.0,0.0,0.0,0.0,0.0,0.0,0.0,0.0,0.0,0.0,0.0,0.0,0.0,0.0,0.0,0.0,0.0,0.0,2.9329,2.8962,2.8772,2.8772,2.8174,2.7885,2.7885,2.7685,2.7585,2.7585,2.7585,2.7585,2.7585,2.7585,2.7585,2.7585,2.7585,2.7585,2.7585,2.7585,2.7585,2.7585,2.7585,2.7585,2.7585,0.0,0.0,0.0,0.0,0.0,0.0,0.0,0.0,0.0,2.7585,2.7585,2.7585,2.7585,2.7718,2.768,2.703,2.8146,2.9164,2.7799,2.828,2.9015,0.0,2.8423,0.0,0.0,3.0557,3.1813,3.126,3.2064,3.2767,3.2591,3.3194,3.3847,3.4399,3.4906,3.5504,3.6056,3.3852,3.228,3.228,2.9859,2.8301,2.8301,2.75,2.7012,2.7012,2.6161,2.5693,2.5693,2.5693,2.5693,2.5693,2.5693,2.5752,2.5937,2.666,2.7246,2.7728,2.8105,2.8301,2.8301,2.8301,2.8301,2.8301,2.8301,2.7672,2.6879,2.7887,2.7672,2.6879,2.7906,2.8301,2.8301,0.0,0.0,0.0,0.0,0.0,0.0,0.0,0.0,0.0,0.0,0.0,0.0,0.0,0.0,0.0,0.0,0.0,0.0,0.0,2.8487,2.8125,2.8125,2.7785,2.7585,2.7585,2.7585,2.7585,2.7585,2.7585,2.7585,2.7585,2.7585,2.7585,2.7585,2.7585,2.7585,2.7585,2.7585,2.7585,2.7585,2.7585,2.7585,2.7585,0.0,0.0,0.0,0.0,0.0,0.0,0.0,0.0,0.0,2.7585,2.7585,2.7585,2.7585,2.8225,2.8734,2.8168,2.9417,3.0562,2.9381,2.9356,2.9567,2.929,2.9428,2.9603,2.9603,3.1185,3.2441,3.2114,3.2616,3.3111,3.3111,3.3545,3.4098,3.4605,3.5157,3.5708,3.6355,3.3995,3.228,3.228,2.9859,2.8301,2.8301,2.75,2.7012,2.7012,2.6161,2.5693,2.5693,2.5693,2.5693,2.5693,2.5693,2.5693,2.5693,2.6551,2.7148,2.7422,2.8027,2.8301,2.8301,2.8301,2.8301,2.8228,2.7672,2.6879,2.6155,2.6391,2.5991,2.5261,2.6155,2.6898,2.7457,0.0,0.0,0.0,0.0,0.0,0.0,0.0,0.0,0.0,0.0,0.0,0.0,0.0,0.0,0.0,0.0,0.0,0.0,0.0,0.0,2.7585,2.7585,2.7585,2.7585,2.7585,2.7585,2.7585,2.7585,2.7585,2.7585,2.7585,2.7585,2.7585,2.7585,2.7585,2.7585,2.7585,2.7585,2.7585,2.7585,2.7585,2.7585,2.7585,2.7585,0.0,0.0,0.0,0.0,0.0,0.0,0.0,0.0,2.7585,2.7585,2.7585,2.7509,2.8491,2.9567,2.955,3.0115,3.0724,3.0665,3.0288,2.993,2.993,3.0407,3.0783,3.0583,3.1888,3.3086,3.2943,3.3061,3.3136,3.3144,3.3621,3.4173,3.468,3.5232,3.5805,3.6355,3.3995,3.228,3.228,2.9859,2.8281,2.8242,2.748,2.6992,2.6953,2.6122,2.5693,2.5693,2.5693,2.5693,2.5693,2.5693,2.5693,2.5693,2.6551,2.7012,2.7051,2.791,2.8301,2.8301,2.8301,2.8228,2.8014,2.6662,2.5936,2.5535,2.4267,2.371,2.3654,2.3933,2.4875,2.61,0.0,0.0,0.0,0.0,0.0,0.0,0.0,0.0,0.0,0.0,0.0,0.0,0.0,0.0,0.0,0.0,0.0,0.0,0.0,0.0,2.7585,2.7585,2.7585,2.7585,2.7585,2.7585,2.7585,2.7585,2.7585,2.7585,2.7585,2.7585,2.7585,2.7585,2.7585,2.7585,2.7585,2.7585,2.7585,2.7585,2.7585,2.7585,2.7585,2.7585,2.7585,0.0,0.0,0.0,0.0,0.0,0.0,0.0,2.7585,2.7585,2.7484,2.6919,2.8122,2.9527,2.922,3.0428,3.1655,3.1173,3.1074,3.106,3.106,3.1838,3.2064,3.0331,3.1637,3.286,3.1913,3.2491,3.3262,3.3646,3.4198,3.4751,3.5232,3.5855,3.6279,3.638,3.3995,3.228,3.228,2.9859,2.8164,2.7832,2.7305,2.6875,2.6543,2.6016,2.5693,2.5693,2.5693,2.5693,2.5693,2.5693,2.5693,2.5693,2.6551,2.7012,2.7051,2.791,2.8301,2.8301,2.8301,2.7618,2.6554,2.6209,2.471,2.2645,2.3487,2.3095,2.2363,2.471,2.5827,2.6264,0.0,0.0,0.0,0.0,0.0,0.0,0.0,0.0,0.0,0.0,0.0,0.0,0.0,0.0,0.0,0.0,0.0,0.0,0.0,0.0,2.7585,2.7585,2.7585,2.7585,2.7585,2.7585,2.7585,2.7585,2.7585,2.7585,2.7585,2.7585,2.7585,2.7585,2.7585,2.7585,2.7585,2.7585,2.7585,2.7585,2.7585,2.7585,2.7585,2.7585,2.7585,2.7585,2.7585,0.0,0.0,0.0,0.0,0.0,0.0,0.0,2.6997,2.6602,2.7443,2.857,2.892,2.9919,3.0795,3.0596,3.0953,3.1386,3.1386,3.2265,3.2784,3.1612,3.2332,3.2893,3.2315,3.2692,3.3212,3.3445,3.4198,3.4781,3.5056,3.5855,3.6405,3.6405,3.3832,3.1995,3.1995,2.9394,2.7598,2.7363,2.6953,2.6621,2.6406,2.5977,2.5693,2.5693,2.5693,2.5693,2.5693,2.5693,2.5791,2.6055,2.6699,2.7226,2.7637,2.8086,2.8301,2.8247,2.7565,2.6825,2.5991,2.4544,2.3039,2.1586,2.1658,2.1202,2.0759,2.2322,2.3766,2.5096,0.0,0.0,0.0,0.0,0.0,0.0,0.0,0.0,0.0,0.0,0.0,0.0,0.0,0.0,0.0,0.0,0.0,0.0,0.0,0.0,0.0,2.7585,2.7585,2.7585,2.7585,2.7585,2.7585,2.7585,2.7585,2.7585,2.7585,2.7585,2.7585,2.7585,2.7585,2.7585,2.7585,2.7585,2.7509,2.7408,2.7408,2.7331,2.7229,2.7229,2.7229,2.7229,2.7229,2.7229,2.7229,2.7229,0.0,0.0,0.0,0.0,2.6283,2.6149,2.6526,2.7213,2.8216,2.8999,2.9529,2.977,3.0532,3.1286,3.1361,3.219,3.2943,3.3068,3.3111,3.3111,3.3111,3.3111,3.3119,3.3194,3.3972,3.458,3.47,3.5504,3.6128,3.6128,3.3408,3.1551,3.1551,2.8794,2.6992,2.6914,2.6582,2.6348,2.6289,2.5937,2.5693,2.5693,2.5693,2.5693,2.5693,2.5693,2.5957,2.6387,2.6894,2.7383,2.7906,2.7906,2.7906,2.7833,2.6608,2.5827,2.5151,2.2645,2.1472,2.1088,1.9866,1.943,1.9475,1.9982,2.1544,2.3543,0.0,0.0,0.0,0.0,0.0,0.0,0.0,0.0,0.0,0.0,0.0,0.0,0.0,0.0,0.0,0.0,0.0,0.0,0.0,0.0,0.0,2.7585,2.7585,2.7585,2.7585,2.7585,2.7585,2.7585,2.7585,2.7585,2.7585,2.7585,2.7585,2.7585,2.7585,2.7585,2.7585,2.7585,2.7229,2.6657,2.6657,2.6256,2.5687,2.5687,2.5687,2.5687,2.5687,2.5687,2.5687,2.5687,2.5687,0.0,0.0,0.0,2.5439,2.4794,2.5101,2.5795,2.6408,2.802,2.9529,2.977,3.0256,3.0834,3.1286,3.1888,3.2466,3.2968,3.3111,3.3111,3.3111,3.3111,3.3244,3.3721,3.3922,3.4173,3.4605,3.4851,3.4951,3.4951,3.2606,3.1035,3.1035,2.8607,2.6875,2.6504,2.6426,2.623,2.5791,2.5713,2.5693,2.5693,2.5693,2.5693,2.5693,2.5693,2.5957,2.6406,2.7207,2.716,2.6372,2.6372,2.6372,2.6372,2.6209,2.4599,2.2194,2.1756,2.0873,1.9649,1.9475,1.943,1.9707,2.2266,2.2645,2.242,0.0,0.0,0.0,0.0,0.0,0.0,0.0,0.0,0.0,0.0,0.0,0.0,0.0,0.0,0.0,0.0,0.0,0.0,0.0,0.0,0.0,2.7585,2.7585,2.7585,2.7585,2.7585,2.7585,2.7585,2.7585,2.7585,2.7585,2.7178,2.7203,2.756,2.7178,2.6997,2.6971,2.6549,2.6174,2.5878,2.5878,2.5687,2.5412,2.5412,2.5412,2.5412,2.5412,2.5412,2.5412,2.5412,2.5412,2.5412,2.5412,0.0,0.0,0.0,2.4221,2.4282,2.5179,2.701,2.8743,0.0,2.9729,3.0758,3.126,3.1813,3.2365,3.3011,3.3111,3.3111,3.3111,3.3111,3.3169,3.3395,3.3696,3.3972,3.4223,3.4525,3.468,3.468,3.2206,3.0519,3.0519,2.7966,2.623,2.6035,2.6016,2.5937,2.5693,2.5693,2.5693,2.5693,2.5693,2.5693,2.5693,2.5693,2.6025,2.6758,2.6774,2.655,2.61,2.5206,2.482,2.4765,2.3933,2.2814,2.1529,2.0702,1.9982,1.943,1.943,1.943,1.9533,2.0873,2.143,2.1983,0.0,0.0,0.0,0.0,0.0,0.0,0.0,0.0,0.0,0.0,0.0,0.0,0.0,0.0,0.0,0.0,0.0,0.0,0.0,0.0,0.0,2.7585,2.7585,2.7585,2.7585,2.7585,2.7585,2.7585,2.7408,2.7331,2.7306,2.6575,2.6522,2.7019,2.6469,2.631,2.6443,2.5715,2.53,2.5133,2.5133,2.5021,2.4796,2.4796,2.4796,2.4796,2.4796,2.4796,2.4796,2.4796,2.4796,2.4796,2.4796,2.4452,0.0,0.0,0.0,2.3346,2.4474,0.0,2.7419,2.7971,2.9051,3.0181,3.1009,3.1612,3.2164,3.2742,3.2968,3.3111,3.3111,3.3111,3.3111,3.3111,3.342,3.3696,3.3696,3.4048,3.4299,3.4299,3.1781,3.0003,3.0003,2.7407,2.5693,2.5693,2.5693,2.5693,2.5693,2.5693,2.5693,2.5693,2.5693,2.5693,2.5693,2.5908,2.6387,2.7031,2.6774,2.6445,2.6045,2.4931,2.3989,2.3207,2.2081,2.1358,2.0973,1.9866,1.943,1.943,1.943,1.943,1.943,1.9809,2.0429,2.1373,0.0,0.0,0.0,0.0,0.0,0.0,0.0,0.0,0.0,0.0,0.0,0.0,0.0,2.7585,2.7585,2.7585,0.0,0.0,0.0,0.0,0.0,2.7585,2.7585,0.0,2.7585,2.7585,2.7585,2.7585,2.6919,2.6578,2.6522,2.5797,2.5495,2.5494,2.5467,2.5851,2.6443,2.5715,2.5021,2.4337,2.4337,2.3901,2.3215,2.3215,2.3215,2.3215,2.3215,2.3215,2.3215,2.3215,2.3215,2.3215,2.3215,2.3185,2.3155,0.0,0.0,0.0,2.4474,2.4876,0.0,2.7595,2.8172,2.8649,3.0281,3.106,3.1587,3.2139,3.2692,3.3111,3.3111,3.3111,3.3111,3.3111,3.3093,3.3162,3.3162,3.3187,3.3169,3.3169,3.0982,2.9441,2.9441,2.7173,2.5693,2.5693,2.5693,2.5693,2.5693,2.5693,2.5693,2.5693,2.5693,2.5693,2.5693,2.6543,2.6973,2.7031,2.7818,2.7438,2.61,2.6045,2.4433,2.1699,2.1643,2.0816,1.9533,1.9417,1.943,1.943,1.943,1.943,1.9591,2.0973,2.0644,2.0155,0.0,0.0,0.0,0.0,0.0,0.0,0.0,0.0,0.0,0.0,0.0,0.0,0.0,2.6174,2.6174,2.6174,2.6174,0.0,0.0,0.0,0.0,2.6174,2.6174,2.6174,2.6174,2.6174,2.6174,2.6174,2.5905,2.5797,2.5797,2.5049,2.4964,2.5384,2.4908,2.4851,2.5049,2.4279,2.3754,2.3543,2.3543,2.3365,2.3095,2.3095,2.3095,2.3195,2.3923,2.4173,2.4299,2.5034,2.4808,2.4173,2.4173,2.3697,2.3095,2.3095,2.3095,2.3195,0.0,0.0,0.0,2.5753,2.6515,2.7329,2.8247,2.9176,3.008,3.0984,3.1888,3.2641,3.3061,3.3111,3.3111,3.3111,3.3111,3.3111,3.3111,3.3111,3.281,3.1952,3.0418,2.9096,2.8308,2.6716,2.5693,2.5693,2.5693,2.5693,2.5693,2.5693,2.5693,2.5693,2.5693,2.5693,2.5693,2.6582,2.7012,2.7031,2.6933,2.6608,2.6045,2.41,2.2645,2.1529,2.0587,1.9866,1.943,1.943,1.943,1.943,1.943,1.943,1.9475,1.9982,1.9866,1.9764,0.0,0.0,0.0,0.0,0.0,0.0,0.0,0.0,0.0,0.0,0.0,0.0,0.0,0.0,2.5412,2.5412,2.5412,2.5412,2.5412,2.5412,2.5412,2.5412,2.5412,2.5412,2.5412,2.5412,2.5412,2.5412,2.5161,2.5049,2.5021,2.425,2.4163,2.4597,2.4105,2.4047,2.4276,2.3454,2.3095,2.3095,2.3095,2.3095,2.3145,2.3521,2.3672,2.3822,2.4958,2.5385,2.5485,2.6248,2.5737,2.48,2.48,2.4023,2.3095,2.3095,2.3095,0.0,2.3095,0.0,0.0,2.47,2.5385,2.6147,2.6876,2.7996,2.9088,2.9866,3.106,3.2064,3.2441,3.2667,3.2842,3.3086,3.3111,3.3111,3.3111,3.3111,3.2612,3.1356,3.0124,2.8958,2.772,2.6428,2.5693,2.5693,2.5693,2.5693,2.5693,2.5693,2.5693,2.5693,2.5693,2.5693,2.5693,2.6582,2.7012,2.7031,2.688,2.6825,2.6771,2.4765,2.3319,2.2251,2.1316,2.0314,1.943,1.943,1.943,1.943,1.943,1.943,1.943,1.943,1.943,1.9591,0.0,0.0,0.0,0.0,0.0,0.0,0.0,0.0,0.0,2.5384,0.0,0.0,0.0,0.0,0.0,2.5329,2.5329,2.5329,2.5329,2.5329,2.5329,2.5329,0.0,0.0,2.5329,2.5329,2.5329,2.5329,2.4624,2.425,2.4276,2.3484,2.3095,2.3095,2.3095,2.3543,2.4192,2.3424,2.3095,2.3095,2.3145,2.3145,2.3271,2.4399,2.485,2.5008,2.6147,2.6549,2.6549,2.6575,2.5812,2.4825,2.475,2.3998,2.3095,2.3095,2.3095,0.0,0.0,0.0,0.0,2.4474,2.475,2.5059,2.6197,2.7645,2.8787,2.8863,3.0206,3.1336,3.1386,3.1838,3.2365,3.2943,3.3086,3.3111,3.3111,3.3111,3.2612,3.1356,3.0124,2.8958,2.772,2.6428,2.5693,2.5693,2.5693,2.5693,2.5693,2.5693,2.5693,2.5693,2.5693,2.5693,2.5693,2.6582,2.7012,2.7031,2.7891,2.8301,2.8301,2.8228,2.6608,2.3822,2.3766,2.2096,1.943,1.943,1.943,1.943,1.943,1.943,1.943,1.943,1.943,1.9591,0.0,0.0,0.0,0.0,0.0,0.0,2.5715,2.555,2.5217,0.0,0.0,0.0,2.3813,2.3725,2.3725,2.3725,2.3725,2.3725,2.3725,2.3725,2.3725,2.3725,2.3725,2.3725,2.3725,2.3725,2.3725,2.3725,2.3543,2.3424,2.3424,2.3185,2.3095,2.3095,2.3095,2.3215,2.3424,2.3185,2.3095,2.317,2.3998,2.4324,2.4449,2.5586,2.6047,2.6197,2.7243,2.7645,2.777,2.8599,2.7595,2.5745,2.4073,2.3346,2.3095,2.3095,2.3095,0.0,2.3095,0.0,0.0,0.0,0.0,0.0,2.5008,2.5603,2.648,2.8487,2.9264,2.998,3.116,3.1512,3.1662,3.1838,3.2541,3.3111,3.3111,3.3111,3.2612,3.1356,3.0124,2.8958,2.772,2.6428,2.5693,2.5693,2.5693,2.5693,2.5693,2.5693,2.5693,2.5693,2.5693,2.5693,2.5693,2.6582,2.7012,2.7031,2.7891,2.8301,2.8247,2.7222,2.5663,2.371,2.2645,2.1145,1.943,1.943,1.943,1.943,1.943,1.943,1.943,1.943,1.943,1.9475,0.0,0.0,0.0,0.0,0.0,0.0,2.4936,2.4681,2.4308,0.0,0.0,0.0,2.3155,2.3095,2.3095,2.3095,2.3095,2.3095,2.3095,2.3095,2.3095,2.3095,2.3095,2.3095,2.3095,2.3095,2.3095,2.3095,2.3095,2.3095,2.3095,2.3095,2.3095,2.3095,2.3095,2.3095,2.3095,2.3095,2.3371,2.3822,2.4023,2.4374,2.4901,2.6072,2.6499,2.67,2.8247,2.88,2.89,2.9578,2.8624,2.6666,2.3948,2.3421,2.3722,2.3246,2.3095,0.0,0.0,0.0,0.0,2.3095,0.0,0.0,2.3948,2.4449,2.541,2.7469,2.7896,2.8323,2.9754,2.9829,2.9829,3.0281,3.111,3.1863,3.2315,3.2365,3.1918,3.0668,2.9504,2.8383,2.731,2.6147,2.5527,2.5674,2.5693,2.5693,2.5693,2.5693,2.5693,2.5693,2.5693,2.5693,2.5693,2.6582,2.7012,2.7031,2.7891,2.8301,2.8281,2.7384,2.5827,2.3766,2.287,2.1316,1.943,1.943,1.943,1.943,1.943,1.943,1.943,1.943,1.943,1.943,0.0,0.0,0.0,2.5134,2.4595,2.4163,2.4163,2.3573,2.3095,0.0,2.3095,2.3095,2.3095,2.3095,2.3095,2.3095,2.3095,2.3095,2.3095,2.3095,2.3095,2.3095,2.3095,2.3095,2.3095,2.3095,2.3095,2.3095,2.3095,2.3095,2.3095,2.3095,2.3095,2.3095,2.3095,0.0,2.3095,2.3095,2.3747,2.47,2.3822,2.4148,2.531,2.6449,2.6876,2.7128,2.9076,2.9804,2.9754,2.9503,2.8825,2.7544,2.4299,2.3973,2.46,2.3597,2.3195,0.0,0.0,0.0,0.0,2.3095,2.3095,0.0,2.3271,2.3973,2.4983,2.6248,2.6399,2.665,2.772,2.7519,2.7519,2.8499,2.9176,3.003,3.121,3.1386,3.0993,2.993,2.8674,2.7613,2.6876,2.5712,2.5176,2.5577,2.5654,2.5693,2.5693,2.5693,2.5693,2.5693,2.5693,2.5693,2.5693,2.6582,2.7012,2.7031,2.7891,2.8301,2.8301,2.8301,2.6662,2.3822,2.3822,2.2096,1.943,1.943,1.943,1.943,1.943,1.943,1.943,1.943,1.943,1.943,0.0,0.0,0.0,2.3547,2.3424,2.3335,2.3335,2.3185,2.3095,2.3095,2.3095,2.3095,2.3095,2.3095,2.3095,2.3095,2.3095,2.3095,2.3095,2.3095,2.3095,2.3095,2.3095,2.3095,2.3095,2.3095,2.3095,2.3095,2.3095,2.3095,2.3095,2.3095,2.3095,2.3095,2.3095,2.3095,2.3095,2.3095,2.3747,2.485,2.5536,2.6465,2.7595,2.8699,2.9151,2.9202,2.9628,2.9804,2.9528,2.7756,2.758,2.767,2.5227,2.46,2.475,2.4525,2.3822,2.3095,2.3095,2.3095,2.3095,2.3095,2.3095,0.0,2.4249,2.3923,2.3998,2.6072,2.5762,2.5485,2.66,2.6725,2.6725,2.6927,2.777,2.9126,3.111,3.1386,3.1304,3.1075,2.9187,2.7831,2.7657,2.5776,2.4727,2.5156,2.5527,2.5693,2.5693,2.5693,2.5693,2.5693,2.5693,2.5693,2.5693,2.6582,2.7012,2.7031,2.7891,2.8301,2.8301,2.8301,2.6662,2.3822,2.3822,2.2096,1.943,1.943,1.943,1.943,1.943,1.943,1.943,1.943,1.943,1.943,0.0,0.0,0.0,0.0,2.3095,2.3095,2.3095,2.3095,2.3095,2.3095,2.3095,2.2944,2.2549,2.2519,2.231,2.1885,2.1854,2.1854,2.1854,2.1854,2.2063,2.2463,2.2094,2.2249,2.3065,2.2702,2.2702,2.3095,2.3095,2.3095,2.3095,2.3095,2.3095,2.3095,2.3095,2.3095,2.3145,2.3697,2.4632,2.5636,2.5636,2.6314,2.7394,2.8524,2.9126,2.9428,3.0005,3.0357,3.0281,2.8348,2.8047,2.8172,2.6239,2.5259,2.48,2.48,2.3998,2.3095,2.3095,2.3095,2.3095,2.3095,2.3095,0.0,0.0,2.3521,2.3572,2.5285,2.4757,2.4299,2.5435,2.5184,2.4983,2.5561,2.6113,2.7042,2.8737,2.9905,3.0583,3.0583,2.9056,2.7882,2.7536,2.5925,2.4851,2.4754,2.5156,2.541,2.541,2.5557,2.5693,2.5693,2.5693,2.5693,2.5693,2.6387,2.6816,2.7031,2.7676,2.8086,2.8301,2.7565,2.5936,2.3766,2.3039,2.143,1.943,1.943,1.943,1.943,1.943,1.943,1.943,1.943,1.943,1.943,2.3145,0.0,0.0,0.0,2.3095,2.3095,2.3095,0.0,2.3035,2.2884,2.2732,2.2445,2.195,2.1745,2.1446,2.0892,2.0702,2.059,2.059,2.059,2.091,2.1628,2.0974,2.1227,2.2586,2.197,2.197,2.2616,2.2793,2.2884,2.2884,2.3035,2.3095,2.3095,2.3095,2.3221,2.3496,2.4399,2.546,2.6424,2.5711,2.5988,2.6952,2.8122,2.8725,2.9038,3.0331,3.1035,3.116,2.9603,2.9189,2.9101,2.7344,2.6163,2.5377,2.5209,2.4255,2.3271,2.3271,2.3195,2.3095,2.3095,2.3095,2.3095,0.0,0.0,0.0,2.4274,2.3747,2.3371,2.4299,2.3722,2.3396,2.4324,2.465,2.5134,2.6047,2.7907,2.9151,2.9151,2.8159,2.7252,2.6707,2.5722,2.4873,2.4323,2.4766,2.5106,2.5106,2.5488,2.5693,2.5693,2.5693,2.5693,2.5693,2.6172,2.6602,2.7031,2.7461,2.7891,2.8228,2.6771,2.5261,2.371,2.2251,2.0759,1.943,1.943,1.943,1.943,1.943,1.943,1.943,1.943,1.943,1.943,2.3296,2.3095,0.0,0.0,0.0,0.0,0.0,0.0,2.2854,2.2125,2.1353,2.1154,2.1834,2.1204,2.1014,2.1664,2.1051,2.059,2.059,2.059,2.0655,2.0751,2.0655,2.0687,2.0878,2.0782,2.0782,2.0878,2.1659,2.2032,2.2032,2.2763,2.3095,2.3095,2.3095,2.3672,2.46,2.475,2.546,2.6575,2.7394,2.7795,2.8097,2.9704,2.9754,2.9088,3.0733,3.1336,3.121,3.008,3.0331,3.0733,2.8599,2.7821,2.7544,2.66,2.5159,2.3904,2.3904,2.3496,2.3095,2.3095,2.3095,2.3095,2.3095,0.0,2.3145,2.3271,0.0,2.3145,2.3271,0.0,0.0,2.3271,2.4123,2.4825,2.4951,2.6063,2.6876,2.6876,2.5875,2.5117,2.506,2.4404,2.3943,2.3848,2.4609,2.5106,2.5106,2.5488,2.5693,2.5693,2.5693,2.5693,2.5693,2.6172,2.6602,2.7031,2.7461,2.7891,2.8228,2.6771,2.5261,2.371,2.2251,2.0759,1.943,1.943,1.943,1.943,1.943,1.943,1.943,1.943,1.943,1.943,2.4079,2.4073,0.0,0.0,0.0,0.0,0.0,0.0,2.2269,2.194,2.1575,2.1494,2.1876,2.1124,2.0849,2.1449,2.0705,2.0327,2.0596,2.012,2.0303,2.1325,1.991,1.9807,2.1319,2.0358,2.0074,2.059,2.0974,2.1132,2.1132,2.1479,2.1635,2.169,2.2838,2.3247,2.3226,2.5035,2.5681,2.5549,2.6171,2.6447,2.6821,2.9557,3.0708,3.0959,3.1989,3.2365,3.224,3.1461,3.1085,3.0834,3.0206,2.8699,2.7228,2.7369,2.6013,2.4607,2.5292,2.5292,2.5059,2.5059,2.5059,2.4808,2.3853,2.3627,2.3521,2.317,0.0,0.0,0.0,0.0,0.0,0.0,2.3496,2.3822,2.3822,2.423,2.5008,2.6348,2.5652,2.4755,2.4111,2.2757,2.2129,2.2656,2.3242,2.3691,2.3926,2.4844,2.5469,2.5674,2.5693,2.5693,2.5693,2.5918,2.6348,2.7012,2.7207,2.7199,2.6987,2.5426,2.3933,2.242,2.0973,1.9982,1.943,1.943,1.943,1.943,1.943,1.943,1.943,1.943,1.943,1.943,2.428,0.0,0.0,0.0,2.2897,0.0,2.1978,2.1702,2.1529,2.1529,2.132,2.1367,2.185,2.1135,2.0896,2.1681,2.082,2.041,2.0723,1.9824,1.9982,2.1486,1.9501,1.9243,2.1145,1.9954,1.9494,1.9879,2.0139,2.0236,2.0236,2.0494,2.059,2.0645,2.2078,2.2569,2.2492,2.4738,2.5532,2.5289,2.5587,2.5938,2.6574,2.9147,3.1075,3.2516,3.2918,3.3111,3.3018,3.2591,3.1938,3.1311,3.1361,2.9754,2.7957,2.8423,2.7318,2.6079,2.6917,2.6851,2.6575,2.6876,2.6499,2.582,2.4883,2.4431,2.4054,2.3471,2.3346,0.0,0.0,0.0,2.3095,2.3095,0.0,2.3095,2.3095,2.2914,2.348,2.536,2.4812,2.3862,2.2836,2.1425,2.086,2.1525,2.1914,2.2399,2.3062,2.4141,2.5039,2.5674,2.5693,2.5693,2.5693,2.5693,2.6122,2.7012,2.7012,2.6693,2.6045,2.4488,2.2983,2.1529,2.004,1.943,1.943,1.943,1.943,1.943,1.943,1.943,1.943,1.943,1.947,1.9492,2.3554,2.2719,0.0,2.1944,2.1944,2.1909,2.1909,2.1202,2.0638,2.0638,1.9909,2.0017,2.1742,2.1134,2.1291,2.2993,2.1934,2.1151,2.1171,2.0,1.9705,2.0605,1.9744,1.9294,1.9386,1.933,1.8899,1.8076,1.8911,1.9342,1.9375,2.0204,2.059,2.059,2.0645,2.1722,2.3481,2.3548,2.4684,2.6457,2.6889,2.7607,2.8521,2.8766,3.0608,3.3043,3.3111,3.3111,3.3111,3.3068,3.3061,3.286,3.1738,3.1311,3.1035,3.003,2.9302,2.8762,2.8787,2.767,2.6751,2.7795,2.644,2.5134,2.6172,2.5561,2.46,2.4079,2.3979,2.3803,2.3221,2.3095,2.3095,2.3095,2.3095,0.0,0.0,2.2433,2.2242,2.3105,2.2493,2.1664,2.0793,2.0644,2.0625,2.0644,2.1016,2.1775,2.3023,2.3574,2.4414,2.5654,2.5693,2.5693,2.5693,2.5693,2.6122,2.7012,2.7012,2.6693,2.6045,2.4488,2.2983,2.1529,2.004,1.943,1.943,1.943,1.943,1.943,1.943,1.943,1.943,1.943,1.9546,1.9786,0.0,0.0,0.0,2.1849,2.1981,2.176,2.1151,2.0777,2.0829,2.139,2.1194,2.166,2.3379,2.2793,2.2852,2.4343,2.3516,2.3047,2.3276,2.236,2.209,2.2676,2.1328,2.043,2.0175,1.9607,1.8867,1.8008,1.8313,1.8428,1.8462,1.8764,1.8877,1.8931,2.0211,2.1097,2.1683,2.296,2.3966,2.4806,2.5487,2.5787,2.5977,2.7935,2.9477,3.0643,3.0643,3.1134,3.1821,3.1821,3.237,3.3061,3.2641,3.1989,3.1311,3.0959,3.0206,2.9654,3.0357,3.0156,2.9843,3.0181,2.9176,2.7921,2.7168,2.6138,2.5184,2.4657,2.4255,2.3929,2.3728,2.3371,2.3095,2.3095,2.3095,2.3095,0.0,2.2427,2.1784,2.1479,2.1206,2.0716,1.9813,1.9203,1.9102,1.9725,1.9863,2.0508,2.1775,2.2769,2.3945,2.5254,2.5586,2.5693,2.5693,2.5693,2.6122,2.7012,2.7012,2.615,2.4544,2.4044,2.2492,2.0141,1.9649,1.943,1.943,1.943,1.943,1.943,1.943,1.9492,1.9653,1.9653,1.972,1.9853,2.1489,2.1011,2.0779,2.1413,2.1489,2.1298,2.0683,2.0879,2.1173,2.1387,2.1953,2.2754,2.3803,2.3705,2.4062,2.5195,2.4648,2.4355,2.4629,2.3711,2.3418,2.3984,2.2676,2.1719,2.1269,2.041,1.9492,1.8457,1.8164,1.8008,1.8008,1.8008,1.8008,1.8061,1.932,1.9965,2.0252,2.1967,2.292,2.3406,2.4297,2.451,2.4547,2.6396,2.7894,2.897,2.9284,3.0169,3.1134,3.0709,3.1689,3.3025,3.2568,3.2201,3.1989,3.1989,3.1512,3.111,3.1813,3.1687,3.1486,3.1888,3.0884,2.9603,2.89,2.7871,2.6942,2.6355,2.5686,2.5109,2.4908,2.4079,2.3421,2.3421,2.3246,2.2884,0.0,2.2032,2.1353,1.9846,1.9944,1.9786,1.8911,1.834,1.8242,1.8789,1.8828,1.9531,2.1112,2.2126,2.3418,2.5067,2.5508,2.5693,2.5693,2.5693,2.6122,2.7012,2.6481,2.5394,2.3766,2.3263,2.1699,1.943,1.943,1.943,1.943,1.943,1.943,1.943,1.943,1.9546,1.98,1.98,1.9933,2.0174,2.0605,2.0605,2.0605,2.0605,2.0605,2.0605,2.0605,2.131,2.1543,2.0781,2.209,2.312,2.3159,2.3919,2.4824,2.5615,2.5352,2.5145,2.5145,2.401,2.3633,2.4414,2.3691,2.3071,2.2559,2.1658,2.0605,1.9355,1.8477,1.8047,1.8047,1.8027,1.8008,1.8008,1.8008,1.8496,1.9394,2.0605,2.1678,2.2656,2.3535,2.4102,2.4414,2.4473,2.592,2.803,2.8924,2.9988,3.0866,2.9715,3.0911,3.2698,3.1488,3.1952,3.3025,3.3025,3.3068,3.3111,3.3111,3.229,3.1738,3.286,3.1461,3.0131,3.116,3.0557,2.9628,2.9038,2.8122,2.7228,2.665,2.5242,2.4104,2.4004,2.3471,2.2525,2.0942,2.1376,2.091,1.8428,1.8777,1.8911,1.8076,1.8008,1.8008,1.8008,1.8008,1.8926,2.0995,2.1621,2.2832,2.4949,2.5469,2.5693,2.5693,2.5693,2.6122,2.6961,2.5515,2.4472,2.3766,2.2363,2.0859,1.943,1.9475,1.9488,1.943,1.943,1.943,1.943,1.9386,1.9573,1.984,1.984,2.0201,2.0735,2.0605,2.0605,2.0605,2.0605,2.0605,2.0605,2.0605,2.0801,2.1094,2.1484,2.248,2.3398,2.4023,2.4816,2.544,2.5674,2.5625,2.5566,2.5566,2.5254,2.5019,2.4902,2.4734,2.4127,2.3027,2.2148,2.123,2.0273,1.9062,1.8442,1.8442,1.813,1.8008,1.8008,1.8008,1.8652,1.9785,2.0117,2.1504,2.3574,2.4766,2.4902,2.4492,2.5089,2.5357,2.5457,2.6324,2.7437,2.8495,2.819,2.9096,3.0283,2.9966,3.0687,3.1689,3.1689,3.237,3.3111,3.3111,3.291,3.2717,3.3036,3.2014,3.106,3.1336,3.0557,2.9754,2.9603,2.9001,2.8222,2.7278,2.6424,2.5468,2.4205,2.3471,2.2944,2.2525,2.1573,2.0687,2.0009,1.8977,1.8245,1.8008,1.8008,1.8008,1.8008,1.8008,1.8535,1.9727,2.1113,2.2422,2.3594,2.4953,2.5693,2.5693,2.5693,2.6122,2.6961,2.5515,2.4472,2.3766,2.3431,2.1813,1.9475,2.0529,2.0429,1.943,1.943,1.943,1.9444,1.9599,2.0,2.0454,2.0454,2.0681,2.1002,2.0898,2.0742,2.0605,2.0605,2.0605,2.0742,2.1114,2.1505,2.1916,2.2363,2.3516,2.4316,2.4414,2.5167,2.5693,2.5693,2.5693,2.5693,2.5693,2.5693,2.5577,2.5371,2.5352,2.4941,2.4069,2.3164,2.2207,2.1192,2.0019,1.9277,1.8906,1.8442,1.8379,1.8555,1.8359,1.8789,1.9707,2.0644,2.2012,2.3613,2.4707,2.4863,0.0,2.4914,2.505,2.5011,2.5518,2.6524,2.7505,2.6935,2.7955,2.9326,2.8773,2.9806,3.127,3.1508,3.245,3.3495,3.3721,3.3796,3.3796,3.3796,3.3144,3.2491,3.2491,3.1838,3.1235,3.1235,3.0583,2.9829,2.9202,2.7882,2.6223,2.4305,2.3393,2.2701,2.2087,2.0878,1.9879,1.9507,1.8596,1.8008,1.8008,1.8008,1.8008,1.8008,1.8008,1.8633,2.0059,2.0879,2.1953,2.3379,2.4551,2.498,2.4609,2.5304,2.5927,2.6415,2.4659,2.3829,2.3766,2.3151,2.1926,2.0429,2.1259,2.1145,2.0314,1.9649,1.943,1.947,1.9826,2.0267,2.0695,2.0815,2.0962,2.1109,2.1346,2.0957,2.0723,2.084,2.0723,2.0997,2.2129,2.2738,2.3047,2.3159,2.4602,2.5323,2.4668,2.5323,2.5849,2.5849,2.5849,2.583,2.5771,2.5771,2.5752,2.5693,2.5693,2.5547,2.5204,2.4316,2.3281,2.2051,2.1113,2.0215,1.9355,1.8926,1.8926,1.9277,1.8851,1.8987,1.9668,2.1738,2.2891,2.3443,2.4238,2.459,2.459,2.459,2.5011,2.5693,2.5693,2.6428,2.7173,2.6062,2.7105,2.8727,2.7757,2.9093,3.1189,3.1778,3.2922,3.4123,3.46,3.468,3.468,3.468,3.4349,3.3997,3.3997,3.3571,3.3194,3.3194,3.234,3.1562,3.1411,2.905,2.6502,2.4732,2.3409,2.218,2.106,2.0106,1.9217,1.8279,1.8174,0.0,1.8027,1.8008,1.8008,1.8008,1.8008,1.8848,2.0761,2.0684,2.1486,2.3398,2.4082,2.4062,2.3384,2.4941,2.5752,2.5869,2.36,2.2966,2.3766,2.2251,2.1586,2.1586,2.1586,2.1586,2.1472,2.004,1.947,1.9533,2.004,2.0441,2.0762,2.1015,2.1109,2.1109,2.1777,2.1426,2.1348,2.2051,2.1289,2.1505,2.4147,2.3188,2.248,2.3535,2.4551,2.5273,2.544,2.6269,2.6797,2.6797,2.6797,2.6641,2.6289,2.6269,2.6113,2.5713,2.5693,2.5654,2.5625,2.4766,2.3848,2.2867,2.1678,2.0664,1.9805,1.9375,1.9219,1.9277,1.9199,1.9805,2.0956,2.2441,2.3496,2.4277,2.5156,2.546,2.546,2.546,2.5557,2.5693,2.5693,2.582,2.6014,2.5791,2.5965,2.6392,2.6527,2.8338,3.0487,3.0938,3.2766,3.46,3.4655,3.468,3.468,3.468,3.465,3.4575,3.4575,3.4148,3.3746,3.3746,3.3244,3.2491,3.1562,2.8491,2.6202,2.6661,2.4102,2.2093,2.2301,2.1479,2.0427,1.9202,1.9069,1.8789,1.8086,1.8008,1.8008,1.8008,1.8008,1.832,1.9026,2.0039,2.0918,2.1619,2.3457,2.4355,2.4199,2.5167,2.6044,2.6746,2.3861,2.2966,2.3766,2.2251,2.1586,2.1586,2.1586,2.1586,2.1472,2.004,1.9653,2.0094,2.0127,2.0561,2.1042,2.1096,2.1109,2.1109,2.1283,2.0382,1.9775,2.0193,2.0018,2.0455,2.2369,2.2049,2.2535,2.5121,2.5164,2.502,2.5226,2.5601,2.5567,2.4717,2.4664,2.4593,2.4396,2.5117,2.5357,2.4896,2.566,2.5977,2.5693,2.5265,2.4407,2.3101,2.2539,2.1562,2.0234,1.9824,1.9727,2.0018,2.043,2.0977,2.168,2.3184,2.4043,2.4492,2.5343,2.5693,2.5693,2.5693,2.5693,2.5693,2.5693,2.583,2.6074,2.6074,2.6074,2.6152,2.6582,2.7988,2.9548,3.0095,3.2078,3.4137,3.4477,3.5043,3.5579,3.5579,3.5353,3.5107,3.5107,3.468,3.4324,3.4324,3.3897,3.2896,3.0824,2.8996,2.7435,2.6438,2.459,2.301,2.2399,2.1466,2.0575,1.9707,1.9611,1.9355,1.873,1.8281,1.8008,1.8008,1.8169,1.8711,1.959,2.0019,2.084,2.2187,2.3223,2.3555,2.3105,2.5078,2.5937,2.5635,2.3739,2.3201,2.3766,2.3039,2.2307,2.1643,2.242,2.2307,2.1487,2.0147,1.984,2.0254,2.0401,2.0722,2.1109,2.1109,2.1109,2.1109,2.0809,1.9607,1.8583,1.8746,1.8949,1.9501,2.0622,2.0909,2.2245,2.5759,2.5156,2.4492,2.4562,2.458,2.4103,2.2872,2.2765,2.2732,2.265,2.377,2.4227,2.3788,2.4932,2.5371,2.4956,2.5203,2.4564,2.2955,2.311,2.2366,2.0742,2.0254,2.0332,2.0918,2.1582,2.209,2.2519,2.3848,2.4531,2.4766,2.5401,2.5693,2.5693,2.5693,2.5752,2.583,2.583,2.6152,2.6543,2.6621,2.6602,2.6602,2.7012,2.7975,2.9074,2.9656,3.1473,3.3332,3.3803,3.4969,3.5906,3.5595,3.5394,3.5192,3.4885,3.4607,3.4466,3.4466,3.3945,3.2813,3.0563,2.9464,2.8149,2.5921,2.4657,2.3433,2.1996,2.1346,2.0742,2.0117,2.0215,2.0137,1.9609,1.8789,1.8281,1.8281,1.8461,1.9202,2.0625,2.0195,2.084,2.2875,2.2934,2.2699,2.2168,2.4785,2.5577,2.4488,2.3617,2.3255,2.3319,2.3319,2.2702,2.1643,2.2814,2.2476,2.106,2.0196,1.9973,2.0207,2.0561,2.0855,2.1109,2.1109,2.1109,2.1109,2.113,2.0329,1.9792,2.0589,1.9825,1.9792,2.1791,2.082,2.0742,2.3253,2.3461,2.3469,2.3856,2.3889,2.3834,2.3667,2.3667,2.3535,2.3152,2.3298,2.3133,2.2663,2.2805,2.2745,2.243,2.3646,2.366,2.2449,2.2872,2.2418,2.1112,2.0723,2.0997,2.1758,2.1855,2.2734,2.4199,2.4355,2.4883,2.5577,2.5654,2.5693,2.5693,2.5693,2.5977,2.6328,2.6328,2.6602,2.7012,2.7422,2.7285,2.7031,2.7461,2.8542,2.9728,3.0118,3.1251,3.2414,3.2482,3.3502,3.4264,3.2982,3.3627,3.4144,3.2864,3.3136,3.3601,3.3601,3.2907,3.2189,3.1931,2.897,2.6562,2.6407,2.399,2.197,2.1507,2.1949,2.1875,2.0683,2.1211,2.1367,2.0566,1.9705,1.916,1.916,1.8812,1.9338,2.1034,2.0333,2.0566,2.1953,2.2012,2.2324,2.2964,2.4473,2.505,2.476,2.3691,2.2704,2.1813,2.1813,2.1756,2.1586,2.1756,2.0973,1.9618,1.9738,1.9973,2.0207,2.0561,2.0855,2.1109,2.1109,2.1109,2.1109,2.0056,1.9248,1.8564,1.8928,1.8832,1.9011,1.9916,1.9749,1.985,2.0827,2.1688,2.228,2.2461,2.2476,2.2096,2.1274,2.1159,2.1101,2.0927,2.1729,2.2023,2.1557,2.2429,2.2753,2.2339,2.285,2.2979,2.2613,2.2354,2.2271,2.2383,2.168,2.1858,2.2719,2.3184,2.3789,2.4453,2.4933,2.5362,2.5693,2.5693,2.5849,2.6133,2.6133,2.6387,2.6758,2.6758,2.7031,2.7441,2.7669,2.7611,2.748,2.791,2.845,2.889,2.9051,3.0068,3.1133,3.1133,3.2101,3.3005,3.2431,3.2733,3.3005,3.2431,3.2524,3.2784,3.2784,3.1649,3.0466,2.9869,2.8498,2.694,2.5482,2.4854,2.3902,2.1969,2.2814,2.2988,2.1172,2.1738,2.2031,2.1466,2.0098,1.9609,2.0391,1.9767,1.967,2.0372,2.0859,2.1582,2.266,2.2637,2.3047,2.3861,2.4941,2.4971,2.4018,2.3722,2.2855,2.1643,2.2533,2.2927,2.287,2.1983,2.0859,1.9712,2.0931,2.1646,2.1901,2.1189,2.1617,2.2466,2.1475,2.1109,2.1109,1.9309,1.8616,1.7983,1.7983,1.841,1.8744,1.8744,1.9239,1.9626,1.9626,2.0522,2.1119,2.0945,2.0973,2.0529,1.9475,1.943,1.943,1.943,2.0371,2.0815,2.0485,2.1521,2.1868,2.1472,2.1836,2.2258,2.2748,2.2355,2.2723,2.3756,2.2895,2.2969,2.3945,2.4531,2.4894,2.5215,2.5791,2.6064,2.6064,2.6064,2.6289,2.6562,2.6562,2.6836,2.7207,2.7207,2.748,2.7904,2.7904,2.7904,2.7963,2.8203,2.8301,2.8301,2.8301,2.8953,2.9702,2.9702,3.0669,3.1622,3.1214,3.1418,3.1622,3.1214,3.1418,3.1825,3.223,3.0896,2.9497,2.8796,2.8118,2.7008,2.4925,2.5254,2.4859,2.2254,2.334,2.3672,2.1619,2.2187,2.2578,2.2285,2.0918,2.043,2.1348,2.084,2.0488,2.0488,2.1133,2.1936,2.2797,2.2519,2.2969,2.4219,2.4535,2.4454,2.4071,2.344,2.2814,2.2251,2.287,2.3151,2.3095,2.1586,2.0482,1.9886,2.1233,2.2315,2.2989,2.1603,2.209,2.3387,2.1727,2.1109,2.1109,1.9283,1.9105,1.8905,1.8905,1.9158,1.9417,1.9417,1.9853,2.0167,2.0167,2.0227,2.0,1.9484,1.943,1.943,1.943,1.943,1.943,1.943,1.943,1.9417,1.9417,1.9417,1.9283,1.8918,2.0215,2.1517,2.2679,2.3234,2.4024,2.5067,2.416,2.4453,2.5654,2.5674,2.6142,2.6992,2.6992,2.6992,2.6992,2.6992,2.7012,2.7012,2.7012,2.7285,2.7708,2.7708,2.793,2.8281,2.8281,2.8281,2.8281,2.8301,2.8301,2.8301,2.8301,2.8281,2.8335,2.8335,2.9303,3.0016,2.8708,2.9355,2.9964,2.8654,2.9355,3.0721,3.2028,3.0896,2.9686,2.9686,2.7874,2.6143,2.5262,2.4707,2.3828,2.2129,2.334,2.3789,2.209,2.2617,2.3081,2.3081,2.2363,2.1855,2.1875,2.1875,2.1855,2.1855,2.1094,2.1036,2.1875,2.1094,2.1662,2.3769,2.275,2.3305,2.5379,2.2863,2.2363,2.371,2.2251,2.1643,2.1529,2.0097,1.9591,1.9826,2.0107,2.1348,2.2989,2.1603,2.209,2.3387,2.1727,2.1109,2.1109,1.984,1.988,1.9813,1.9813,1.9893,1.996,1.996,2.0107,2.0167,2.0167,2.0167,2.016,1.9973,1.996,1.988,1.9679,1.9666,1.9586,1.9386,1.943,1.943,1.943,1.943,1.9319,1.9225,1.9672,2.0401,2.1478,2.1068,2.1943,2.4061,2.538,2.6211,2.6602,2.6602,2.6758,2.7012,2.7012,2.7012,2.7012,2.7012,2.7187,2.7461,2.7461,2.7715,2.8086,2.8086,2.8184,2.8301,2.8301,2.8301,2.8301,2.8301,2.8301,2.8301,2.8301,2.8301,2.8301,2.8301,2.8601,2.8847,2.8388,2.8601,2.8794,2.8388,2.8654,2.9059,2.9513,2.9149,2.8653,2.8373,2.7732,2.6828,2.536,2.5469,2.5059,2.3027,2.3711,2.4004,2.2934,2.2988,2.3379,2.3945,2.3198,2.2754,2.2797,2.2797,2.2542,2.1914,2.221,2.2777,2.3574,2.3677,2.4304,2.5547,2.5246,2.467,2.3891,2.338,2.2814,2.2251,2.0759,2.0644,2.1586,2.1088,2.1235,2.1801,2.1783,2.3743,2.6318,2.2596,2.2827,2.4901,2.2153,2.1109,2.1109,2.016,2.0321,2.0401,2.0401,2.0494,2.0561,2.0561,2.0561,2.0561,2.0561,2.0561,2.0561,2.0561,2.0561,2.0401,2.0,1.996,1.984,1.9546,1.9533,1.9479,1.943,1.943,1.943,1.943,1.943,2.0,2.116,2.1197,2.2327,2.4533,2.5998,2.694,2.75,2.75,2.75,2.75,2.75,2.75,2.75,2.75,2.7656,2.7963,2.7963,2.8066,2.8301,2.8301,2.8301,2.8301,2.8301,2.8301,2.8301,2.8301,2.8301,2.8301,2.8301,2.8301,2.8301,2.8301,2.8301,2.8301,2.8301,2.8301,2.8301,2.8301,2.8301,2.8301,2.8301,2.8301,2.8203,2.7949,2.7826,2.7356,2.628,2.6367,2.5977,2.4121,2.4609,2.4668,2.3364,2.3482,2.3848,2.4355,2.3881,2.3633,2.3633,2.334,2.3066,2.2852,2.3047,2.3398,2.3926,2.4355,2.5098,2.6133,2.522,2.4869,2.5091,2.4827,2.3319,2.0759,2.0371,2.0429,2.0816,2.1549,2.2137,2.2781,2.3378,2.5532,2.7991,2.3683,2.3668,2.5619,2.2327,2.1109,2.1109,2.0233,2.0521,2.0708,2.0708,2.0922,2.1109,2.1109,2.1109,2.1109,2.1109,2.1109,2.1109,2.1109,2.1109,2.0895,2.0286,2.0281,2.0134,1.9853,1.9826,1.9706,1.9497,1.947,1.9457,1.9457,1.943,2.0083,2.1472,2.2927,2.4378,2.5809,2.5882,2.6662,2.8014,2.8121,2.8121,2.8121,2.8247,2.8301,2.8301,2.8301,2.8301,2.8301,2.8301,2.8301,2.8301,2.8301,2.8301,2.8301,2.8301,2.8301,2.8301,2.8301,2.8301,2.8301,2.8301,2.8301,2.8301,2.8301,2.8301,2.8301,2.8301,2.8301,2.8301,2.8301,2.8301,2.8301,2.8301,2.8301,2.8301,2.8301,2.7969,2.7748,2.7728,2.7324,2.6602,2.5341,2.582,2.5586,2.358,2.3984,2.4473,2.4512,2.4512,2.4492,2.4414,2.3686,2.3588,2.4336,2.3686,2.3379,2.3423,2.3789,2.4563,2.5664,2.3339,2.4123,2.7833,2.6318,2.3431,1.943,2.0816,2.0702,1.9502,2.1249,2.2317,2.3033,2.4714,2.6628,2.8051,2.4855,2.4532,2.5436,2.2264,2.1109,2.1109,2.0895,2.0962,2.1002,2.1002,2.1069,2.1109,2.1109,2.1109,2.1109,2.1109,2.1109,2.1109,2.1109,2.1109,2.1056,2.0922,2.0695,2.0441,2.0147,2.0134,2.0094,2.0027,1.9813,1.9693,1.9693,1.9479,1.9591,1.9924,2.143,2.2307,2.2702,2.3822,2.4544,2.4931,2.61,2.6608,2.6717,2.7833,2.8301,2.8301,2.8301,2.8301,2.8301,2.8301,2.8301,2.8301,2.8301,2.8301,2.8301,2.8301,2.8301,2.8301,2.8301,2.8301,2.8301,2.8301,2.8301,2.8301,2.8301,2.8301,2.8301,2.8301,2.8301,2.8301,2.8301,2.8301,2.8301,2.8301,2.8301,2.8301,2.8301,2.8203,2.8047,2.7767,2.763,2.7051,2.5762,2.5762,2.5566,2.4773,2.4832,2.5039,2.5343,2.5382,2.5089,2.4473,2.4816,2.4738,2.3984,2.5,2.5625,2.5625,2.6035,2.597,2.5454,2.5219,2.4436,2.3151,2.1714,2.0429,1.9417,1.9764,1.9751,1.9444,2.0064,2.1921,2.446,2.3938,2.5551,2.8051,2.4855,2.3807,2.3931,2.1853,2.1109,2.1109,2.1109,2.1109,2.1109,2.1109,2.1109,2.1109,2.1109,2.1109,2.1109,2.1109,2.1109,2.1109,2.1109,2.1109,2.1109,2.1109,2.0962,2.0748,2.0454,2.0441,2.0374,2.0241,2.008,2.0,2.0,1.972,1.9506,1.943,2.0199,2.0916,2.1643,2.242,2.3151,2.3822,2.4654,2.5041,2.5151,2.6662,2.7276,2.733,2.8014,2.8301,2.8301,2.8301,2.8301,2.8301,2.8301,2.8301,2.8301,2.8301,2.8301,2.8301,2.8301,2.8301,2.8301,2.8301,2.8301,2.8301,2.8301,2.8301,2.8301,2.8301,2.8301,2.8301,2.8301,2.8301,2.8301,2.8301,2.8301,2.8301,2.8301,2.8301,2.8223,2.7988,2.7617,2.7051,2.6152,2.6035,2.5879,2.543,2.5723,2.6055,2.6239,2.6278,2.6133,2.5644,2.5635,2.5557,2.5273,2.5781,2.6094,2.6094,2.6174,2.599,2.5397,2.5177,2.3877,2.1586,2.0816,2.004,1.943,1.943,1.9764,2.0443,2.0909,2.2997,2.6048,2.5651,2.7081,2.9216,2.6001,2.4717,2.4409,2.1964,2.1109,2.1109,2.1243,2.1243,2.1243,2.1243,2.1243,2.1229,2.1189,2.1176,2.1162,2.1122,2.1109,2.1109,2.1109,2.1109,2.1109,2.1109,2.1109,2.1002,2.0762,2.0735,2.0628,2.0374,2.0321,2.0294,2.0294,2.0013,1.9746,1.9492,1.9452,2.0109,2.1318,2.1274,2.1926,2.3151,2.3375,2.3487,2.3599,2.5096,2.5882,2.6209,2.7438,2.8121,2.8301,2.8301,2.8301,2.8301,2.8301,2.8301,2.8301,2.8301,2.8301,2.8301,2.8301,2.8301,2.8301,2.8301,2.8301,2.8301,2.8301,2.8301,2.8301,2.8301,2.8301,2.8301,2.8301,2.8301,2.8301,2.8301,2.8301,2.8301,2.8301,2.8301,2.8262,2.8125,2.748,2.6836,2.6348,2.6406,2.6328,2.583,2.6602,2.709,2.7031,2.7012,2.7012,2.7012,2.6298,2.6161,2.6875,2.6098,2.5632,2.5574,2.543,2.5201,2.4825,2.3729,2.2492,2.1259,2.1259,2.0587,1.943,1.943,2.0097,2.1345,2.2303,2.4343,2.7004,2.773,2.8861,2.9844,2.6832,2.5497,2.4947,2.2153,2.1109,2.1109,2.1844,2.1844,2.1844,2.1844,2.1844,2.1764,2.1588,2.1547,2.139,2.1149,2.1109,2.1109,2.1109,2.1109,2.1109,2.1109,2.1109,2.1096,2.1042,2.1042,2.1015,2.0975,2.0735,2.0601,2.0601,2.0321,2.0147,2.0094,1.9853,1.9851,2.0074,1.9874,1.9866,2.0155,2.1373,2.1911,2.2024,2.3543,2.4931,2.61,2.6318,2.7168,2.8301,2.8301,2.8301,2.8301,2.8301,2.8301,2.8301,2.8301,2.8301,2.8301,2.8301,2.8301,2.8301,2.8301,2.8301,2.8301,2.8301,2.8301,2.8301,2.8301,2.8301,2.8301,2.8301,2.8301,2.8301,2.8301,2.8301,2.8301,2.8301,2.8301,2.8047,2.7324,2.7109,2.6738,2.5908,2.6465,2.6758,2.6348,2.7051,2.7422,2.7051,2.7012,2.7012,2.7012,2.6894,2.6719,2.6504,2.5844,2.5297,2.4951,2.5232,2.4353,2.223,2.0787,1.9982,1.9764,1.9764,1.9649,1.943,1.943,1.9533,1.985,2.1847,2.3756,2.5485,2.6107,2.653,2.6591,2.4717,2.3139,2.1776,2.1299,2.1109,2.1109,2.1991,2.1991,2.1991,2.1991,2.1991,2.1937,2.1804,2.179,2.1737,2.1603,2.1443,2.1349,2.1349,2.1203,2.1109,2.1109,2.1109,2.1109,2.1109,2.1109,2.1109,2.1109,2.0975,2.0842,2.0681,2.0548,2.0388,2.0167,2.0094,2.004,2.0027,1.9893,1.9746,1.9658,2.0333,2.0584,2.0529,2.1983,2.3487,2.4931,2.5772,2.6987,2.8301,2.8301,2.8301,2.8301,2.8301,2.8301,2.8301,2.8301,2.8301,2.8301,2.8301,2.8301,2.8301,2.8301,2.8301,2.8301,2.8301,2.8301,2.8301,2.8301,2.8301,2.8301,2.8301,2.8301,2.8301,2.8301,2.8301,2.8301,2.8301,2.8301,2.8008,2.7148,2.7012,2.6719,2.581,2.6484,2.6934,2.6758,2.748,2.793,2.7715,2.7715,2.7715,2.7695,2.7715,2.7617,2.7422,2.7122,2.6133,2.4304,2.364,2.2808,2.1643,2.0141,1.9809,2.0587,1.9751,1.943,1.943,1.943,1.9904,2.0857,2.2142,2.4145,2.6591,2.7088,2.7314,2.7134,2.5497,2.3869,2.2341,2.1411,2.1109,2.1109,2.2191,2.2191,2.2191,2.2191,2.2191,2.2164,2.2098,2.2084,2.2058,2.1991,2.179,2.1722,2.1722,2.139,2.1216,2.1216,2.1149,2.1109,2.1109,2.1109,2.1109,2.1109,2.1109,2.1002,2.0775,2.0775,2.0668,2.0441,2.0374,2.0334,2.0334,2.0267,2.0107,1.9907,1.9907,1.9733,1.9582,2.0701,2.2002,2.3375,2.4599,2.6155,2.778,2.778,2.8014,2.8301,2.8301,2.8301,2.8301,2.8301,2.8301,2.8301,2.8301,2.8301,2.8301,2.8301,2.8301,2.8301,2.8301,2.8301,2.8301,2.8301,2.8301,2.8301,2.8301,2.8301,2.8301,2.8301,2.8301,2.8301,2.8301,2.8301,2.8008,2.7148,2.7012,2.6777,2.6083,2.6602,2.709,2.7285,2.7891,2.8301,2.8301,2.8301,2.8301,2.8301,2.8301,2.8121,2.778,2.7457,2.5882,2.287,2.1699,2.1088,2.1088,1.9982,1.9982,2.1088,1.9924,1.943,1.943,1.943,2.0147,2.1511,2.2334,2.4418,2.7323,2.7712,2.8051,2.823,2.6651,2.5024,2.345,2.2153,2.1411,2.1109,2.2792,2.2792,2.2792,2.2792,2.2792,2.2699,2.2432,2.2392,2.2285,2.2017,2.1964,2.1951,2.1951,2.1762,2.1588,2.1588,2.1269,2.1109,2.1109,2.1109,2.1109,2.1109,2.1109,2.1096,2.1082,2.1082,2.1069,2.1042,2.0775,2.0641,2.0641,2.0361,2.0167,2.0201,2.0201,2.004,1.9773,1.9878,2.0625,2.1756,2.187,2.3638,2.6264,2.6264,2.7114,2.8301,2.8301,2.8301,2.8301,2.8301,2.8301,2.8301,2.8301,2.8301,2.8301,2.8301,2.8301,2.8301,2.8301,2.8301,2.8301,2.8301,2.8301,2.8301,2.8301,2.8301,2.8301,2.8301,2.8301,2.8301,2.8301,2.8301,2.8008,2.7148,2.7012,2.6992,2.6934,2.6973,2.7305,2.8105,2.8262,2.8301,2.8301,2.8301,2.8301,2.8301,2.8301,2.7726,2.6318,2.4931,2.2774,1.9822,1.9649,1.9533,1.9533,1.9417,1.9417,1.9533,1.9417,1.943,1.943,1.943,1.9578,2.005,2.1919,2.3826,2.577,2.6077,2.7073,2.823,2.6651,2.5024,2.3574,2.345,2.2404,2.1109,2.2928,2.2928,2.2928,2.2928,2.2928,2.2887,2.2712,2.2699,2.2659,2.2539,2.2365,2.2258,2.2258,2.1991,2.1817,2.1817,2.171,2.1577,2.1403,2.139,2.1296,2.1122,2.1109,2.1109,2.1109,2.1109,2.1109,2.1109,2.1002,2.0949,2.0949,2.0828,2.0681,2.0508,2.0508,2.0347,2.0067,2.0067,2.0757,2.1827,2.1827,2.3004,2.4765,2.5772,2.6427,2.706,2.796,2.8301,2.8301,2.8301,2.8301,2.8301,2.8301,2.8301,2.8301,2.8301,2.8301,2.8301,2.8301,2.8301,2.8301,2.8301,2.8301,2.8301,2.8301,2.8301,2.8301,2.8301,2.8301,2.8301,2.8301,2.8301,2.8008,2.7148,2.7461,2.7617,2.709,2.748,2.793,2.8262,2.8301,2.8301,2.8301,2.8301,2.8301,2.8301,2.8301,2.8067,2.7511,2.5151,2.287,2.0816,1.9866,1.943,1.943,1.943,1.943,1.943,1.943,1.943,1.943,1.943,1.9626,2.0127,2.1947,2.3307,2.4407,2.557,2.5741,2.5391,2.4778,2.3497,2.2027,2.2027,2.1664,2.1109,2.2928,2.2928,2.2928,2.2928,2.2928,2.2928,2.2928,2.2928,2.2928,2.2928,2.2686,2.2565,2.2565,2.2298,2.2124,2.2124,2.2044,2.1897,2.1762,2.1762,2.1523,2.1122,2.1109,2.1109,2.1109,2.1109,2.1109,2.1109,2.1109,2.1109,2.1109,2.1109,2.1002,2.0815,2.0815,2.0655,2.0374,2.0374,2.0777,2.1421,2.1421,2.221,2.3472,2.4485,2.5381,2.6336,2.7279,2.7906,2.8301,2.8301,2.8301,2.8301,2.8301,2.8301,2.8301,2.8301,2.8301,2.8301,2.8301,2.8301,2.8301,2.8301,2.8301,2.8301,2.8301,2.8301,2.8301,2.8301,2.8301,2.8301,2.8301,2.8301,2.8105,2.7519,2.791,2.8086,2.75,2.793,2.8301,2.8301,2.8301,2.8301,2.8301,2.8301,2.8301,2.8301,2.8301,2.7906,2.6952,2.4044,2.1926,2.0916,1.9924,1.943,1.943,1.943,1.943,1.943,1.943,1.943,1.943,1.943,1.9679,2.0227,2.1421,2.2552,2.3698,2.4778,2.4901,2.4348,2.4348,2.3325,2.1915,2.1915,2.1538,2.1109,2.2928,2.2928,2.2928,2.2928,2.2928,2.2928,2.2928,2.2928,2.2928,2.2928,2.2928,2.2928,2.2928,2.2605,2.2418,2.2418,2.2164,2.1991,2.1991,2.1991,2.1724,2.1136,2.1109,2.1109,2.1109,2.1109,2.1109,2.1109,2.1109,2.1109,2.1109,2.1109,2.1109,2.1109,2.1109,2.0949,2.0681,2.0681,2.0508,2.018,2.018,2.112,2.2438,2.214,2.3852,2.6437,2.619,2.706,2.8301,2.8301,2.8301,2.8301,2.8301,2.8301,2.8301,2.8301,2.8301,2.8301,2.8301,2.8301,2.8301,2.8301,2.8301,2.8301,2.8301,2.8301,2.8301,2.8301,2.8301,2.8301,2.8301,2.8301,2.8301,2.8301,2.8301,2.8301,2.8301,2.8301,2.8301,2.8301,2.8301,2.8301,2.8301,2.8301,2.8301,2.8301,2.8281,2.6952,2.3933,2.0988,1.9417,1.943,1.943,1.943,1.943,1.943,1.943,1.943,1.943,1.943,1.943,1.943,1.9679,2.0167,2.018,2.1469,2.3574,2.3574,2.4532,2.5984,2.5984,2.5024,2.3574,2.3574,2.2529,2.1109,2.2928,2.2928,2.2928,2.2928,2.2928,2.2928,2.2928,2.2928,2.2928,2.2928,2.2928,2.2928,2.2928,2.2779,2.2726,2.2726,2.2645,2.2512,2.2298,2.2098,2.1911,2.1737,2.1523,2.1323,2.1109,2.1109,2.1109,2.1109,2.1109,2.1109,2.1109,2.1109,2.1109,2.1109,2.1109,2.1069,2.0975,2.0975,2.0815,2.0548,2.0548,2.072,2.0986,2.1949,2.291,2.3949,2.6062,2.6881,2.7215,2.833,2.8535,2.8301,2.8301,2.8301,2.8301,2.8301,2.8301,2.8301,2.8301,2.8301,2.8301,2.8301,2.8301,2.8301,2.8301,2.8301,2.8301,2.8301,2.8301,2.8301,2.8301,2.8301,2.8301,2.8301,2.8301,2.8301,2.8301,2.8301,2.8301,2.8301,2.8301,2.8301,2.8301,2.8301,2.7853,2.6825,2.5772,2.4322,2.2363,2.1415,2.0486,1.9417,1.943,1.943,1.943,1.943,1.943,1.943,1.943,1.943,1.943,1.9573,1.988,2.018,2.0454,2.1059,2.1853,2.1853,2.2153,2.2577,2.2577,2.2278,2.1853,2.1853,2.1538,2.1109,2.2928,2.2928,2.2928,2.2928,2.2928,2.2928,2.2928,2.2928,2.2928,2.2928,2.2928,2.2928,2.2928,2.2928,2.2928,2.2928,2.2928,2.2779,2.2605,2.2432,2.2285,2.2164,2.1991,2.175,2.1456,2.1349,2.1283,2.1283,2.1162,2.1109,2.1109,2.1109,2.1109,2.1109,2.1109,2.1109,2.1109,2.1109,2.1002,2.0842,2.0842,2.0735,2.0623,2.1465,2.2135,2.2886,2.4685,2.5473,2.5913,2.6931,2.7419,2.7595,2.7595,2.7933,2.8301,2.8301,2.8301,2.8301,2.8301,2.8301,2.8301,2.8301,2.8301,2.8301,2.8301,2.8301,2.8301,2.8301,2.8301,2.8301,2.8301,2.8301,2.8301,2.8301,2.8301,2.8301,2.8301,2.8301,2.8301,2.8301,2.8301,2.8301,2.8301,2.778,2.6825,2.5316,2.3822,2.2533,2.1643,2.1031,2.0314,1.943,1.943,1.943,1.943,1.943,1.943,1.943,1.943,1.943,1.943,1.9666,1.996,2.0254,2.0548,2.0842,2.1109,2.1109,2.1109,2.1109,2.1109,2.1109,2.1109,2.1109,2.1109,2.1109,2.2928,2.2928,2.2928,2.2928,2.2928,2.2928,2.2928,2.2928,2.2928,2.2928,2.2928,2.2928,2.2928,2.2928,2.2928,2.2928,2.2928,2.2928,2.2928,2.2928,2.2739,2.2472,2.2458,2.2338,2.2071,2.1815,2.1655,2.1655,2.1296,2.1149,2.1149,2.1122,2.1109,2.1109,2.1109,2.1109,2.1109,2.1109,2.1109,2.1109,2.1109,2.1109,2.1082,2.0815,2.1561,2.273,2.2616,2.342,2.4535,2.4678,2.5445,2.632,2.632,2.7197,2.8183,2.8183,2.8272,2.834,2.834,2.832,2.8301,2.8301,2.8301,2.8301,2.8301,2.8301,2.8301,2.8301,2.8301,2.8301,2.8301,2.8301,2.8301,2.8301,2.8301,2.8301,2.8301,2.8301,2.8301,2.8301,2.8301,2.8301,2.8301,2.6825,2.5261,2.371,2.2266,2.1415,2.1415,2.0155,1.943,1.943,1.943,1.943,1.943,1.943,1.943,1.943,1.943,1.9386,1.9412,1.9706,2.0,2.0294,2.0588,2.0869,2.1109,2.1109,2.1109,2.1109,2.1109,2.1109,2.1109,2.1109,2.1109,2.1109,2.2928,2.2928,2.2928,2.2928,2.2928,2.2928,2.2928,2.2928,2.2928,2.2928,2.2928,2.2928,2.2928,2.2928,2.2928,2.2928,2.2928,2.2928,2.2928,2.2928,2.2901,2.2766,2.2766,2.2739,2.274,2.2151,2.1897,2.1897,2.1603,2.1521,2.1521,2.1216,2.1109,2.1109,2.1109,2.1109,2.1109,2.1109,2.1109,2.1109,2.1109,2.1109,2.1096,2.1042,2.1204,2.1679,2.2901,2.3307,2.3398,2.4365,2.4845,2.5085,2.5085,2.6127,2.7397,2.7397,2.8031,2.8789,2.8789,2.8535,2.8301,2.8301,2.8301,2.8301,2.8301,2.8301,2.8301,2.8301,2.8301,2.8301,2.8301,2.8301,2.8301,2.8301,2.8301,2.8301,2.8301,2.8301,2.8301,2.8301,2.8301,2.8301,2.8301,2.5882,2.3654,2.2194,2.0702,1.9866,1.9866,1.9591,1.943,1.943,1.943,1.943,1.943,1.943,1.943,1.943,1.943,1.9492,1.972,2.0,2.0307,2.0601,2.0882,2.1056,2.1109,2.1109,2.1109,2.1109,2.1109,2.1109,2.1109,2.1109,2.1109,2.1109,2.2928,2.2928,2.2928,2.2928,2.2928,2.2928,2.2928,2.2928,2.2928,2.2928,2.2928,2.2928,2.2928,2.2928,2.2928,2.2928,2.2928,2.2928,2.2928,2.2928,2.2928,2.2928,2.2928,2.2928,2.2928,2.2565,2.2338,2.2191,2.1897,2.1764,2.175,2.1456,2.1323,2.1309,2.1176,2.1109,2.1109,2.1109,2.1109,2.1109,2.1109,2.1109,2.1109,2.1109,2.1109,2.1235,2.209,2.2242,2.2134,2.2745,2.3353,2.3813,2.3813,2.4809,2.5955,2.5955,2.639,2.7042,2.7847,2.7864,2.7935,2.8723,2.875,2.8535,2.834,2.8301,2.8301,2.8301,2.8301,2.8301,2.8301,2.8301,2.8301,2.8301,2.8301,2.8301,2.8301,2.8301,2.8301,2.8301,2.8301,2.7726,2.6282,2.41,2.2153,2.0644,1.9809,1.943,1.943,1.943,1.943,1.943,1.943,1.943,1.943,1.943,1.943,1.943,1.943,1.9519,1.9813,2.0094,2.0401,2.0695,2.0989,2.1109,2.1109,2.1109,2.1109,2.1109,2.1109,2.1109,2.1109,2.1109,2.1109,2.1109,2.2366,2.2435,2.2516,2.2859,2.2928,2.2928,2.2928,2.2928,2.2928,2.2928,2.2928,2.2928,2.2928,2.2928,2.2928,2.2928,2.2928,2.2928,2.2928,2.2928,2.2928,2.2928,2.2928,2.2928,2.2928,2.2928,2.2739,2.2498,2.2205,2.2058,2.2058,2.1764,2.1668,2.1601,2.1296,2.1162,2.1109,2.1109,2.1109,2.1109,2.1109,2.1109,2.1109,2.1109,2.1109,2.1109,2.1109,2.1109,2.1109,2.1109,2.1735,2.2559,2.2559,2.3504,2.4504,2.4504,2.4633,2.5111,2.6406,2.6756,2.7065,2.8747,2.8889,2.8597,2.854,2.8398,2.8301,2.8301,2.8301,2.8301,2.8301,2.8301,2.8301,2.8301,2.8301,2.8301,2.8301,2.8301,2.8301,2.8301,2.8067,2.6717,2.371,2.2307,2.0973,1.9533,1.943,1.943,1.943,1.943,1.943,1.943,1.943,1.943,1.943,1.947,1.9439,1.9439,1.9492,1.9639,1.988,2.0174,2.0468,2.0762,2.1002,2.1109,2.1109,2.1109,2.1109,2.1109,2.1109,2.1109,2.1109,2.1109,2.1109,2.1109,2.012,2.0479,2.0963,2.2654,2.2928,2.2928,2.2928,2.2928,2.2928,2.2928,2.2928,2.2928,2.2928,2.2928,2.2928,2.2928,2.2928,2.2928,2.2928,2.2928,2.2928,2.2928,2.2928,2.2928,2.2928,2.2928,2.2914,2.2806,2.2498,2.2365,2.2352,2.2058,2.179,2.1614,2.1574,2.1349,2.1109,2.1109,2.1109,2.1109,2.1109,2.1109,2.1109,2.1109,2.1109,2.1109,2.1109,2.1109,2.1109,2.1109,2.1209,2.1357,2.1357,2.2429,2.3748,2.3748,2.4432,2.5238,2.5476,2.5319,2.5435,2.7007,2.7371,2.7731,2.9116,2.8828,2.8301,2.8301,2.8301,2.8301,2.8301,2.8301,2.8301,2.8301,2.8301,2.8301,2.8301,2.8301,2.8301,2.8301,2.7168,2.5206,2.2194,2.1699,2.0973,1.9533,1.943,1.943,1.943,1.943,1.943,1.943,1.943,1.943,1.943,1.9613,1.9746,1.9746,2.0,2.0134,2.0187,2.0481,2.0775,2.1056,2.1096,2.1109,2.1109,2.1109,2.1109,2.1109,2.1109,2.1109,2.1109,2.1109,2.1109,2.1109,1.8299,1.8519,1.8718,1.9565,2.0617,2.1321,2.1321,2.2229,2.2928,2.2928,2.2928,2.2928,2.2928,2.2928,2.2928,2.2928,2.2928,2.2928,2.2928,2.2928,2.2928,2.2928,2.2928,2.2928,2.2928,2.2928,2.2928,2.2928,2.2726,2.2672,2.2659,2.2365,2.2164,2.2031,2.1871,2.163,2.1363,2.1363,2.1256,2.1109,2.1109,2.1109,2.1109,2.1109,2.1109,2.1109,2.1109,2.1109,2.1109,2.1109,2.1109,2.1109,2.1109,2.1601,2.2215,2.2215,2.2539,2.315,2.4131,2.4205,2.4443,2.6101,2.6302,2.6498,2.8212,2.8108,2.7919,2.8839,2.9004,2.9004,2.9004,2.8809,2.8633,2.8633,2.8437,2.8014,2.7168,2.706,2.6771,2.5882,2.4488,2.3039,2.1756,2.0859,2.0097,1.943,1.943,1.943,1.943,1.943,1.943,1.943,1.943,1.9452,1.9613,1.9733,1.988,2.004,2.0347,2.0481,2.0481,2.0615,2.0842,2.1109,2.1109,2.1109,2.1109,2.1109,2.1109,2.1109,2.1109,2.1109,2.1109,2.1109,2.1109,2.1109]}]]